ECMWFNIL_850_thetae_000.txt.gz
Theta_e
345 344 346 344 342 342 342 341 342 342 344 346 346 345 345 343 342 342 341 340 337 335 334 334 333 332 334 335 332 333 334 334 335 335 333 332 331 332 333 333 333 333
345 345 346 344 342 341 341 340 341 342 340 340 343 344 343 342 342 341 340 339 337 335 334 334 333 333 334 335 334 334 334 334 334 335 333 331 331 332 333 333 333 333
347 347 346 345 344 341 340 341 341 340 340 339 339 340 340 341 341 340 338 337 337 336 335 334 335 334 333 334 334 335 334 334 335 335 335 333 332 332 332 333 333 333
345 346 345 344 345 344 342 342 340 340 341 341 339 338 336 335 337 337 336 334 333 334 335 335 335 335 335 335 335 335 334 334 334 334 335 334 333 332 332 333 333 333
343 345 345 344 345 345 343 341 340 340 341 341 340 339 333 327 329 332 332 331 331 333 336 336 335 335 335 335 335 335 334 334 334 334 334 334 334 333 333 333 333 333
342 345 346 345 344 343 341 342 341 339 340 342 343 342 335 328 328 330 329 331 334 337 338 338 336 335 335 335 335 335 334 334 333 334 334 334 334 333 333 333 333 333
340 343 345 344 343 341 341 343 340 334 337 344 346 345 340 332 330 331 328 328 333 336 336 333 330 329 332 332 331 331 332 333 333 334 334 334 334 334 333 333 333 333
335 337 340 342 343 344 344 343 338 330 334 344 347 345 341 334 331 332 329 326 328 331 331 328 322 321 324 326 327 329 331 332 334 334 334 334 333 333 333 333 333 332
335 335 338 344 344 343 342 338 334 330 335 345 347 342 338 334 331 330 326 324 325 328 328 326 321 319 320 322 325 328 328 328 330 333 334 334 333 333 333 332 332 332
337 337 339 344 345 345 341 332 329 332 337 344 344 338 334 331 329 328 324 320 319 320 321 321 320 320 321 322 323 324 322 321 326 331 333 333 332 331 330 331 332 332
347 347 346 348 349 347 341 331 326 330 335 340 340 337 334 330 324 321 320 320 319 320 320 319 319 320 321 322 323 322 320 320 326 332 333 333 331 327 325 327 329 331
359 358 355 355 355 349 337 328 326 326 328 333 334 334 334 330 323 318 319 325 327 326 325 322 318 319 321 322 323 323 320 320 326 332 334 333 330 326 325 328 330 330
358 356 353 353 356 353 340 328 326 324 323 325 326 326 327 327 325 322 321 326 327 326 327 325 320 319 322 323 323 323 322 320 324 330 333 332 331 330 329 330 331 331
353 355 355 352 356 356 344 329 326 325 322 322 323 324 325 325 326 325 323 324 325 324 325 326 324 321 322 324 323 322 323 322 323 327 330 332 333 333 331 330 331 331
359 359 358 355 356 355 345 331 327 326 323 323 324 324 325 326 327 327 325 323 323 323 323 325 325 322 322 324 323 322 325 325 323 325 330 332 333 334 334 333 333 332
361 358 356 355 355 354 345 335 332 328 325 325 325 324 325 327 328 329 327 322 322 324 325 325 324 322 322 325 324 323 326 327 325 325 328 331 332 333 333 332 332 332
360 358 356 355 355 353 347 341 336 331 328 327 326 326 326 326 325 327 328 324 321 323 326 326 324 322 323 324 323 323 327 329 329 327 327 329 330 331 331 330 331 332
360 359 358 357 356 354 350 346 341 335 331 330 329 329 330 326 323 326 328 324 319 323 328 328 324 323 324 324 323 324 328 331 331 330 330 330 329 329 329 331 332 332
360 359 359 358 356 354 352 349 345 339 335 333 332 333 331 324 321 325 329 326 320 323 329 328 324 325 327 327 327 328 331 333 333 333 333 331 328 328 330 332 333 332
360 359 358 357 355 354 351 349 346 342 338 334 333 332 328 323 322 324 328 327 324 325 329 327 323 326 330 330 332 333 332 331 332 332 332 331 329 329 331 333 333 333
360 359 358 357 355 353 351 349 346 343 340 336 333 330 326 324 324 323 325 329 329 328 328 325 323 328 332 333 334 334 330 326 327 329 330 331 331 331 331 332 332 332
360 359 358 357 355 353 351 348 345 343 341 339 335 332 330 327 325 323 324 330 333 330 328 326 325 329 334 334 333 330 326 322 324 328 331 332 333 333 332 331 331 330
360 359 357 356 355 354 351 347 345 342 341 340 338 337 336 332 327 323 325 332 335 332 329 327 326 328 333 333 328 324 322 321 322 327 331 333 332 332 331 330 329 329
358 356 356 355 354 353 350 347 344 341 340 339 339 338 337 335 332 330 333 337 337 333 331 329 329 331 331 328 323 321 321 322 324 327 331 333 331 330 327 326 326 327
354 354 354 353 353 352 349 345 342 340 339 339 339 339 339 338 337 337 338 338 337 335 333 330 331 333 330 323 321 320 320 322 326 328 329 331 330 327 325 324 324 325
351 351 351 352 352 350 347 344 341 339 338 338 338 339 339 339 337 336 337 336 335 334 332 329 330 331 327 323 322 323 323 325 327 327 326 325 326 326 327 326 325 326

ECMWFNIL_850_thetae_003.txt.gz
Theta_e
342 345 345 348 352 354 355 354 353 351 351 351 350 349 349 347 346 344 342 341 341 341 340 339 337 335 335 336 334 333 335 336 335 336 336 336 336 335 335 335 335 335
342 344 344 346 351 352 353 354 353 352 350 350 350 349 348 347 345 343 342 342 341 340 340 339 337 335 335 337 336 334 334 335 336 335 336 337 336 336 337 336 335 335
345 343 342 345 349 350 352 354 353 351 350 349 349 348 347 347 345 343 343 342 340 340 340 339 339 337 336 336 337 336 335 335 336 336 336 337 336 337 337 336 336 335
349 343 340 344 348 350 352 353 352 350 349 349 348 347 347 345 344 344 342 341 340 341 341 339 339 338 337 337 336 336 336 335 336 335 336 336 336 336 336 336 336 335
353 344 342 344 347 351 353 352 351 351 349 349 347 345 342 338 337 337 336 337 339 340 340 339 338 338 337 337 336 336 336 336 335 335 334 335 335 335 335 335 335 335
355 347 344 344 347 352 353 351 351 350 349 349 346 341 339 335 331 328 327 331 335 337 338 339 339 336 333 336 337 336 336 336 336 336 335 335 335 335 334 334 334 335
358 351 344 345 349 352 353 351 351 349 348 348 343 337 336 334 329 324 322 323 325 328 330 334 336 331 326 331 335 336 336 336 335 334 334 335 336 335 334 334 334 335
359 355 347 347 350 351 352 351 349 346 344 344 340 334 331 328 325 325 324 322 320 320 321 326 330 326 321 324 330 333 336 337 336 335 335 334 335 335 334 334 334 334
359 356 351 349 350 352 351 349 345 343 341 340 337 332 328 325 325 325 326 325 322 319 319 321 323 323 321 320 322 326 331 334 336 337 337 336 335 335 335 334 334 334
357 356 354 350 348 349 348 346 344 341 339 337 334 330 327 326 326 324 325 326 325 322 320 320 321 322 322 321 320 320 323 329 333 333 335 335 332 332 334 335 334 335
359 358 356 350 347 349 347 344 343 341 338 336 332 328 326 327 327 326 325 326 328 326 322 320 321 321 322 321 321 322 321 326 332 333 332 330 325 328 334 335 335 335
361 360 355 344 346 354 351 344 343 342 338 334 330 328 326 326 328 328 326 325 328 329 326 322 321 322 324 321 322 328 327 324 331 335 334 330 324 327 335 335 333 334
362 360 353 341 345 352 350 346 344 340 334 330 329 329 327 327 328 328 327 325 326 327 327 325 321 322 326 323 322 329 329 323 328 334 335 333 327 328 334 334 331 332
361 361 355 346 346 348 345 345 344 338 332 327 328 329 327 326 328 328 328 327 326 327 327 327 324 322 326 326 322 323 324 323 326 330 331 331 327 328 332 333 332 333
362 363 359 353 348 346 341 341 342 338 332 327 328 331 330 327 327 328 328 328 328 328 328 328 327 322 324 326 323 321 323 324 326 326 326 326 324 325 329 331 333 335
363 364 362 357 352 348 343 341 341 338 333 329 330 336 337 331 326 327 328 329 328 327 327 328 327 323 323 324 324 324 325 326 326 324 324 326 325 325 328 331 332 334
365 365 363 360 356 353 350 347 345 343 340 335 334 340 339 332 326 327 328 328 328 327 326 326 326 326 326 323 323 325 326 326 327 326 325 326 326 325 328 330 331 333
367 365 364 361 358 357 355 354 353 352 350 347 345 344 338 330 326 326 326 326 327 325 325 328 328 329 329 325 324 326 326 325 328 329 328 327 327 326 328 329 330 331
366 366 364 361 358 358 357 357 356 355 354 353 350 344 336 331 328 326 325 325 324 325 328 330 331 331 331 327 325 327 327 326 327 329 328 328 328 328 329 330 330 330
364 364 361 360 359 358 358 358 356 355 355 353 350 344 337 333 329 327 325 324 325 328 329 331 332 333 332 329 326 325 326 327 328 328 327 328 329 330 331 332 332 330
362 361 360 359 359 359 358 357 355 355 355 353 350 342 336 332 328 327 327 327 328 330 330 331 334 334 333 330 326 324 325 328 330 329 328 329 331 332 333 333 332 332
362 361 360 359 359 358 358 357 355 355 354 353 350 342 335 333 331 330 331 331 330 329 329 332 335 334 331 329 327 326 327 330 331 330 329 331 332 332 332 333 334 333
361 360 359 359 359 358 357 355 354 353 352 351 349 345 340 338 336 335 334 332 331 331 331 333 336 335 332 330 331 329 328 330 333 332 331 333 333 330 329 331 333 331
356 358 359 358 357 355 353 352 351 350 350 349 347 346 344 342 340 339 336 334 335 336 336 335 336 336 333 332 334 331 328 330 333 332 331 331 330 327 327 329 330 327
351 357 358 355 353 351 350 350 349 349 349 347 346 346 345 342 341 340 338 338 338 339 339 338 338 337 334 334 335 332 328 329 331 330 330 329 328 327 328 328 328 326
348 353 353 350 349 350 351 350 348 348 348 346 344 344 344 343 342 341 340 340 340 340 340 339 338 337 336 336 334 332 330 330 329 328 328 329 330 329 327 326 325 325

ECMWFNIL_850_thetae_006.txt.gz
Theta_e
346 346 348 349 351 353 354 352 349 349 350 349 343 342 344 342 343 345 343 343 341 336 332 329 325 326 327 325 323 326 329 331 335 337 335 335 335 335 336 335 335 336
347 343 344 347 350 354 355 351 346 345 349 350 346 344 343 342 343 343 343 342 340 335 331 326 322 320 322 321 320 321 323 326 332 336 336 335 336 336 337 336 336 335
349 344 343 345 348 353 354 351 348 347 349 349 347 345 344 343 343 343 342 341 337 332 328 323 320 319 320 322 326 328 325 323 327 333 336 337 336 336 336 336 336 336
350 348 347 344 345 347 348 349 350 351 351 347 344 344 343 342 342 342 340 336 333 331 327 321 321 323 323 324 331 335 331 326 329 333 335 336 335 334 334 334 334 335
349 351 350 345 343 344 343 345 349 352 350 346 342 343 342 341 341 340 337 334 332 330 324 321 324 329 329 327 330 333 329 327 331 333 332 333 334 333 332 331 331 332
352 353 351 345 344 345 342 342 347 350 349 344 342 343 341 341 340 339 338 336 332 327 322 322 326 330 332 330 328 327 326 327 331 331 328 329 333 333 333 332 333 333
354 354 352 347 346 346 341 341 344 347 348 345 343 343 342 342 341 338 339 337 332 325 322 325 327 328 330 331 328 326 325 326 329 333 332 333 334 334 334 333 332 333
356 355 353 350 348 346 342 341 342 344 346 345 344 343 343 344 342 338 337 337 331 325 323 324 327 329 330 328 326 326 326 325 326 330 333 334 335 336 336 333 329 328
358 357 355 353 351 348 344 342 341 341 343 344 344 344 343 344 342 338 336 335 333 327 325 324 326 330 331 328 325 326 326 325 324 325 326 329 331 332 332 329 326 325
357 357 357 356 354 350 346 342 341 340 341 344 344 344 344 344 343 340 336 335 334 331 327 325 324 326 330 328 326 326 325 323 323 324 325 327 330 331 331 331 330 331
358 357 357 357 357 353 348 343 341 341 342 344 344 345 344 343 342 341 338 335 335 332 328 326 324 323 326 326 324 324 323 322 322 322 324 327 330 333 334 334 334 336
357 356 356 357 357 356 353 347 342 341 341 342 344 344 344 344 342 341 339 337 335 332 327 326 325 324 325 324 322 321 322 323 323 323 323 325 325 327 329 327 327 332
358 354 355 356 356 355 354 350 345 344 343 341 342 344 344 343 342 340 339 338 336 331 326 326 327 327 327 325 322 321 322 324 325 324 323 324 322 325 328 326 322 326
357 355 355 355 355 355 353 350 347 347 346 343 341 342 344 343 341 340 338 336 336 332 327 326 328 328 328 327 324 322 322 323 326 326 324 325 325 328 331 330 328 329
356 356 356 356 355 354 352 349 347 347 347 345 342 341 342 342 341 339 338 336 336 333 328 327 329 329 329 328 327 324 323 324 326 326 325 325 326 330 331 329 328 330
357 357 357 356 354 353 351 349 348 348 347 346 344 340 339 341 341 341 340 338 336 333 330 328 330 330 329 329 328 327 324 324 325 325 325 325 326 328 329 326 323 324
357 359 359 356 354 353 352 351 350 349 348 347 346 343 340 342 344 344 342 339 336 333 329 328 329 329 330 330 329 328 325 324 325 324 325 326 326 327 326 324 323 323
357 361 361 359 356 355 355 354 352 350 349 348 348 346 343 345 346 345 342 339 337 334 329 328 329 329 329 330 330 329 326 324 324 325 325 326 326 326 325 325 325 325
357 361 361 360 358 358 358 358 356 353 351 349 349 347 346 347 347 345 344 340 336 334 331 329 329 329 330 331 331 329 326 325 325 325 326 326 326 327 327 326 326 326
355 358 357 357 358 359 360 360 358 356 354 351 350 350 349 350 349 347 344 340 337 336 335 333 331 330 330 331 332 330 329 328 327 326 325 326 328 328 328 327 327 327
352 352 352 353 356 358 359 360 358 358 356 354 354 353 352 352 350 348 345 342 340 339 337 336 334 333 332 332 333 332 331 330 329 327 326 326 328 329 328 327 328 328
353 352 352 352 352 354 356 358 360 361 359 358 356 354 353 352 350 348 345 343 341 340 338 337 336 336 334 334 334 332 331 331 330 328 326 326 327 329 329 329 329 330
355 354 354 353 352 353 356 359 362 362 361 360 358 355 353 352 350 348 346 345 343 341 339 337 337 336 335 334 333 331 331 332 330 328 326 327 328 329 330 331 331 332
358 357 356 355 355 357 360 363 363 363 361 360 358 356 354 351 349 348 347 346 343 341 339 337 336 336 335 334 333 333 334 333 331 329 328 329 331 332 332 332 332 332
361 359 359 359 360 362 363 363 361 360 360 359 358 357 355 352 350 348 346 345 344 343 341 338 337 338 338 337 337 336 335 334 333 331 329 330 332 333 333 332 330 330
363 362 362 363 364 363 361 360 358 358 357 357 355 355 354 352 349 346 345 344 344 343 341 340 340 340 339 338 338 337 336 335 334 332 330 330 332 332 331 329 328 327

ECMWFNIL_850_thetae_012.txt.gz
Theta_e
343 339 337 338 339 340 343 345 345 345 346 346 345 343 340 341 345 345 345 345 346 344 341 339 339 339 339 337 337 335 332 329 324 319 316 316 319 323 328 330 329 329
341 339 337 337 338 339 341 344 345 344 345 345 344 341 340 341 344 345 344 344 345 343 340 339 339 339 339 338 337 335 332 330 325 320 317 317 318 323 327 328 327 329
340 339 339 337 337 338 340 343 346 345 345 345 344 342 341 342 344 345 344 343 343 342 340 339 338 339 339 339 338 335 331 329 327 322 319 319 318 320 324 327 328 331
339 338 340 339 338 338 340 342 345 345 345 346 345 343 343 343 343 345 344 342 343 341 339 339 339 340 340 339 337 335 330 327 327 325 322 321 319 318 323 327 329 332
338 337 341 342 341 339 340 342 344 344 344 346 346 345 344 343 342 344 343 342 341 341 339 339 340 341 340 337 332 329 327 324 325 325 323 322 321 320 323 328 330 331
342 338 340 344 343 341 341 342 343 344 344 345 346 345 344 344 342 343 343 341 341 341 340 340 341 342 339 333 325 322 322 321 322 323 321 321 322 322 325 329 331 331
347 341 340 343 345 343 342 343 343 343 343 345 346 345 343 343 343 343 342 341 341 342 341 341 341 342 339 334 325 319 319 320 321 321 320 321 322 322 324 327 330 332
350 346 342 343 345 345 344 345 344 343 343 345 346 345 343 343 343 343 343 342 342 342 342 342 342 342 341 338 328 319 318 320 320 321 321 321 322 322 322 324 327 330
352 350 346 344 345 346 346 346 345 344 344 345 347 345 343 342 343 343 343 343 343 342 342 342 343 342 342 341 331 320 319 321 321 322 322 322 323 323 323 324 324 326
354 353 350 347 346 345 346 347 347 346 345 345 346 346 343 342 343 343 343 344 344 343 342 343 343 343 342 342 334 323 319 321 321 322 323 323 323 323 324 325 324 324
355 354 352 350 348 344 344 347 348 347 345 345 346 345 343 343 344 344 343 343 344 343 343 343 344 343 343 343 337 327 321 322 322 322 323 323 324 324 325 325 325 323
356 354 353 352 349 346 343 346 349 348 346 345 345 343 342 343 344 344 342 342 343 344 344 344 344 344 344 343 339 331 324 323 323 323 323 323 323 324 325 325 324 323
356 355 353 352 350 347 344 345 348 349 348 346 344 343 342 343 343 344 342 341 343 345 346 345 345 345 344 343 341 335 329 325 324 325 325 324 323 324 325 325 324 323
356 354 353 351 350 349 347 346 347 349 349 347 345 343 341 341 342 343 343 344 345 346 346 346 346 345 345 344 342 339 334 328 326 327 326 325 324 323 325 325 324 323
356 355 354 352 352 351 349 348 348 350 351 349 347 344 342 342 344 344 345 346 346 347 347 347 347 346 345 344 343 341 337 331 328 328 328 326 325 323 324 325 325 324
357 356 355 354 352 352 350 349 350 352 353 351 349 347 345 345 347 347 348 347 347 347 348 348 348 346 345 345 344 343 340 335 331 330 329 328 326 324 323 324 325 325
357 356 356 355 353 352 352 352 353 354 354 353 352 350 349 348 348 349 348 348 348 348 348 348 348 347 346 346 345 344 342 337 333 332 331 329 328 327 325 323 324 325
357 356 356 356 355 354 353 354 355 356 356 355 354 353 350 349 350 349 349 348 348 348 348 348 348 347 347 346 346 345 343 339 336 333 332 331 329 328 327 324 323 325
356 357 357 356 356 355 355 355 356 357 356 356 355 354 351 350 351 350 350 349 348 347 347 348 348 347 347 347 347 346 343 341 338 334 333 333 331 330 329 325 323 324
356 357 356 356 356 356 357 357 357 357 357 356 355 354 353 352 352 351 350 349 349 348 347 348 348 347 347 347 347 347 344 342 339 335 333 333 332 331 330 327 324 323
357 357 356 357 357 357 358 358 357 357 357 356 355 354 354 353 352 352 351 350 350 350 349 349 348 347 348 348 349 348 345 342 339 335 334 335 334 332 330 328 325 323
357 356 357 358 358 358 358 358 357 357 356 356 355 355 355 354 353 353 353 352 352 351 350 350 349 349 349 350 350 349 346 343 339 337 337 337 336 332 330 329 326 323
357 356 357 358 358 358 358 358 358 357 356 355 355 355 355 355 354 354 354 354 353 352 352 351 350 351 351 351 351 349 347 343 339 338 338 337 334 331 330 329 326 323
357 356 357 358 358 358 358 358 358 357 355 355 355 355 355 354 354 355 355 355 354 354 353 352 352 352 352 353 352 350 348 344 340 339 339 336 332 330 330 329 327 324
357 357 357 357 358 358 358 358 357 356 356 355 355 355 355 355 355 356 356 356 355 355 354 353 353 354 353 353 352 350 347 344 340 340 338 335 332 331 330 329 326 325
357 357 357 357 358 357 358 358 357 356 356 356 356 356 356 357 357 357 357 357 356 355 355 354 354 354 353 351 349 347 345 342 340 339 337 334 332 331 330 328 327 329

ECMWFNIL_850_thetae_015.txt.gz
Theta_e
349 348 347 347 347 345 344 345 345 345 343 343 343 344 344 344 344 346 346 347 347 346 345 344 343 342 341 338 336 336 337 335 334 333 333 330 323 320 322 324 327 331
350 349 348 347 347 345 344 344 344 345 344 343 343 343 344 344 344 345 346 346 346 345 344 344 344 343 341 338 337 337 337 336 334 333 332 328 321 317 319 322 326 330
349 349 349 348 347 345 344 343 343 344 345 345 344 343 343 344 344 346 345 344 345 345 344 344 344 342 340 338 338 338 338 336 334 332 329 324 319 316 317 320 326 330
349 349 349 348 347 345 344 343 343 343 344 345 346 344 343 344 345 346 345 344 344 345 344 344 344 342 340 338 338 338 338 337 334 332 329 324 319 317 316 319 325 328
349 349 349 348 347 346 344 343 342 341 343 344 346 345 344 345 345 344 344 343 343 345 345 344 343 341 339 338 338 338 337 336 334 333 331 326 322 319 317 319 323 326
350 349 349 348 348 347 345 343 340 339 340 342 344 346 345 345 345 344 343 341 342 344 345 344 342 340 339 338 338 338 336 334 333 332 331 327 324 321 319 319 321 323
350 349 349 349 348 348 346 343 340 337 337 339 342 344 345 345 345 344 342 341 341 343 345 344 342 339 338 337 338 338 336 334 332 331 330 328 325 322 321 320 319 321
350 350 349 349 349 349 347 343 339 336 336 338 339 342 345 345 345 345 343 342 342 342 344 344 342 339 337 337 338 338 337 334 331 329 328 327 325 322 321 320 320 321
351 350 350 350 350 350 346 340 337 336 336 337 338 340 343 345 345 345 344 344 343 343 344 344 342 340 337 337 338 338 337 335 331 327 324 323 322 321 321 321 321 322
351 351 351 351 351 349 345 339 336 336 336 337 338 339 342 344 345 345 345 345 345 344 344 343 342 341 338 338 338 338 338 337 333 326 320 319 320 320 321 321 321 322
352 352 352 352 351 350 347 341 338 337 337 337 338 340 342 344 345 345 345 346 345 345 344 343 343 341 340 339 338 339 339 339 337 330 321 318 320 320 321 321 322 323
352 352 352 352 352 351 349 346 342 338 337 338 340 341 342 344 345 344 344 345 346 345 344 343 343 342 341 340 339 340 340 341 340 336 326 319 319 321 321 321 322 323
352 352 353 352 352 351 351 350 347 342 338 338 341 343 344 345 345 344 343 344 346 346 345 344 345 344 342 342 341 341 341 341 342 340 332 322 320 321 322 322 323 323
353 353 353 353 352 352 352 351 350 347 342 339 340 343 345 346 346 345 344 344 345 346 346 345 346 345 344 343 342 342 342 342 343 342 337 326 320 321 322 322 323 323
354 353 354 353 353 353 352 352 352 350 346 343 340 341 343 346 346 346 345 345 345 346 347 347 347 346 345 344 344 344 343 343 343 343 340 331 323 322 323 323 324 324
355 354 354 354 354 353 353 353 353 352 350 347 343 341 341 343 346 347 347 346 345 346 347 347 347 346 345 344 345 345 344 344 344 343 343 336 327 323 324 326 325 324
355 355 355 354 354 354 354 354 355 354 353 351 348 344 340 340 343 347 348 347 346 346 347 347 346 345 345 345 345 346 346 346 345 344 344 340 333 327 326 328 328 325
356 356 356 355 354 354 355 355 356 355 354 353 351 348 343 340 341 343 346 347 347 347 347 346 344 343 345 346 346 347 348 347 346 345 344 343 340 333 327 328 330 327
356 357 356 355 355 355 356 356 357 356 355 354 353 351 347 343 339 339 342 345 348 348 346 344 342 342 344 346 346 347 348 348 346 346 345 344 343 338 330 329 331 329
357 357 356 356 355 356 357 357 357 356 356 355 354 353 351 346 341 339 340 342 345 346 345 344 342 342 343 345 347 348 349 348 346 346 346 344 343 341 334 330 330 330
356 356 356 356 357 357 357 357 357 357 356 356 356 355 352 348 343 341 340 340 342 344 345 345 343 342 343 345 347 349 349 348 345 344 345 344 343 342 337 331 331 331
355 356 355 356 357 358 358 357 357 357 356 356 356 355 354 351 347 345 343 341 340 341 344 344 342 342 344 345 348 350 350 348 345 345 345 344 343 341 338 335 334 333
355 355 355 356 357 358 358 358 357 357 357 357 357 356 355 353 350 348 346 342 340 340 342 342 341 342 344 346 349 351 350 349 347 347 346 344 343 341 338 338 337 335
354 355 355 356 357 358 358 358 358 357 357 357 357 356 355 353 352 351 348 344 340 339 340 341 341 342 344 348 350 351 350 349 348 348 346 344 342 341 338 338 337 336
353 355 355 355 356 357 357 358 357 357 358 357 357 357 355 354 354 353 351 346 343 341 341 342 344 344 346 350 352 352 351 349 348 347 346 345 343 341 340 339 338 337
354 355 355 355 356 356 356 357 357 357 358 357 357 357 356 355 355 354 352 350 348 346 345 346 347 348 349 352 353 353 351 350 348 347 346 345 344 342 341 340 338 337

ECMWFNIL_850_thetae_018.txt.gz
Theta_e
348 348 348 347 346 344 344 344 344 344 343 343 343 342 342 342 342 345 347 347 347 346 347 348 348 346 344 343 342 340 339 336 335 334 330 327 324 323 320 319 319 322
349 348 348 348 347 346 344 344 344 344 344 343 343 343 343 342 342 344 347 347 347 346 346 347 347 346 344 343 342 340 338 336 334 333 330 327 325 324 320 316 316 319
349 350 349 349 348 347 346 346 345 345 344 344 344 343 343 342 341 343 346 347 347 346 346 345 346 345 343 343 342 339 337 336 335 332 329 327 325 324 321 317 315 316
349 349 350 349 349 348 348 348 347 345 345 344 343 343 343 343 342 342 345 347 347 347 346 345 344 343 342 343 342 339 337 336 336 334 331 327 325 323 320 318 316 316
348 349 349 349 349 349 349 349 347 346 345 344 343 342 343 342 342 342 343 346 347 347 346 344 344 343 342 343 342 339 337 337 337 336 333 329 326 323 321 319 318 316
348 348 349 349 350 350 349 349 348 346 345 344 343 342 342 342 343 343 342 344 345 347 347 345 344 343 343 342 342 340 337 337 338 336 334 331 328 325 322 321 320 318
348 348 348 349 349 350 349 349 348 346 346 345 343 342 341 341 342 342 342 342 344 345 346 346 343 343 343 342 341 340 337 337 338 336 333 331 329 327 324 322 321 320
349 349 348 348 349 349 349 349 348 347 347 346 344 341 340 340 340 340 340 341 343 344 346 346 344 342 342 342 341 340 338 337 337 336 333 331 329 326 324 323 322 320
349 349 348 349 349 349 349 349 349 348 348 347 345 342 340 339 339 339 338 340 342 344 345 345 344 341 341 342 341 340 339 336 336 336 334 331 328 325 324 324 322 321
349 349 349 349 350 349 349 349 349 349 348 348 347 345 342 338 337 338 337 338 340 343 345 345 344 341 340 341 342 341 340 337 336 337 336 333 330 326 324 323 322 321
349 349 349 350 350 350 350 349 349 349 349 349 348 347 345 340 337 336 336 337 338 341 343 345 345 343 340 339 341 342 341 338 336 336 337 336 333 328 325 323 321 320
349 349 349 349 349 350 350 349 349 349 349 349 349 348 346 342 338 336 335 337 338 340 342 343 344 344 341 339 340 341 341 339 337 337 337 338 336 332 328 324 321 320
348 348 349 349 350 350 350 349 350 350 350 349 349 348 346 341 337 335 335 336 338 339 341 342 343 344 343 341 340 340 341 341 339 337 337 338 338 336 333 328 322 320
348 348 349 349 349 349 350 350 350 350 350 350 350 348 345 340 336 335 336 336 338 340 340 341 342 343 344 344 343 342 342 341 340 338 338 339 339 339 337 332 326 323
349 349 349 350 350 350 350 351 350 350 351 350 350 349 345 339 336 335 336 337 338 339 340 341 342 342 343 344 344 344 343 342 341 340 339 339 340 341 339 336 332 326
350 350 350 350 350 351 351 351 351 351 351 351 350 349 346 342 339 337 337 338 339 340 341 341 342 342 342 343 344 345 344 343 342 341 340 340 340 342 341 340 337 329
350 350 351 350 350 351 351 351 351 351 351 351 351 350 348 346 343 339 337 338 340 341 342 343 343 342 342 342 344 345 345 344 343 342 342 341 341 342 342 342 340 333
351 351 351 351 351 350 351 351 351 351 352 351 351 350 350 349 346 341 338 338 340 342 343 344 343 343 343 342 343 344 345 345 344 344 344 343 342 343 343 343 342 339
351 351 351 351 351 351 351 352 351 352 352 351 351 351 351 351 348 344 341 339 339 340 343 344 344 343 344 344 344 345 345 345 344 345 345 344 344 344 344 343 343 343
351 352 352 351 352 351 352 352 351 352 352 352 352 351 351 351 350 348 346 343 340 339 340 341 342 343 344 345 346 346 346 346 345 345 346 346 345 345 346 345 344 343
352 352 352 352 352 352 353 352 352 352 352 352 352 351 351 352 352 351 349 346 343 342 341 340 340 341 344 346 347 347 347 348 346 346 348 348 347 346 347 347 346 344
353 353 353 353 353 353 353 353 353 353 352 353 352 351 352 352 352 352 351 350 348 347 346 342 340 343 346 348 349 349 349 349 348 348 349 349 348 348 348 347 347 345
352 353 353 353 353 354 354 353 353 353 353 353 353 352 352 352 352 353 353 352 351 350 349 346 345 347 348 349 350 350 350 350 350 349 349 349 348 347 347 346 345 345
352 353 354 354 354 354 354 354 354 354 353 353 353 352 352 352 353 353 354 354 354 353 351 349 349 350 350 350 350 351 351 351 350 349 350 350 348 347 345 345 345 344
352 353 354 354 354 353 353 353 353 354 354 354 354 353 353 354 354 354 354 355 355 354 353 353 352 352 351 351 351 351 351 351 350 350 350 350 350 348 347 347 345 343
352 353 353 353 353 352 353 353 353 354 355 355 354 355 355 355 356 355 355 355 355 355 355 354 354 353 352 352 352 351 351 351 351 351 350 350 350 349 348 347 345 344

ECMWFNIL_850_thetae_021.txt.gz
Theta_e
344 343 342 341 341 341 340 339 338 338 338 337 338 338 339 339 340 340 340 341 340 341 343 345 346 346 347 347 346 344 343 342 341 338 335 333 331 329 327 325 323 324
345 345 345 345 344 344 343 342 341 341 340 339 339 339 340 340 341 341 342 342 342 341 343 345 346 346 347 347 347 346 344 342 341 338 334 331 329 327 324 322 320 319
345 345 346 345 345 345 346 345 344 343 341 341 341 341 341 341 341 342 343 342 342 342 343 345 345 346 347 347 347 347 345 343 341 337 333 330 327 325 324 322 320 318
344 344 345 345 345 345 346 347 346 344 343 342 341 341 341 341 341 342 343 343 343 342 342 344 345 345 346 347 347 347 345 343 341 338 334 330 326 324 324 322 320 318
342 344 344 344 345 345 346 347 346 345 344 343 342 341 341 340 341 342 343 343 342 342 342 344 345 344 345 346 346 346 345 343 341 337 335 331 326 324 324 322 321 318
342 343 344 344 345 345 345 346 346 346 345 344 343 342 342 341 341 341 342 343 342 341 342 343 344 344 344 345 345 345 344 342 341 338 336 333 329 326 323 322 322 320
341 342 343 344 345 345 345 345 345 345 344 344 344 343 343 343 342 341 341 342 343 342 342 343 344 344 343 344 344 344 343 342 341 339 336 335 332 328 325 323 322 321
340 341 342 343 345 345 346 345 345 345 344 345 345 345 344 344 343 341 341 341 342 342 342 342 343 343 343 344 343 342 342 341 340 339 337 335 333 330 326 324 323 321
342 342 342 343 344 345 345 346 346 345 345 345 345 345 345 345 343 342 341 340 341 342 342 342 342 342 343 343 342 342 342 341 340 339 338 335 333 330 327 325 324 322
344 344 344 344 345 345 346 346 346 346 345 345 345 346 345 345 344 344 342 341 340 341 342 342 342 342 342 343 342 341 341 341 339 338 337 336 334 331 328 326 324 322
344 345 345 345 346 346 346 346 346 346 346 346 346 346 346 345 345 345 344 342 340 340 341 341 342 342 342 342 342 341 340 340 340 339 337 337 335 333 331 327 323 322
344 345 345 345 346 346 346 346 346 347 346 346 346 346 346 346 346 345 344 342 340 339 339 340 340 341 341 342 342 341 339 339 340 340 339 337 336 335 334 331 325 322
344 344 344 344 345 345 345 346 346 347 347 346 346 346 347 347 347 346 344 343 341 339 338 339 339 340 340 341 342 342 340 339 339 340 340 339 337 336 336 335 331 325
344 344 344 344 345 344 344 345 345 347 347 347 347 347 347 347 347 347 345 344 343 341 339 338 338 339 339 340 342 342 341 340 339 339 340 340 338 337 336 336 335 331
345 345 344 344 345 345 345 345 345 346 347 347 347 347 348 348 348 348 347 345 345 343 341 339 337 337 337 338 340 341 341 341 339 339 339 339 339 338 336 336 337 336
346 345 345 345 346 346 345 345 346 346 346 347 347 348 348 349 348 349 348 348 346 344 342 340 338 336 336 337 339 340 341 341 340 339 338 339 340 339 337 337 337 338
346 346 346 346 346 346 346 346 346 347 347 347 347 348 349 349 349 349 349 349 347 345 343 341 338 336 335 336 338 339 341 341 341 341 339 339 340 340 339 337 338 339
346 347 346 346 346 347 346 347 347 347 347 347 348 348 349 349 349 350 349 349 348 345 343 340 338 336 335 336 337 338 340 341 342 342 342 340 340 340 340 338 338 339
347 347 346 347 347 347 347 347 347 347 347 347 348 348 349 349 350 350 350 350 349 347 343 340 337 336 335 336 337 338 340 341 341 342 343 343 342 341 341 340 339 339
347 347 346 347 347 347 348 348 347 347 347 348 349 349 349 349 350 350 350 350 349 347 343 340 338 336 335 336 337 338 339 340 341 342 343 344 344 343 342 341 340 340
347 347 347 347 347 347 348 348 348 348 348 349 349 349 350 350 350 350 351 350 350 348 345 343 341 338 335 337 338 339 340 341 342 343 342 343 345 344 344 343 342 341
347 347 348 348 348 348 349 349 348 348 348 349 349 349 350 352 352 351 350 351 351 349 348 348 347 341 335 336 337 339 341 343 345 345 344 343 344 345 345 344 343 342
347 348 348 348 348 349 349 349 349 349 349 349 350 350 350 351 352 352 352 352 352 351 350 350 350 345 339 338 339 340 342 344 346 347 346 345 345 345 345 345 344 343
347 347 348 349 349 349 349 349 349 349 350 350 350 350 350 351 352 353 354 354 353 351 351 351 351 349 345 344 344 344 344 345 346 348 348 347 346 346 346 346 345 344
346 347 348 348 349 349 349 349 350 350 350 351 351 351 351 352 353 354 356 356 354 354 354 352 352 352 350 350 350 349 348 348 348 349 349 348 348 348 348 347 346 345
347 348 348 348 349 349 349 350 350 351 351 351 351 352 352 353 355 355 355 355 355 355 355 353 352 353 352 352 352 352 351 351 350 350 349 348 349 349 349 347 345 346

ECMWFNIL_850_thetae_024.txt.gz
Theta_e
341 341 341 341 340 339 338 337 337 338 338 338 337 337 337 337 337 337 337 337 340 343 342 341 342 344 347 347 346 347 348 347 344 345 349 349 345 341 337 334 336 337
340 340 341 342 341 338 338 337 337 337 337 337 337 336 336 336 337 337 337 337 340 342 343 342 342 344 347 348 347 347 348 348 346 346 348 346 341 337 334 332 332 332
340 340 341 341 339 338 338 338 337 337 337 337 336 337 337 336 336 337 338 338 339 341 342 342 342 344 347 348 346 346 348 347 346 347 347 343 338 335 332 331 333 331
339 340 340 339 338 339 340 339 339 338 337 338 338 338 338 338 338 337 338 339 339 340 342 343 342 344 347 347 345 345 346 347 346 347 347 344 339 333 329 329 333 335
336 338 338 337 338 340 341 341 341 340 339 340 340 340 339 339 339 339 339 339 340 341 342 343 343 343 344 346 345 345 345 345 344 345 347 347 342 335 329 325 328 331
334 335 336 336 337 340 342 343 342 342 342 342 342 341 340 340 339 339 340 340 341 341 342 342 342 342 342 344 346 345 344 343 342 343 347 348 345 338 331 327 325 325
334 334 335 335 337 338 340 341 342 343 343 343 344 343 342 340 339 339 340 341 341 341 342 342 341 341 341 342 345 345 344 342 342 343 345 348 348 342 333 330 327 324
332 333 333 334 336 337 338 339 340 341 342 343 343 343 341 341 340 340 340 341 341 341 341 341 341 341 340 342 344 345 344 342 341 341 341 344 347 342 335 333 330 326
332 332 332 333 334 335 336 337 338 339 340 341 342 342 341 341 341 342 341 341 342 341 341 341 341 341 340 341 343 344 345 343 341 340 339 341 343 340 335 335 333 328
332 332 332 332 333 333 334 334 336 337 338 338 339 341 341 340 341 342 343 342 342 342 342 340 340 341 341 341 342 343 344 344 342 339 338 339 339 338 336 336 334 330
334 334 334 333 332 332 333 334 335 337 337 336 337 339 340 341 341 342 343 343 343 342 342 340 339 340 341 341 341 341 343 344 343 340 338 338 339 338 337 336 335 332
338 337 336 336 335 335 336 336 337 338 338 337 337 338 340 342 341 341 342 343 343 343 342 341 339 338 339 341 341 341 341 343 344 342 339 338 338 338 337 336 335 333
340 340 340 339 339 339 339 339 339 339 340 340 340 339 340 342 342 341 341 342 343 344 344 343 340 338 338 339 340 341 341 342 344 343 340 338 338 337 336 336 335 334
341 341 341 341 341 342 341 342 342 341 341 344 344 342 341 342 343 342 341 341 343 344 344 344 343 340 338 338 339 340 341 341 342 344 342 339 337 338 337 336 335 334
343 343 342 342 342 342 342 343 343 343 343 345 346 345 343 343 344 344 343 343 343 344 345 345 345 343 339 337 337 338 339 341 342 343 344 341 338 337 338 337 336 335
345 344 343 343 342 342 343 343 343 344 345 345 346 345 344 345 345 345 345 344 344 344 345 346 345 344 341 336 335 336 338 339 341 342 343 343 340 338 338 338 337 336
345 344 344 343 343 343 343 343 344 345 345 346 347 346 346 345 346 347 346 347 347 346 345 346 346 344 342 338 334 335 337 337 339 341 342 344 343 340 338 338 338 338
344 344 344 343 344 344 344 345 345 345 347 347 347 347 347 346 346 347 347 347 349 349 347 347 347 345 343 339 334 333 336 336 337 339 340 342 343 342 339 338 338 339
345 345 344 344 344 345 346 346 345 345 346 346 347 348 348 348 348 348 350 351 350 351 351 347 347 347 345 342 338 334 333 335 336 337 338 340 342 343 342 340 338 339
344 345 344 345 346 346 346 347 345 345 346 345 348 348 348 353 353 351 355 357 353 354 356 353 349 348 346 345 343 339 335 335 335 337 337 338 340 341 343 342 341 339
343 344 344 345 346 346 346 346 345 346 345 346 349 348 349 356 356 353 357 359 356 355 359 358 354 350 347 347 346 343 340 337 337 337 336 337 338 339 341 343 343 342
343 344 344 345 346 346 347 346 346 346 346 347 349 349 351 355 355 355 358 359 357 356 357 358 358 355 350 348 347 345 343 339 337 337 336 336 337 338 340 341 342 343
344 343 344 345 346 346 346 346 346 346 346 348 348 350 352 353 353 356 359 359 357 356 355 357 359 357 352 350 348 345 343 338 335 336 336 336 336 337 339 341 341 342
345 345 345 345 345 346 346 346 347 347 348 349 348 349 351 352 353 356 357 357 358 358 356 357 358 356 354 353 350 346 344 339 336 336 336 335 336 337 338 339 341 343
345 344 345 344 344 345 346 346 348 349 349 350 349 349 351 353 356 357 356 356 359 359 358 358 358 358 356 354 351 349 347 343 340 338 337 335 336 336 337 339 341 343
344 343 343 344 344 345 346 347 347 348 349 349 350 352 353 354 356 358 357 358 360 359 358 358 359 358 358 357 354 352 351 349 346 343 339 337 336 336 337 339 341 345

ECMWFNIL_850_thetae_027.txt.gz
Theta_e
336 336 336 336 336 337 340 343 347 348 344 343 348 346 340 337 340 348 351 346 341 338 341 341 341 344 344 344 346 348 349 349 348 347 344 344 349 349 348 348 344 342
335 335 336 336 336 336 337 339 343 345 342 340 344 349 349 344 338 340 343 342 339 338 340 341 342 344 344 344 346 349 350 349 348 347 344 344 349 349 348 349 346 342
336 335 336 336 336 337 337 338 339 341 342 341 338 343 350 350 346 339 336 339 338 337 339 341 343 344 344 343 346 349 350 349 347 348 346 345 347 348 349 349 347 344
337 337 337 337 338 338 338 339 339 339 340 341 338 337 342 349 351 346 338 337 338 337 337 339 342 344 343 343 345 348 349 349 349 348 346 346 345 346 349 350 348 347
338 338 338 338 339 340 341 339 338 338 336 336 337 337 337 341 348 349 344 338 337 338 338 338 339 341 342 342 344 348 349 348 349 347 346 347 345 344 348 351 349 348
338 339 338 339 339 339 341 340 337 337 337 335 336 337 337 336 339 344 345 342 339 338 341 342 339 339 341 341 343 347 348 347 349 348 345 346 346 345 346 350 349 348
337 338 337 338 339 338 338 338 337 337 337 336 336 336 337 336 336 338 341 343 342 341 342 343 341 339 340 341 342 345 346 346 349 350 346 345 346 346 345 347 349 348
336 337 337 336 337 338 337 337 337 337 336 336 336 335 336 337 336 337 339 342 345 344 341 343 343 340 340 341 341 342 344 344 347 349 346 343 345 345 343 344 347 347
335 335 335 335 335 336 337 337 336 336 335 335 335 336 336 337 337 339 339 340 343 344 342 341 341 340 339 341 341 340 342 343 344 346 345 344 346 348 343 341 344 344
333 334 333 333 334 334 335 335 335 335 334 333 335 336 336 337 338 339 340 340 341 342 342 340 340 339 338 339 340 340 341 341 342 345 346 344 346 349 346 340 340 339
332 333 333 333 333 333 333 333 334 336 335 333 332 334 336 338 337 338 340 340 339 340 341 340 339 338 338 338 339 340 341 342 342 343 345 345 344 348 348 343 339 336
331 332 332 332 332 332 334 334 335 338 342 339 334 332 335 339 339 337 337 338 338 338 339 340 339 338 338 337 338 339 342 342 342 341 343 345 343 345 348 345 341 337
332 331 331 331 332 332 334 335 336 342 349 349 343 337 336 339 341 339 335 336 337 336 338 338 339 339 339 338 337 339 340 341 341 341 342 344 343 343 346 347 344 339
336 333 331 331 332 332 332 334 336 342 349 353 351 347 342 342 346 345 339 336 337 338 338 338 339 339 340 339 338 337 339 341 341 340 343 346 344 341 343 349 350 344
346 342 337 335 335 334 332 332 335 339 344 350 353 354 349 346 349 353 350 344 340 339 339 339 340 340 339 340 340 337 338 341 342 340 342 347 348 344 343 348 353 351
352 349 346 342 340 339 335 332 335 338 341 344 350 355 355 350 351 357 359 355 349 345 342 341 340 340 340 339 339 339 337 339 342 343 341 344 349 349 346 346 352 354
353 350 348 346 343 341 341 338 339 340 341 342 346 353 356 354 353 356 359 361 359 353 348 346 342 339 339 339 339 339 339 337 339 342 342 341 345 348 347 345 348 354
353 350 348 347 345 344 344 343 344 344 344 345 345 347 351 353 353 352 353 358 361 359 355 353 350 343 340 340 339 338 339 339 338 340 343 342 341 344 345 344 344 349
354 350 348 346 345 346 346 347 347 346 346 347 346 347 348 349 349 349 348 351 356 358 357 357 355 349 343 342 341 339 338 340 340 341 343 344 341 339 341 342 342 343
355 351 349 347 346 347 347 348 347 346 346 346 348 349 349 349 349 349 349 349 350 355 358 357 357 355 351 346 344 343 340 340 340 341 342 344 345 342 340 339 339 339
356 352 351 350 349 349 349 347 346 346 346 348 351 353 352 352 352 351 352 352 351 354 356 357 358 359 356 351 348 345 344 343 343 343 342 342 345 346 345 342 338 336
357 355 353 351 351 350 348 348 348 348 349 350 353 358 360 358 357 356 358 357 355 354 355 356 359 361 359 356 354 350 347 346 345 345 345 342 342 344 346 347 344 339
359 357 354 352 351 350 348 348 349 351 352 352 353 358 363 362 361 360 361 362 360 357 355 355 358 361 361 359 358 355 351 349 347 347 347 346 344 342 342 345 347 347
362 359 355 353 351 349 348 351 354 353 354 353 352 356 362 364 363 362 361 362 362 360 357 354 355 359 360 360 359 358 355 353 351 349 348 348 347 345 343 341 343 350
362 360 357 354 352 351 353 355 355 355 354 354 353 355 358 360 363 364 363 361 361 361 360 357 355 357 359 358 359 359 358 357 355 353 351 349 348 347 347 343 341 350
360 360 360 358 356 355 355 355 355 355 355 355 356 358 359 360 362 363 364 364 363 362 361 359 358 359 359 358 357 358 359 359 358 356 354 350 349 348 349 347 349 353

ECMWFNIL_850_thetae_030.txt.gz
Theta_e
337 335 335 337 337 337 340 342 344 346 347 347 347 345 344 346 347 347 344 341 339 338 340 340 340 341 342 344 345 346 347 349 349 349 347 344 340 339 342 339 333 339
337 335 334 335 336 335 336 337 338 342 345 344 345 347 347 345 346 347 346 344 342 339 338 339 340 340 340 342 344 344 345 347 349 350 348 345 343 340 342 341 332 332
336 336 335 334 334 333 333 335 336 338 343 344 344 349 352 352 349 348 348 348 346 343 339 338 339 340 340 341 342 344 345 346 347 349 349 346 344 342 342 343 339 333
334 334 334 333 333 333 333 334 336 338 342 346 346 347 351 354 354 352 350 350 349 347 343 339 338 338 340 341 342 343 344 345 346 348 349 347 345 344 343 344 345 340
333 333 333 333 333 333 333 334 336 338 340 344 348 349 348 351 354 354 352 351 350 348 347 343 339 337 338 341 342 343 343 344 346 348 348 348 346 346 345 343 345 345
333 333 333 334 334 333 334 334 335 339 340 342 346 349 349 348 349 352 354 353 351 349 348 346 341 338 338 339 341 343 343 343 346 347 348 347 347 346 346 343 342 344
334 334 334 334 334 334 335 335 336 339 340 342 344 346 347 347 346 347 351 354 353 350 348 346 341 338 337 338 339 340 342 342 344 347 347 347 347 346 346 345 343 342
335 335 335 334 335 335 335 336 338 339 340 343 346 346 346 346 345 344 346 351 352 350 348 346 344 341 339 340 340 338 339 340 342 346 347 347 348 347 345 345 344 343
338 337 336 336 336 336 336 336 338 340 341 344 346 347 346 345 344 344 343 345 348 349 347 344 343 344 343 343 342 339 338 338 340 343 346 347 347 346 345 344 345 344
340 339 337 337 337 336 337 337 337 338 341 343 345 347 348 345 343 344 343 342 343 345 346 343 341 343 345 346 345 342 339 338 338 340 343 346 346 344 344 343 343 344
339 339 338 337 337 337 336 337 338 338 339 342 345 347 346 345 344 344 343 342 341 341 342 342 341 342 344 346 346 344 342 339 338 339 341 344 344 344 343 343 342 343
338 338 340 338 336 337 336 337 338 339 339 341 344 346 346 345 345 344 342 341 339 339 340 340 340 341 342 343 344 346 345 342 339 338 339 341 343 343 344 344 344 343
338 336 339 339 337 337 338 339 340 340 342 344 345 347 347 345 345 344 342 339 337 336 337 338 340 341 342 342 343 345 345 343 341 339 338 339 341 343 344 345 346 346
342 335 336 337 337 337 338 341 343 343 346 349 349 350 350 348 347 345 343 341 339 337 335 336 339 340 342 343 342 343 344 344 342 340 339 339 339 341 344 346 346 346
349 342 337 335 336 338 338 339 342 345 347 350 352 352 351 350 351 351 349 345 343 340 338 338 339 339 340 341 341 341 342 344 344 342 342 342 340 341 344 346 346 346
355 350 344 340 337 337 337 338 340 344 348 350 351 353 352 351 353 354 354 352 349 346 343 342 342 341 340 338 339 339 339 342 345 344 344 345 344 343 344 347 347 346
357 354 351 347 341 338 337 337 338 341 344 348 350 352 352 352 353 354 355 355 356 353 349 347 344 342 341 338 337 337 337 339 342 344 345 347 346 345 345 347 348 347
358 357 355 351 347 343 340 338 337 339 342 345 348 350 352 353 353 353 353 354 357 357 355 352 347 342 340 339 338 337 336 338 340 342 346 348 348 347 346 347 348 348
360 359 356 354 351 348 345 342 340 339 341 343 346 348 350 351 352 352 351 351 353 355 355 354 351 347 343 342 342 341 339 339 340 340 342 345 348 349 348 348 348 349
362 361 359 357 354 352 350 348 345 342 341 343 345 348 349 350 350 350 350 349 348 350 352 354 354 354 351 349 347 346 345 343 343 342 342 342 344 347 349 349 348 348
363 362 361 360 358 357 354 352 350 348 346 346 348 349 349 348 348 349 349 349 348 349 351 353 355 356 356 355 353 351 349 347 346 346 344 343 343 346 348 349 349 349
362 362 362 361 361 360 358 356 355 353 351 350 351 352 353 351 349 350 351 352 353 353 353 353 354 356 357 357 356 356 355 352 350 350 348 345 344 346 347 348 350 351
361 362 362 362 361 361 360 359 359 357 356 355 355 356 357 356 353 352 352 353 354 355 354 353 353 355 356 357 358 359 358 356 354 353 352 349 346 346 347 348 350 351
360 361 362 362 362 363 363 362 360 359 358 359 358 357 358 359 359 358 356 356 356 355 355 355 354 354 355 356 358 360 360 360 357 356 354 352 350 350 349 349 349 350
360 361 361 362 363 364 365 363 361 360 360 361 360 358 359 359 361 362 362 360 359 358 358 357 356 355 354 354 356 360 361 361 360 359 357 355 355 355 353 351 350 351
361 361 361 363 365 365 365 363 361 361 361 362 361 360 360 359 360 362 364 364 363 362 361 359 358 358 356 355 355 359 360 360 360 362 361 358 358 359 357 355 352 352

ECMWFNIL_850_thetae_033.txt.gz
Theta_e
335 333 333 332 331 331 331 331 333 336 338 342 345 345 343 341 341 342 340 340 340 340 339 338 339 341 344 346 346 346 347 347 346 346 347 345 341 339 338 337 336 334
335 334 332 332 331 331 331 332 333 335 337 339 342 343 343 343 341 339 338 339 340 341 341 341 340 341 341 343 344 345 345 345 345 345 347 346 343 340 338 337 337 336
335 334 333 332 331 331 331 333 334 335 337 339 341 342 342 342 342 340 338 339 339 340 341 341 341 340 340 340 341 343 344 344 343 343 344 346 344 342 340 337 338 338
335 334 333 332 331 332 332 333 335 336 337 339 340 340 340 341 342 341 340 339 340 339 339 340 340 339 339 339 340 340 341 342 343 343 343 345 344 343 342 340 338 339
334 333 333 333 332 332 332 333 335 336 337 337 337 338 338 340 341 341 342 341 341 340 339 339 340 340 338 338 339 340 340 341 342 343 343 344 344 343 344 343 340 340
336 334 333 333 332 332 332 332 334 335 335 334 334 335 336 337 340 341 342 342 342 342 342 340 340 340 339 337 337 338 339 340 340 342 342 343 344 344 344 344 342 341
338 336 334 333 332 332 332 331 332 333 333 332 333 333 333 336 339 341 343 343 343 343 344 342 340 340 339 338 337 337 338 340 340 340 341 342 343 344 344 345 344 342
339 338 336 335 334 333 332 331 332 332 331 332 332 333 333 335 337 340 344 346 347 345 343 343 342 341 340 339 338 337 336 338 340 340 340 341 342 343 343 344 345 344
343 341 338 338 337 336 334 332 332 332 332 332 332 332 333 334 336 339 342 346 348 348 346 344 342 341 341 339 337 337 336 336 337 339 339 340 340 341 342 342 343 343
345 343 341 340 339 337 336 334 333 332 332 332 332 333 334 335 337 339 342 344 346 347 347 345 342 340 340 339 337 336 337 336 336 337 337 338 338 339 340 341 342 342
346 345 344 342 339 338 336 334 334 333 333 333 333 334 335 336 337 340 343 344 343 343 344 343 342 340 338 337 336 336 336 336 337 337 337 337 337 337 338 339 341 341
346 345 344 342 340 338 337 336 335 334 334 334 334 334 336 337 338 340 342 343 342 340 340 339 339 339 338 337 336 336 336 336 337 337 338 338 337 336 337 338 339 340
347 344 342 341 340 338 338 337 336 336 335 335 335 335 336 337 338 340 340 340 339 339 338 337 337 338 338 337 337 337 337 336 336 337 337 338 337 337 337 337 337 339
347 343 340 340 339 339 339 338 338 338 337 336 336 336 337 338 338 339 339 340 339 338 338 337 337 338 338 337 337 338 338 337 336 336 336 337 338 337 337 337 336 337
350 345 341 340 340 340 339 338 338 338 338 338 338 338 338 339 339 339 340 340 341 340 340 340 340 339 338 337 337 337 337 338 337 336 336 336 337 337 338 337 337 337
355 350 345 342 341 340 339 339 338 338 339 340 340 339 339 340 341 343 342 342 342 342 342 342 342 340 338 337 337 336 336 337 337 337 337 336 336 337 338 338 338 337
359 355 350 346 342 340 339 338 338 338 339 340 341 341 340 341 343 345 345 343 343 343 343 343 342 340 339 338 338 338 338 338 338 338 338 338 338 338 338 338 338 338
362 360 356 351 346 343 340 338 338 340 341 341 342 342 340 340 342 344 345 345 344 344 344 343 342 340 340 340 340 340 340 340 341 341 341 341 341 341 340 339 340 340
363 362 360 357 353 349 345 341 341 342 342 341 341 342 342 340 339 340 342 344 345 344 343 342 342 341 341 342 343 342 343 343 343 343 343 343 343 343 343 343 343 343
363 361 361 360 358 354 351 349 346 344 342 341 341 343 344 343 340 338 339 341 343 343 343 342 341 340 341 343 345 345 345 345 345 345 346 345 345 344 345 346 346 346
363 362 360 360 359 358 356 354 351 348 345 344 345 345 344 342 341 339 338 337 339 342 344 344 342 342 343 344 346 347 348 349 349 349 349 349 349 348 347 348 348 349
363 362 361 360 359 359 358 357 356 354 350 349 348 348 346 345 344 343 341 340 340 343 345 345 344 346 348 348 350 351 352 353 354 354 353 353 352 352 351 350 350 351
362 362 361 361 360 359 358 358 357 357 354 353 352 351 350 349 348 347 346 345 345 345 346 345 346 349 351 352 354 355 356 357 357 357 357 356 356 355 355 353 353 352
362 361 362 361 361 360 359 359 359 358 358 356 354 353 353 351 351 351 351 350 349 349 348 349 350 351 353 354 356 357 358 359 360 360 359 359 359 359 357 357 355 354
361 362 362 362 361 361 360 360 360 359 359 359 357 356 355 354 354 354 353 353 352 352 352 352 353 354 355 355 356 356 358 360 362 362 362 362 362 361 360 359 358 357
359 360 362 362 362 362 362 362 361 361 361 360 360 359 358 357 356 355 355 355 354 354 354 354 354 355 356 356 357 357 358 359 360 361 362 363 364 363 362 361 360 359

ECMWFNIL_850_thetae_036.txt.gz
Theta_e
344 344 343 342 342 340 338 337 336 336 336 335 334 332 332 333 335 340 342 341 339 338 338 337 338 340 342 344 344 344 343 343 344 345 346 345 345 344 341 338 337 336
344 343 342 342 341 341 340 338 336 335 335 334 332 331 333 333 335 339 341 341 340 338 338 337 337 337 339 342 344 344 344 343 343 344 345 345 345 345 343 340 338 337
345 344 342 340 340 340 339 338 338 336 334 333 332 331 333 333 334 338 340 340 339 338 338 338 338 337 337 339 341 343 343 342 342 343 343 344 344 345 344 342 340 338
347 345 343 340 339 338 338 338 338 336 335 333 331 331 333 334 333 334 337 338 337 338 339 339 339 339 339 339 340 341 342 341 341 342 342 342 343 344 344 344 342 339
347 345 344 340 339 337 337 337 336 333 333 332 330 330 332 334 334 333 335 336 336 336 337 337 338 339 339 340 340 340 340 340 340 341 341 342 341 342 343 344 343 340
347 346 344 342 339 337 335 333 331 331 331 330 330 331 332 334 335 334 333 334 335 334 335 335 337 337 338 338 339 339 340 340 339 339 339 340 340 341 342 343 343 342
348 346 345 342 341 339 336 332 330 330 330 330 330 330 332 333 335 336 335 335 335 334 334 335 336 336 336 336 337 338 338 338 338 339 339 339 339 340 340 342 343 343
347 345 343 343 343 342 339 335 333 331 330 330 330 330 331 332 334 335 335 335 334 334 334 334 335 336 335 336 336 336 336 337 337 338 338 339 339 339 339 340 341 342
347 345 343 343 344 343 341 339 335 333 332 331 331 330 331 332 333 334 333 334 333 333 333 333 334 334 334 335 335 335 335 335 335 336 336 337 338 338 338 339 340 341
348 346 343 344 344 343 342 340 338 335 334 332 332 331 331 331 333 333 332 332 332 332 332 333 333 334 334 335 336 336 335 334 334 334 335 335 336 336 337 337 339 340
349 347 345 344 343 342 341 339 339 337 336 334 333 332 331 332 332 332 332 332 332 332 332 333 333 333 334 335 335 335 336 335 335 335 334 334 335 334 336 336 337 338
351 349 346 344 342 341 339 339 339 338 337 335 334 333 332 331 332 332 331 331 331 332 332 332 333 334 334 335 335 336 337 337 337 336 335 335 335 334 334 335 335 335
352 350 348 346 344 341 340 338 338 339 338 336 335 334 333 333 332 332 331 331 331 332 332 333 333 334 335 336 337 337 337 337 337 336 336 335 335 334 334 335 335 334
353 352 349 347 345 343 341 340 339 339 338 336 336 335 334 333 332 332 331 331 332 332 332 333 333 335 335 337 338 338 338 338 337 337 337 336 334 334 335 335 335 335
355 354 352 350 348 346 344 343 341 341 339 338 337 336 335 334 333 332 332 332 332 332 333 333 334 335 335 335 335 337 336 337 336 337 337 336 336 335 335 336 336 336
357 356 355 353 351 348 347 345 344 344 343 341 339 338 336 335 334 334 333 332 333 333 334 334 334 334 334 334 334 335 335 336 336 336 337 337 338 338 338 337 337 337
359 358 356 355 354 351 350 348 347 346 345 343 342 340 339 337 336 335 334 333 333 334 334 334 334 334 333 334 334 334 336 337 338 338 339 340 341 341 341 340 340 340
360 360 359 358 356 355 353 351 350 349 348 346 344 342 341 339 338 337 335 334 335 334 334 334 334 334 333 334 335 335 337 338 340 341 342 343 342 342 343 342 342 342
361 361 361 360 359 358 357 355 354 352 350 348 346 344 343 342 340 338 336 336 335 335 334 334 333 332 333 333 334 336 338 340 341 342 343 343 344 344 344 344 343 344
362 363 363 363 362 361 360 358 356 354 351 349 348 347 346 344 342 339 338 337 337 335 334 334 333 332 332 333 334 336 339 342 343 344 345 345 345 345 346 346 345 346
364 363 363 364 364 363 362 360 359 356 353 351 350 349 347 345 343 342 339 338 338 337 337 336 334 334 335 335 337 338 341 344 346 347 348 348 348 347 347 348 348 348
364 364 364 365 363 364 363 362 361 359 357 354 351 350 348 347 345 344 343 341 341 341 342 339 337 338 340 341 341 343 346 348 349 349 350 350 350 350 350 350 350 350
364 363 364 364 364 364 364 362 362 361 359 357 355 352 351 349 347 346 344 344 344 345 344 343 341 343 345 346 346 347 349 351 351 352 352 352 352 353 352 353 352 352
363 364 363 363 363 363 363 362 363 361 361 360 358 356 353 351 349 347 346 345 345 345 345 345 346 347 349 350 350 351 352 352 352 353 353 353 354 354 354 354 354 355
363 363 363 362 363 363 363 363 362 362 361 360 360 358 357 355 353 352 350 348 347 346 345 346 347 349 350 352 353 354 354 354 355 355 355 355 355 355 355 356 356 356
363 363 362 363 363 362 362 363 362 362 361 361 360 360 359 358 357 355 354 353 351 350 349 349 349 350 351 353 353 355 355 356 356 356 357 357 356 356 357 357 357 357

ECMWFNIL_850_thetae_039.txt.gz
Theta_e
350 350 349 347 344 342 341 340 340 339 339 338 337 336 335 335 335 335 334 334 334 334 335 337 337 337 338 342 343 342 342 342 343 343 345 345 345 345 344 343 341 340
350 350 350 349 346 344 342 341 341 340 339 338 337 336 335 335 335 335 334 334 334 334 336 338 338 337 337 339 342 342 341 342 342 343 344 345 344 344 344 344 343 341
350 350 350 349 347 344 343 342 341 341 340 339 338 337 336 335 335 334 333 334 334 334 335 337 338 337 337 337 339 340 341 341 342 342 342 343 343 344 345 345 344 343
351 350 349 348 347 345 344 343 342 341 341 340 338 337 336 336 336 334 332 333 334 335 335 336 337 338 337 336 337 338 339 340 341 342 342 342 342 343 344 346 346 344
351 350 349 348 347 346 345 344 342 341 341 340 339 338 337 337 337 334 332 333 334 334 335 335 335 337 337 337 336 336 338 338 339 341 341 341 342 342 343 344 345 345
350 350 349 348 347 346 346 344 341 340 339 339 339 338 337 336 337 335 333 332 333 333 335 335 335 336 337 338 338 338 338 338 339 339 340 339 340 340 341 342 344 344
350 349 349 347 346 347 345 343 341 339 338 338 339 338 336 335 335 335 332 331 332 333 333 333 333 334 335 337 337 338 338 339 339 339 339 339 338 339 339 340 341 342
349 348 348 347 347 346 345 343 341 340 339 339 339 337 336 335 333 332 331 330 331 333 333 332 332 333 333 334 335 336 337 338 337 337 337 337 337 338 338 338 339 339
349 349 348 347 347 347 345 342 340 339 339 339 338 336 335 334 332 332 331 330 330 332 333 333 332 332 332 333 334 334 335 335 335 335 335 335 336 335 335 336 337 337
350 349 349 348 348 347 345 342 340 339 338 337 335 335 333 332 331 332 331 331 331 331 332 333 333 332 332 332 333 333 334 334 333 334 334 333 333 333 333 335 335 336
350 350 350 349 349 348 345 343 341 340 338 335 334 333 332 331 331 331 331 331 331 330 331 333 333 332 332 331 332 332 333 333 332 333 333 332 333 332 333 333 333 333
351 351 350 350 350 349 347 345 343 341 338 335 334 332 332 331 330 330 330 330 330 330 330 331 332 332 331 331 331 331 332 332 332 332 332 332 333 333 333 333 333 333
351 352 351 351 351 349 348 346 344 342 339 336 334 333 332 332 331 331 331 330 330 330 330 330 331 332 331 331 331 331 331 332 332 332 332 333 333 334 334 334 334 333
352 353 352 352 351 350 349 348 346 345 342 338 335 334 333 332 332 331 330 330 330 330 329 330 330 331 331 331 331 331 331 331 331 332 332 333 333 334 334 335 334 334
353 353 353 353 353 351 350 349 348 347 346 343 339 336 333 332 331 331 331 331 331 330 330 330 330 330 331 330 330 331 331 331 331 332 332 332 333 333 334 334 334 334
353 354 353 354 354 353 352 350 350 349 348 346 343 340 336 334 333 333 332 332 331 331 331 330 330 330 330 330 330 330 331 332 332 332 333 333 334 334 334 333 334 334
354 354 354 354 354 355 353 352 352 350 350 348 346 343 339 336 335 334 334 333 332 332 331 331 331 331 330 330 331 331 332 332 332 332 333 334 335 336 335 335 335 336
354 355 355 355 355 355 355 355 353 352 351 350 348 346 343 339 338 336 335 334 334 333 332 332 332 331 332 332 331 332 332 333 334 334 335 336 337 337 337 337 338 339
355 355 356 356 357 357 357 356 355 354 353 352 350 348 346 344 340 338 337 336 336 335 335 334 333 333 332 332 332 332 333 334 335 336 338 338 339 339 340 340 341 342
355 356 357 358 358 358 358 357 357 356 355 354 353 351 349 347 344 341 339 337 337 336 336 336 335 334 334 334 333 333 334 335 337 338 340 341 341 342 342 343 343 345
357 358 358 359 359 359 359 358 358 358 357 356 356 355 353 351 349 346 342 339 338 337 338 337 336 335 335 334 334 335 335 338 340 341 342 343 344 344 345 346 346 347
358 358 359 360 359 359 360 359 360 360 359 359 358 358 357 355 354 350 346 342 340 339 339 338 336 335 336 336 335 337 339 341 342 343 344 344 344 345 346 347 347 348
358 359 360 360 360 360 360 360 361 361 361 361 361 360 360 358 357 354 351 347 344 340 340 339 336 335 337 337 338 340 342 343 344 344 345 345 345 346 347 348 348 349
358 359 360 360 361 361 361 361 361 362 362 362 362 361 361 360 359 357 355 352 349 346 343 342 340 338 338 339 339 341 343 344 345 346 347 346 347 348 349 349 350 350
357 359 360 361 362 361 362 362 362 362 362 362 363 362 362 361 361 359 358 356 355 352 350 349 346 345 344 343 342 343 344 345 347 348 348 348 349 350 350 350 351 352
358 359 361 361 362 362 362 362 362 363 363 362 362 362 362 362 362 361 360 359 357 357 355 354 352 351 350 349 348 348 348 348 349 349 350 350 351 351 352 352 353 354

ECMWFNIL_850_thetae_042.txt.gz
Theta_e
349 349 349 349 347 346 345 344 342 340 339 339 338 336 335 335 336 336 337 337 337 336 335 335 335 335 336 337 337 338 341 343 343 342 342 342 343 343 344 345 344 344
349 350 349 349 348 347 346 345 343 341 340 340 339 337 337 336 336 336 336 337 337 336 336 336 335 334 335 336 337 337 339 341 342 342 342 342 342 343 344 344 345 345
350 350 350 349 347 346 345 345 344 342 341 340 340 339 338 337 336 336 336 337 337 337 337 337 336 335 335 336 337 336 337 339 341 342 342 342 342 342 343 344 345 345
350 349 349 348 347 346 345 345 344 343 342 341 340 340 339 338 337 337 337 336 336 337 337 337 336 335 336 337 337 337 336 337 339 341 341 341 342 342 342 343 344 344
349 350 349 348 347 347 346 346 345 344 343 341 340 340 340 339 339 337 337 336 335 336 335 335 335 335 335 336 337 337 336 336 337 338 339 340 341 341 342 342 342 343
349 350 350 349 348 347 347 346 345 345 344 342 341 340 340 340 339 338 337 336 335 335 334 334 334 334 334 335 336 337 336 336 336 336 337 337 338 339 340 341 341 341
350 350 350 349 348 348 347 346 346 346 345 344 343 341 340 340 340 339 338 337 336 335 334 333 333 334 334 335 335 336 336 337 337 337 337 337 337 338 339 339 339 339
350 350 349 349 348 348 347 346 346 346 345 345 344 342 340 340 339 339 338 337 336 335 334 333 332 333 334 335 335 335 336 337 337 337 337 338 338 338 338 338 337 337
350 350 350 349 349 348 347 346 345 345 345 345 343 341 340 339 338 337 337 337 336 335 334 333 331 332 333 334 334 334 334 335 335 335 336 337 336 336 335 335 335 335
350 350 350 349 348 348 347 345 344 344 344 343 341 340 339 338 337 337 336 336 335 334 333 332 330 331 332 333 333 333 333 332 333 333 334 334 334 334 333 333 333 333
350 350 350 349 348 348 347 346 345 345 343 342 341 340 339 337 337 336 336 334 332 331 331 330 329 329 330 332 332 333 332 332 332 332 332 333 333 333 332 332 332 332
350 350 349 349 349 348 348 347 346 345 343 342 341 340 339 337 336 336 335 333 331 329 329 329 329 329 330 330 331 332 333 333 332 332 332 332 332 332 332 332 331 331
350 350 349 349 348 348 348 347 346 345 344 342 341 340 339 338 337 336 334 332 330 329 329 328 328 329 329 330 330 331 332 332 332 331 331 331 331 331 331 332 332 331
350 350 349 349 349 348 348 348 347 346 345 343 342 341 339 338 337 336 334 332 331 330 329 329 329 329 329 329 329 330 331 331 331 331 330 330 331 331 331 331 331 332
349 349 349 349 349 349 349 348 348 347 346 345 344 342 340 338 338 337 336 335 333 332 331 330 330 329 329 329 329 329 330 330 330 330 330 330 330 330 330 331 331 332
349 349 349 349 349 349 349 349 349 348 347 346 345 343 342 340 339 338 337 336 334 333 333 332 331 330 329 328 328 328 329 329 329 329 329 330 330 330 330 331 331 331
350 350 349 349 349 350 350 350 350 349 349 348 346 345 343 342 341 339 337 336 335 335 334 334 332 330 329 329 329 328 329 329 329 329 329 329 330 330 331 331 331 332
350 350 350 350 350 350 350 351 351 351 350 350 348 346 345 344 342 340 337 336 336 335 335 334 332 331 330 330 329 329 329 329 330 330 330 330 331 331 331 332 332 333
350 350 350 350 350 350 351 351 351 352 352 351 350 348 346 345 343 341 338 338 337 336 335 334 333 332 331 331 331 330 330 330 331 331 331 331 332 332 332 333 334 335
351 351 351 351 351 351 351 352 352 352 353 352 352 351 350 348 345 342 340 338 338 337 336 335 335 333 333 333 332 332 332 332 332 333 333 334 334 334 334 334 335 336
352 352 351 351 351 351 352 353 353 353 354 354 354 354 353 351 348 346 344 341 339 338 337 337 336 335 335 335 334 334 335 335 335 335 336 335 335 335 335 335 336 338
352 352 352 352 353 353 353 353 354 354 355 355 356 356 356 355 354 352 349 346 344 343 341 338 336 335 336 336 335 336 337 337 338 337 337 336 336 336 336 337 338 340
352 352 353 353 353 354 354 354 355 355 356 357 357 357 357 357 356 356 354 351 349 348 345 340 336 335 336 336 336 338 338 339 338 338 337 337 336 337 338 339 341 343
352 353 353 353 354 354 355 356 356 357 358 358 358 358 358 358 358 358 357 356 355 353 350 347 343 340 340 340 340 340 341 340 340 339 339 339 339 340 341 342 343 345
352 353 353 354 354 355 356 357 358 358 359 359 359 359 359 360 360 360 360 360 359 358 356 355 353 350 348 348 347 346 346 345 345 344 344 344 344 344 345 346 347 348
353 354 354 355 355 356 357 358 358 359 359 359 360 360 360 361 360 360 361 361 361 361 360 359 358 357 355 354 353 352 351 350 350 349 349 349 349 349 350 350 351 351

ECMWFNIL_850_thetae_045.txt.gz
Theta_e
348 347 346 345 345 345 342 338 337 337 337 338 339 339 338 337 336 335 336 337 338 339 340 340 340 341 341 340 339 338 338 339 341 343 344 344 342 342 343 343 344 344
348 348 347 347 346 345 343 341 339 339 339 339 339 339 339 338 337 336 336 336 338 338 339 339 339 339 340 340 339 338 337 337 338 340 342 343 342 342 342 343 344 344
349 349 348 348 347 346 345 343 342 341 341 342 341 340 339 339 338 337 336 336 337 338 338 338 338 338 339 340 340 339 338 337 337 337 339 341 342 342 342 342 343 344
349 349 349 348 347 346 346 345 344 343 343 343 342 341 340 339 339 338 337 337 337 337 338 338 338 338 338 339 340 340 340 338 338 337 337 339 340 341 341 342 342 342
349 349 348 348 348 347 347 346 345 345 344 343 342 341 340 339 339 339 338 337 337 337 337 337 338 338 338 339 339 340 340 340 339 337 337 337 338 339 340 340 341 341
348 349 349 348 348 348 347 347 346 345 343 343 342 342 341 340 340 340 339 338 337 337 337 336 337 337 338 339 339 339 340 339 339 338 337 336 336 336 336 337 338 339
348 349 348 349 349 348 348 347 346 345 343 343 342 341 341 341 340 340 339 339 338 337 336 336 336 336 337 338 338 338 338 338 339 338 337 336 336 336 336 336 337 337
348 349 349 348 349 349 348 348 347 345 344 344 343 342 341 341 340 340 339 339 338 337 337 336 335 335 336 336 337 337 337 337 337 337 336 336 336 337 337 337 337 337
348 349 349 349 349 348 348 348 348 347 345 344 343 343 342 341 341 340 339 339 338 337 337 336 335 335 335 335 335 335 336 336 336 336 336 336 336 336 336 336 336 335
348 348 349 349 349 348 348 348 348 348 346 345 344 344 342 341 341 341 340 340 339 338 337 336 335 334 334 333 333 333 334 335 335 335 335 335 335 334 334 334 334 333
348 348 349 349 349 348 348 348 348 348 346 344 344 343 341 340 340 340 339 339 339 338 336 336 335 334 333 333 332 332 332 333 334 334 334 334 333 333 333 333 333 333
348 348 348 349 349 348 348 348 348 347 346 344 343 342 340 339 338 338 338 337 337 337 335 334 334 334 333 332 332 331 331 332 332 332 332 332 332 332 332 332 332 332
348 348 348 348 348 348 348 348 348 347 346 345 343 342 341 339 337 336 336 336 336 335 334 333 333 333 333 332 331 331 330 330 331 332 332 332 332 332 332 331 331 331
348 348 348 348 348 348 348 348 348 348 347 346 345 343 341 339 337 336 335 335 335 333 333 332 332 332 331 330 330 330 329 330 330 331 331 331 332 332 331 331 330 330
348 348 347 348 348 348 348 348 348 348 347 347 346 344 342 341 339 338 336 335 334 333 332 332 331 330 330 329 329 328 329 329 329 330 330 331 331 331 331 330 330 330
348 348 347 348 348 348 348 348 348 348 348 348 347 346 345 343 341 339 337 335 334 333 332 332 331 330 329 328 328 328 328 329 329 329 329 330 330 330 330 329 330 330
348 348 348 347 348 348 348 348 348 348 348 348 348 348 347 345 343 342 338 336 335 334 333 333 331 329 329 329 329 329 329 329 329 329 329 329 329 329 329 329 329 329
348 348 348 348 347 348 348 348 348 348 348 348 348 348 348 347 346 344 340 338 338 335 335 334 331 329 330 329 329 329 329 329 329 329 329 329 329 329 329 329 329 329
349 349 348 348 348 348 348 348 348 348 348 348 348 349 349 348 348 347 344 342 340 338 336 335 332 330 330 329 329 329 329 329 330 330 329 329 329 329 329 330 330 330
349 349 349 348 348 348 348 348 348 348 349 349 349 349 349 349 349 349 348 345 343 340 338 337 335 332 330 330 330 329 330 330 330 330 330 330 330 330 330 330 331 331
350 349 349 349 348 348 348 348 348 349 349 349 349 350 350 350 350 350 350 349 346 344 342 339 336 333 332 331 331 331 331 331 331 331 331 331 331 331 331 331 332 333
350 350 349 349 349 349 349 349 349 349 349 349 350 350 350 351 351 351 351 351 348 348 346 341 337 335 334 333 333 333 333 333 333 333 333 332 332 332 332 333 333 334
350 350 349 349 349 349 349 349 349 349 349 350 350 351 351 352 352 352 353 352 351 351 349 344 339 337 336 335 335 335 336 336 334 334 335 334 333 333 334 334 334 335
350 349 349 349 349 349 349 350 350 350 350 350 351 351 352 352 353 354 354 354 354 354 352 349 346 343 340 339 340 340 340 339 338 338 338 336 335 335 335 335 335 336
349 349 349 349 349 350 349 350 350 350 351 351 351 352 353 353 354 354 355 356 356 356 355 353 353 351 346 344 345 345 345 344 344 345 343 340 338 338 337 337 338 338
350 349 350 350 350 350 350 351 351 352 352 353 353 354 354 355 355 356 356 357 357 358 357 357 357 356 353 351 351 350 350 350 350 350 348 345 344 343 343 344 344 345

ECMWFNIL_850_thetae_048.txt.gz
Theta_e
343 342 340 339 339 339 340 338 336 336 336 335 334 333 334 336 340 343 340 339 341 342 341 343 344 344 344 344 344 344 343 342 342 342 343 345 345 346 347 347 347 347
344 343 343 343 344 344 342 340 338 337 337 336 336 334 334 336 338 340 339 339 341 342 341 342 345 345 344 344 344 344 344 343 342 341 341 343 344 345 346 346 346 345
346 346 347 347 347 346 343 340 338 338 339 339 337 335 335 336 338 339 339 339 339 341 341 342 344 344 343 343 343 344 344 342 340 338 339 342 343 343 344 347 348 348
347 348 348 348 348 347 345 343 340 340 341 340 337 336 337 337 338 339 339 339 338 339 340 341 343 343 343 343 342 344 344 340 338 340 342 343 343 341 341 344 347 349
347 348 348 348 349 348 347 346 344 343 343 341 338 338 338 338 339 339 339 339 339 340 340 341 341 341 342 342 342 344 343 340 340 341 342 341 339 338 338 340 342 344
347 348 348 348 349 349 348 347 346 345 344 343 340 339 340 340 340 339 339 339 340 340 339 340 340 340 341 341 343 344 342 342 343 340 338 339 338 337 338 340 340 340
347 347 348 348 349 349 349 348 347 346 345 345 344 343 342 342 341 340 339 339 339 339 339 339 338 338 339 340 342 343 341 342 342 338 338 340 339 337 338 340 340 339
347 347 347 348 348 349 349 349 348 346 346 346 346 345 343 342 342 340 339 338 339 338 339 339 338 338 339 339 341 342 340 340 339 335 336 338 338 337 336 337 338 338
346 347 347 348 348 348 349 349 348 347 346 346 346 345 344 342 342 341 339 338 338 338 338 338 338 339 339 338 339 339 338 338 337 334 334 335 336 336 336 337 340 340
346 347 347 347 348 349 349 350 350 349 347 346 346 347 345 342 341 341 340 338 338 338 338 338 338 338 338 337 337 336 336 336 335 334 333 334 335 335 336 339 342 342
345 347 348 347 348 350 351 351 352 353 350 346 345 347 347 343 340 340 339 338 338 338 337 337 337 337 337 337 336 335 334 333 333 333 333 334 334 334 335 337 338 338
345 347 348 348 347 350 353 353 354 354 353 348 344 345 347 344 340 339 339 338 338 338 338 337 337 337 336 336 337 335 333 332 332 333 332 333 334 334 334 333 333 333
345 346 347 348 347 349 353 355 354 355 355 352 346 344 346 346 342 339 338 339 338 338 339 338 338 338 337 336 336 336 334 332 331 332 332 332 333 333 333 332 332 332
346 346 346 347 348 348 351 354 355 355 356 355 350 344 346 347 345 341 338 338 339 338 339 339 339 339 338 336 336 335 334 332 330 330 331 331 331 332 332 332 332 332
348 347 346 346 347 347 348 350 353 354 354 354 350 345 345 346 346 345 341 337 338 338 338 339 339 338 337 336 335 334 333 331 330 329 330 330 331 331 331 332 332 332
349 348 346 346 347 347 347 348 350 350 351 351 349 345 345 345 346 347 345 341 337 337 338 337 337 336 335 334 333 332 332 331 330 329 329 329 330 330 331 331 331 331
348 347 347 346 346 346 347 347 348 349 348 349 348 347 346 345 346 346 347 347 343 339 337 336 334 334 333 332 331 330 330 330 329 328 328 328 328 329 330 330 330 330
347 347 347 347 346 347 347 347 347 348 348 348 348 348 347 346 347 346 346 348 348 345 342 339 334 332 331 331 330 329 329 329 329 328 328 328 328 328 329 329 330 329
347 347 347 347 347 346 346 347 347 348 348 348 348 348 348 347 347 347 346 346 348 347 345 342 338 333 330 330 329 328 329 329 329 329 328 328 328 328 328 329 328 328
347 347 348 347 347 347 347 346 347 347 348 348 348 349 348 348 348 348 347 347 347 345 343 343 341 335 330 330 330 329 329 329 329 329 329 329 329 328 328 328 328 328
347 347 347 348 347 347 347 347 347 348 348 348 349 349 348 348 348 348 348 347 347 346 344 342 339 335 331 330 330 330 330 330 330 330 330 329 329 329 329 328 328 327
347 347 348 348 348 348 348 347 347 348 348 348 349 350 350 349 348 348 349 348 347 346 346 343 339 335 333 331 330 330 331 331 331 331 330 330 330 329 329 328 328 328
347 347 348 348 348 348 348 348 347 347 348 348 348 350 352 350 348 348 348 348 347 347 346 344 340 336 334 331 331 331 331 332 332 331 331 331 329 329 329 329 329 329
347 347 348 348 349 349 348 348 348 348 348 348 347 349 351 351 349 349 348 348 348 348 347 345 342 340 337 333 333 333 333 334 334 333 333 332 330 330 330 330 329 329
348 347 348 348 348 349 349 348 348 348 348 348 348 348 350 350 350 350 350 350 350 350 349 347 345 345 342 337 336 336 336 336 337 337 337 334 332 332 331 331 331 330
348 348 348 349 349 349 349 349 349 349 349 348 348 348 349 350 350 351 352 353 353 353 352 350 349 349 347 342 339 339 339 340 340 341 340 337 334 334 334 333 332 331

ECMWFNIL_850_thetae_051.txt.gz
Theta_e
327 327 325 326 326 327 337 344 342 336 331 336 342 341 339 338 338 346 352 352 346 342 342 343 344 344 344 344 342 343 342 342 347 349 347 344 346 350 353 354 354 354
332 331 330 329 330 331 337 343 344 342 335 332 340 347 347 344 338 335 342 349 347 344 342 342 343 344 343 344 343 343 342 340 342 346 347 345 345 349 353 355 355 353
336 336 335 334 335 336 339 344 343 341 339 334 335 345 350 349 345 337 333 339 345 347 346 342 342 344 344 344 343 342 343 342 340 344 345 343 341 345 350 353 354 353
339 338 338 337 341 341 341 345 345 340 340 342 340 343 348 351 351 345 335 334 340 345 346 344 342 343 344 345 344 342 341 341 340 342 343 339 339 342 346 350 353 354
342 341 341 340 343 347 346 348 350 345 343 347 347 346 349 351 352 346 337 335 337 340 343 343 341 341 343 344 344 342 341 342 342 340 340 340 340 341 343 346 349 350
345 344 345 345 344 348 351 350 350 350 348 349 351 350 351 353 352 347 339 337 338 339 343 345 341 340 342 344 344 343 342 345 348 345 339 339 341 342 346 350 348 345
346 346 346 346 346 349 351 349 349 351 352 353 352 352 353 354 352 349 343 339 337 339 345 348 343 339 342 343 342 343 343 344 349 350 344 340 340 341 345 351 351 346
346 346 345 345 348 351 352 350 348 350 353 354 354 353 354 355 352 348 345 342 340 339 343 347 346 340 342 347 344 341 343 342 345 348 344 338 339 340 342 346 348 345
346 347 346 345 349 352 353 353 352 350 351 353 353 354 355 355 353 349 347 344 342 341 340 343 346 342 342 348 346 339 340 342 344 347 344 337 336 339 339 340 341 342
347 347 348 348 351 354 355 355 355 353 353 352 351 352 354 355 354 352 349 344 341 342 340 338 342 342 339 342 343 340 338 339 342 347 347 341 335 337 339 338 337 339
347 349 352 351 352 355 355 355 355 355 356 354 352 352 353 354 354 352 350 346 341 340 341 338 337 338 337 337 340 341 339 337 339 341 342 340 337 337 340 340 340 343
350 351 354 354 353 355 355 355 355 355 355 356 355 354 354 354 354 350 348 348 344 340 340 338 336 336 336 336 341 344 342 339 339 339 337 337 337 336 337 337 338 340
353 351 354 356 355 355 355 355 355 354 354 355 356 356 354 354 354 351 347 345 343 341 340 339 337 337 336 335 338 344 345 342 342 344 341 339 338 337 337 339 339 337
355 352 352 355 357 355 355 356 356 355 353 354 356 356 355 354 354 353 350 347 344 341 340 340 337 337 337 336 335 338 344 345 344 344 347 347 345 342 341 343 346 347
356 355 354 354 355 356 354 356 356 355 354 354 356 357 356 354 353 354 353 352 350 344 341 341 340 337 336 337 336 334 338 343 343 341 344 350 351 350 348 345 345 347
356 357 355 353 353 354 354 355 356 357 355 355 355 358 357 354 353 353 355 356 355 351 345 343 343 341 338 335 335 334 334 338 341 339 337 343 347 348 348 347 345 344
358 358 357 354 352 352 352 353 356 358 357 355 356 358 357 356 355 355 355 356 357 355 350 347 345 345 342 335 333 334 334 333 336 336 334 334 337 339 338 339 340 341
358 359 358 354 351 350 349 349 354 358 358 357 358 360 359 358 356 356 355 356 356 357 355 352 350 348 344 338 333 333 334 334 333 334 334 333 334 335 332 331 331 334
357 358 357 354 351 349 347 347 350 355 359 360 359 361 361 358 355 354 355 355 356 358 357 355 355 353 347 338 334 334 333 334 334 333 334 339 340 336 331 329 327 328
357 357 355 353 351 349 348 347 347 349 355 359 361 361 359 355 353 354 353 352 354 357 359 357 356 357 351 340 333 333 333 333 333 333 332 340 347 344 336 330 328 327
358 358 356 353 352 350 349 347 346 346 350 356 360 360 358 353 351 353 354 350 350 354 358 358 356 357 356 347 337 332 332 331 332 333 331 333 339 340 336 332 329 327
359 357 356 354 352 350 349 347 346 346 347 351 356 360 360 356 351 352 355 353 350 351 355 357 356 355 356 352 341 333 332 332 331 332 332 330 330 331 330 329 329 328
360 357 356 354 352 350 349 347 346 346 346 349 354 358 362 361 356 354 355 357 354 349 349 354 355 354 352 347 341 334 332 332 332 332 332 331 330 329 329 328 328 327
359 357 356 353 351 349 348 347 347 347 347 347 350 355 360 362 360 358 357 359 358 352 346 346 351 352 348 343 339 335 333 333 333 333 332 331 330 330 330 329 328 328
360 359 356 352 350 348 347 348 349 348 348 347 347 352 357 360 361 361 361 360 359 357 351 344 346 351 350 343 338 336 335 335 335 336 335 334 332 331 330 329 328 328
363 360 355 351 349 347 348 350 351 351 351 348 347 351 356 358 359 360 361 361 359 360 357 349 345 348 349 345 340 337 336 336 338 339 338 335 332 332 332 330 329 328

ECMWFNIL_850_thetae_054.txt.gz
Theta_e
326 327 327 327 327 328 330 331 331 328 327 326 326 326 326 328 332 336 338 339 340 340 341 341 343 344 343 343 342 342 345 346 348 349 345 344 345 346 351 355 355 354
326 327 327 327 327 327 328 330 331 330 328 326 327 329 329 330 333 336 335 335 337 339 341 340 341 342 343 343 342 341 341 340 342 344 343 342 343 344 349 354 356 355
325 325 326 326 327 327 327 329 330 330 330 329 330 334 338 339 338 337 336 332 332 336 340 341 341 341 342 342 341 341 341 340 340 342 341 341 341 342 346 351 356 356
326 324 325 325 326 326 326 327 328 328 331 333 332 332 338 345 345 343 341 336 332 332 337 341 342 341 340 341 341 342 341 341 340 340 341 339 338 339 341 346 352 355
330 328 327 325 325 326 326 327 328 328 331 335 336 334 335 342 348 348 346 343 336 332 333 338 342 342 340 340 340 342 342 342 340 340 340 339 337 337 338 341 344 347
334 332 331 329 328 329 330 330 329 331 333 335 338 338 337 340 345 348 348 347 342 336 332 335 338 341 340 340 340 341 341 341 341 341 340 338 338 337 338 342 342 340
336 335 334 335 334 334 335 335 335 336 338 338 339 341 342 342 344 347 349 349 347 342 337 335 336 337 339 339 339 340 340 340 342 344 342 338 338 339 339 345 349 345
338 337 337 338 337 338 339 340 342 342 342 343 344 344 345 346 346 346 347 349 349 347 343 340 338 335 335 337 338 339 340 339 340 344 343 339 338 338 338 342 348 347
340 340 339 338 339 339 340 341 344 346 345 345 346 348 348 348 349 348 347 346 348 349 346 344 341 338 335 335 336 338 339 340 340 341 342 341 338 336 337 339 342 342
344 343 342 341 340 340 340 343 346 349 347 345 348 351 352 351 350 351 348 346 347 349 349 347 344 341 338 336 335 336 337 338 340 339 340 340 339 336 336 337 339 340
344 345 344 343 342 343 344 348 352 353 351 348 349 350 352 353 352 352 350 348 348 350 351 349 346 343 339 336 335 336 336 336 338 338 338 339 339 338 336 336 336 337
346 346 346 345 344 345 349 352 355 356 355 352 350 349 351 354 354 352 350 348 347 349 351 351 349 346 341 336 335 336 336 336 335 336 337 338 338 338 335 334 335 335
349 347 346 347 346 347 351 354 355 357 357 355 353 352 352 353 355 353 350 349 347 346 349 351 350 347 343 339 336 336 336 337 337 336 337 337 337 337 334 333 333 334
350 347 348 350 350 349 352 353 355 355 357 357 356 355 354 354 355 355 353 351 349 347 348 351 351 348 345 342 338 336 337 338 339 340 340 339 338 336 335 334 334 335
352 351 350 351 352 352 351 352 354 355 356 356 356 356 356 355 355 356 355 353 352 350 348 350 351 349 346 344 340 336 336 338 339 341 343 343 342 342 342 339 338 340
354 353 352 351 352 352 351 351 353 355 355 356 356 356 356 356 355 355 356 354 353 354 352 351 352 349 344 343 341 338 335 336 338 340 341 342 344 346 348 346 343 344
355 354 353 352 351 351 351 351 352 354 354 355 356 356 355 356 355 355 356 356 355 355 353 351 349 347 343 342 342 340 336 335 335 337 339 341 343 345 348 347 345 345
355 355 354 353 351 350 350 351 351 353 355 355 355 355 355 355 355 354 355 356 357 357 356 353 348 344 343 342 342 342 339 336 334 336 338 340 342 344 345 345 342 341
356 355 354 352 350 349 350 350 351 352 355 355 355 355 355 355 355 355 354 355 356 358 358 356 352 347 344 344 342 340 340 338 335 335 336 338 340 341 343 344 340 337
357 356 354 352 350 350 351 351 351 351 354 355 355 355 355 355 354 354 354 354 355 356 357 358 356 352 349 347 344 340 339 338 336 336 335 336 339 341 343 344 342 339
358 357 355 354 352 352 352 352 351 350 352 355 356 355 356 356 356 355 355 354 353 354 355 357 357 356 354 353 348 343 340 339 338 338 336 336 340 345 347 347 344 342
360 358 357 356 355 354 353 352 352 351 351 353 356 356 356 356 357 357 357 356 354 353 354 356 357 357 357 356 352 346 344 345 344 341 338 338 340 345 348 349 347 344
362 360 359 358 357 355 354 353 353 352 352 352 355 357 359 359 359 359 360 359 357 354 354 354 356 357 357 357 355 351 350 351 349 344 340 337 337 339 342 345 345 343
362 362 360 360 359 358 356 355 354 353 353 353 354 356 360 361 361 360 360 360 359 357 354 352 352 354 356 356 355 354 354 353 351 347 343 338 336 334 334 336 337 336
363 363 362 361 360 359 358 358 357 355 354 353 353 356 360 361 361 362 361 361 360 359 356 351 351 353 355 354 353 352 353 353 353 352 348 341 335 333 331 331 331 331
365 365 363 362 362 361 361 361 360 359 358 356 355 356 358 359 361 362 363 363 362 361 359 355 352 352 352 352 350 350 349 350 351 350 347 341 336 333 332 331 331 330

ECMWFNIL_850_thetae_057.txt.gz
Theta_e
329 332 334 332 331 330 329 329 329 329 328 327 327 327 328 330 333 334 334 335 337 338 339 339 340 341 342 342 344 348 350 349 345 343 343 344 346 346 346 350 353 353
328 328 330 330 329 328 328 328 327 326 326 326 325 325 326 327 328 328 329 330 333 336 338 338 339 340 342 341 341 343 344 344 343 343 342 342 344 344 344 347 352 355
329 327 328 328 328 327 327 327 327 327 326 326 326 326 325 326 326 326 327 328 330 332 336 338 338 338 339 341 340 340 340 340 340 341 341 340 341 341 342 344 348 354
328 328 327 327 327 327 327 327 327 327 327 327 327 326 326 325 326 326 327 328 329 330 332 336 339 338 338 339 339 339 339 338 338 339 339 339 339 339 341 342 344 351
326 327 327 327 327 326 327 326 327 326 327 327 326 327 326 325 325 326 329 331 331 331 330 332 336 338 339 339 338 338 338 338 338 337 338 338 338 338 338 340 341 346
325 325 326 326 327 327 327 327 327 327 327 327 327 327 326 325 326 327 329 333 334 334 333 331 331 335 338 340 340 338 338 338 338 337 337 337 337 337 336 336 338 340
328 327 325 326 326 327 327 327 327 327 327 327 326 326 326 326 328 329 330 333 336 336 336 334 331 332 334 337 339 339 338 338 338 338 337 337 337 337 336 336 337 338
331 330 327 326 325 325 326 325 326 326 326 326 326 325 325 324 327 330 331 334 337 336 336 335 335 332 332 334 336 338 339 339 338 338 337 337 336 337 336 336 337 337
336 334 331 329 326 325 325 324 324 325 325 325 325 325 325 324 325 328 331 333 335 336 336 336 336 334 333 333 334 334 336 338 338 338 337 337 336 336 336 336 337 337
340 337 335 332 331 329 327 326 326 326 325 324 324 324 325 325 326 328 331 333 335 337 337 335 336 336 334 333 334 334 334 335 337 337 337 337 336 335 336 336 336 336
346 342 338 336 334 333 331 330 329 328 327 326 326 326 326 327 328 331 333 335 336 337 337 336 336 336 335 334 334 334 334 334 335 336 337 338 337 336 335 335 336 335
350 347 342 339 336 336 334 333 332 331 331 331 330 330 330 331 332 334 336 338 337 337 339 337 337 337 336 335 334 334 334 334 334 335 336 337 336 337 335 334 334 334
354 350 346 341 339 338 336 336 335 335 335 334 334 335 336 337 339 339 339 339 339 340 340 339 339 338 337 337 336 335 334 334 334 334 335 336 335 335 335 335 333 333
356 353 349 345 342 340 339 338 338 338 338 338 338 339 339 341 342 342 342 341 341 341 342 342 342 341 339 338 338 337 336 336 335 334 334 335 335 335 335 335 334 333
357 355 352 349 346 344 342 341 340 340 341 341 341 342 342 344 345 345 345 344 344 344 345 345 345 344 341 339 338 338 339 338 336 334 333 333 334 334 335 334 334 334
360 357 355 353 350 346 344 343 342 343 343 344 344 345 345 346 347 347 348 348 347 346 347 347 346 346 343 340 339 339 339 340 339 336 335 334 333 333 333 333 333 333
362 359 357 355 352 349 346 345 345 345 346 347 347 347 348 349 349 349 350 351 350 349 348 348 347 346 344 341 340 339 340 340 341 339 337 335 335 334 334 332 332 332
362 361 358 356 354 351 349 347 347 347 348 349 349 350 350 351 351 351 351 352 352 351 350 349 348 346 344 342 340 340 340 341 341 340 340 339 337 336 335 334 333 332
363 362 359 357 355 353 351 349 349 349 349 351 350 351 352 353 353 352 352 353 354 353 352 350 349 348 346 343 340 339 340 340 341 341 342 341 339 337 336 337 335 334
363 362 360 358 357 355 354 353 351 350 351 351 351 352 353 353 354 354 353 353 354 354 353 353 351 348 347 345 343 341 340 340 340 341 341 341 341 339 337 337 337 336
363 362 361 359 358 357 355 354 353 352 352 352 353 353 353 353 354 354 354 354 354 354 355 354 353 350 348 347 345 343 340 340 340 341 341 341 341 341 339 338 338 337
364 362 361 360 358 358 357 356 355 353 352 353 353 353 354 354 354 355 354 353 354 354 355 355 354 353 351 349 347 344 342 342 343 343 343 342 342 342 341 339 339 338
363 362 362 361 359 359 357 357 356 354 353 353 354 354 355 355 355 355 355 355 354 354 355 355 355 354 354 352 350 347 345 344 345 344 344 343 344 343 343 342 341 340
363 362 361 361 359 358 357 357 357 356 354 353 353 354 355 355 355 355 355 355 354 354 353 354 355 355 355 354 353 351 349 347 345 345 345 344 345 345 346 345 344 342
363 362 361 361 360 358 357 357 357 356 355 354 354 354 355 355 356 355 356 356 355 354 353 353 354 355 355 355 354 354 353 350 348 349 348 347 346 347 347 347 345 343
362 362 361 361 361 359 358 358 357 356 356 355 354 354 355 356 356 355 356 355 355 355 355 353 352 353 353 354 355 355 354 353 353 352 351 349 348 348 348 347 345 342

ECMWFNIL_850_thetae_060.txt.gz
Theta_e
334 334 337 340 341 341 338 334 333 334 333 334 334 335 336 336 337 337 337 338 339 339 340 340 340 341 342 344 344 345 347 347 346 343 343 345 346 346 345 346 349 350
333 333 334 338 340 340 338 334 332 332 331 331 331 332 335 336 337 338 338 337 338 338 338 339 340 340 341 342 342 343 344 345 345 343 342 344 344 345 345 347 349 349
333 333 333 335 335 336 336 333 331 330 329 328 328 328 331 332 334 336 337 337 336 336 337 337 338 339 341 341 341 341 342 342 342 342 342 342 343 344 344 346 347 347
332 332 332 332 331 331 332 332 331 329 328 327 327 326 327 327 329 330 330 331 331 333 336 337 338 338 339 340 341 341 340 340 341 341 341 341 341 342 343 344 345 346
331 331 331 331 330 329 331 332 330 329 328 327 326 326 325 326 326 326 327 327 327 329 332 335 337 338 338 339 339 340 339 339 339 340 340 339 339 340 340 341 343 345
330 331 331 330 330 329 330 330 329 328 327 326 326 326 326 326 326 326 326 326 326 326 328 330 333 336 338 339 339 338 339 338 338 338 338 338 337 337 338 339 340 342
329 329 330 330 329 329 328 328 327 327 327 326 327 326 326 326 326 326 326 325 325 326 327 329 330 332 335 338 339 338 338 337 337 338 338 337 337 336 337 337 338 338
330 328 327 328 329 329 328 327 327 327 326 326 326 327 326 326 326 327 326 325 325 325 326 328 330 331 333 334 336 338 338 338 337 338 338 337 337 336 336 336 336 336
335 332 328 326 327 327 328 328 327 327 327 327 327 327 326 326 326 327 326 325 325 325 326 327 329 332 333 333 333 334 336 337 338 338 338 337 336 336 335 336 335 335
340 337 333 329 326 325 326 326 327 327 327 327 326 326 326 326 327 327 327 326 325 325 325 326 328 330 333 334 333 332 333 334 335 337 337 338 337 336 336 336 335 335
344 341 338 333 329 326 325 325 326 326 326 326 326 326 327 326 326 326 326 326 325 325 325 326 328 329 330 332 333 333 332 331 333 334 336 337 337 337 337 336 336 335
348 345 341 338 333 330 327 326 326 326 326 326 325 326 326 326 326 326 326 325 324 324 325 326 327 328 330 331 333 333 333 333 333 333 334 335 336 337 336 336 336 334
351 349 347 343 338 335 331 329 327 327 326 326 325 325 325 325 325 325 325 325 324 324 325 325 327 328 330 331 333 335 335 335 334 333 333 333 334 335 336 336 336 334
352 352 351 348 344 340 336 334 332 330 329 327 326 325 325 325 325 325 325 325 325 324 325 326 327 329 330 332 334 336 337 337 336 334 333 334 333 334 335 336 335 335
353 353 353 352 350 346 343 339 336 334 332 330 329 328 327 326 325 326 326 326 326 326 326 326 328 330 332 334 335 337 338 338 338 336 334 333 334 333 334 335 335 334
354 354 354 354 353 351 349 346 342 339 336 334 333 331 330 329 328 328 328 328 328 329 329 330 331 332 334 335 336 337 339 339 338 338 336 334 334 333 333 334 334 334
356 355 355 355 355 355 354 351 348 345 341 338 336 334 333 332 331 330 330 331 331 332 333 333 334 334 335 336 337 338 339 340 340 339 338 337 336 335 333 333 333 333
357 357 358 358 357 357 357 355 353 350 346 343 340 337 336 335 334 333 333 334 334 334 335 336 337 337 337 336 337 339 341 342 341 340 339 339 338 338 336 333 333 333
359 360 360 359 360 360 359 357 356 352 350 347 344 341 339 339 337 337 336 336 337 337 338 338 339 339 339 338 338 339 341 343 343 342 340 339 339 339 338 336 335 333
361 361 360 360 361 361 361 360 358 356 353 350 347 345 343 342 341 340 340 340 340 340 341 342 342 341 340 340 339 339 341 343 344 343 342 341 341 340 340 338 337 335
359 361 360 361 362 362 362 362 360 358 356 353 351 348 346 344 344 343 343 343 342 343 344 344 344 342 341 340 339 340 342 344 345 345 344 344 343 342 342 340 339 339
357 358 360 361 362 362 363 362 362 360 358 356 353 351 349 347 347 346 346 345 345 346 346 347 346 344 343 342 340 341 344 346 347 346 347 345 344 343 342 341 341 340
357 358 359 360 361 363 363 362 362 362 360 358 356 353 351 350 349 348 348 348 348 349 349 349 347 345 344 342 342 343 346 348 349 348 348 347 345 343 342 342 341 341
358 358 359 359 361 362 361 362 362 362 361 360 357 355 354 352 351 351 350 350 351 351 351 351 349 347 345 344 344 346 348 350 350 349 348 348 346 344 342 341 341 340
357 356 356 357 360 361 362 362 363 362 362 360 359 357 355 353 352 352 352 352 352 353 353 352 351 349 348 347 346 347 350 351 352 351 350 348 346 343 342 341 341 340
355 355 354 355 358 360 362 363 363 363 363 361 360 358 356 355 354 353 353 353 354 354 354 353 353 352 351 350 348 348 350 352 353 353 351 349 346 344 342 341 340 339

ECMWFNIL_850_thetae_063.txt.gz
Theta_e
335 336 336 335 335 335 336 338 338 338 339 341 339 336 336 337 337 338 339 338 338 338 338 339 340 341 340 342 344 344 344 345 345 347 347 345 345 344 343 343 342 342
333 334 335 335 334 334 334 334 335 335 335 338 338 336 335 335 336 338 339 339 337 337 338 338 339 340 340 341 343 342 342 343 345 346 346 345 345 345 343 343 343 344
334 333 334 333 333 333 331 331 333 334 333 335 337 336 335 336 335 337 338 339 339 337 338 339 339 339 340 340 340 341 340 342 344 345 344 342 343 344 344 344 345 346
334 333 333 333 333 332 331 332 333 334 333 333 334 335 335 335 336 336 337 337 338 337 338 338 338 339 340 340 340 340 340 340 343 344 343 342 342 343 343 343 344 346
333 333 332 332 333 332 332 333 332 333 332 331 332 333 333 334 335 336 337 337 338 338 337 337 338 338 338 339 340 340 340 340 340 342 342 341 341 341 342 343 343 343
333 333 333 332 333 332 332 332 330 330 330 329 330 331 331 331 333 334 335 335 335 335 334 334 335 337 338 338 338 340 341 341 341 341 339 339 339 339 340 341 341 341
333 333 333 333 333 332 332 331 330 330 328 328 328 328 328 328 329 330 330 330 329 328 328 328 330 332 335 337 338 338 339 340 341 342 341 339 339 338 338 338 338 339
335 332 332 333 333 333 333 332 331 330 328 328 328 327 327 326 326 326 326 326 326 326 326 326 326 327 329 332 335 337 338 339 339 340 340 340 339 339 338 338 337 337
341 335 332 332 333 333 333 332 332 331 329 328 328 327 327 326 326 326 326 325 325 325 325 325 325 325 325 327 330 333 335 337 338 339 339 340 339 338 338 338 338 336
345 341 335 332 331 332 332 332 332 332 331 330 328 328 327 326 327 326 326 326 325 326 326 325 326 325 324 326 328 330 331 333 335 336 338 339 339 338 338 338 339 337
348 346 342 336 330 329 330 331 332 332 332 332 330 329 327 327 327 326 326 326 326 326 326 326 326 325 324 325 325 327 329 330 331 333 334 336 338 338 338 339 339 338
350 349 347 342 336 330 328 329 331 332 332 333 331 330 328 327 327 326 327 327 326 327 326 326 326 326 326 325 324 326 327 329 331 332 332 333 334 336 338 338 338 338
351 351 349 347 343 339 333 328 328 329 331 331 331 331 330 328 328 327 326 327 326 327 327 326 326 326 326 325 324 325 326 328 330 331 332 333 333 333 334 335 336 337
351 351 351 350 348 346 342 337 332 328 328 329 329 331 330 329 328 327 326 327 327 326 326 326 326 326 325 326 324 324 325 327 328 330 331 333 334 333 333 333 334 335
352 352 352 351 350 349 349 345 341 337 332 330 329 329 328 329 328 328 327 326 326 326 326 326 326 325 325 325 325 324 325 325 327 329 331 332 334 334 334 333 333 333
353 352 352 352 352 351 351 350 348 345 341 338 334 331 329 328 328 329 328 327 326 325 325 325 325 325 324 324 325 325 324 325 326 328 330 333 335 335 335 335 334 333
353 353 352 353 352 352 352 351 351 350 348 345 342 339 336 333 330 329 329 328 327 326 325 325 325 324 325 324 325 324 325 325 326 328 331 333 335 336 337 336 335 334
353 353 353 353 353 352 352 352 352 352 350 349 348 346 344 340 337 334 332 330 329 329 328 328 327 327 326 326 326 326 326 327 328 330 332 334 336 337 337 337 337 336
353 354 353 353 353 353 353 352 352 352 352 352 351 350 348 346 344 342 339 336 334 333 332 331 331 331 330 329 329 329 330 330 330 332 335 336 337 338 338 338 338 338
354 354 354 353 353 353 353 353 353 353 353 353 353 352 351 351 350 348 346 344 340 338 336 334 334 334 333 333 332 332 333 333 333 335 337 339 339 339 340 340 339 339
355 355 355 354 354 354 354 354 354 354 355 355 354 355 355 355 354 352 351 349 346 343 341 339 337 336 336 336 335 335 335 336 337 338 340 341 341 341 342 341 341 340
356 356 356 356 355 355 355 355 355 356 356 356 356 357 357 358 357 355 354 352 349 347 345 342 340 339 338 338 337 338 338 338 339 341 343 344 343 343 343 342 341 340
357 357 357 357 357 357 357 357 357 357 358 358 358 358 359 359 359 359 358 354 352 350 347 345 342 340 340 340 339 340 340 340 342 343 345 346 345 344 345 344 343 341
358 359 359 359 359 358 358 359 359 358 359 359 359 359 360 360 360 360 360 358 355 352 349 347 344 341 342 341 341 341 341 342 344 345 347 347 347 346 347 347 345 343
357 358 359 360 360 360 359 359 359 359 359 360 360 360 360 360 360 360 360 360 358 356 352 349 347 343 343 342 342 342 343 344 345 347 348 348 347 347 348 348 347 345
355 356 356 357 358 359 359 359 359 359 360 360 360 360 361 361 361 360 360 361 360 358 355 352 349 345 344 344 343 343 344 345 347 348 349 348 348 348 348 349 348 346

ECMWFNIL_850_thetae_066.txt.gz
Theta_e
340 338 338 338 338 338 337 336 335 337 340 343 344 344 343 341 339 339 338 338 339 340 341 341 341 341 341 341 342 344 346 345 345 346 345 345 345 345 345 344 344 345
342 339 337 337 337 337 335 335 334 335 337 340 342 343 343 342 339 338 338 338 339 339 339 340 340 340 341 341 341 342 344 344 344 345 345 345 345 345 345 345 344 344
342 341 338 336 336 335 334 334 334 334 336 338 340 341 342 342 338 337 338 338 338 339 339 339 339 339 340 341 341 341 342 343 344 344 344 345 344 344 344 345 345 344
340 341 339 336 334 333 333 333 333 334 335 336 337 339 340 341 339 337 336 337 338 339 338 338 338 338 339 340 340 340 340 341 342 343 344 345 344 343 343 344 344 344
337 339 339 338 335 333 332 332 332 332 333 333 334 337 339 339 339 338 336 336 337 338 339 338 338 338 338 339 340 340 340 340 341 341 341 342 343 343 343 343 343 343
338 337 338 338 337 334 332 331 331 331 332 332 332 334 336 337 338 338 337 336 336 337 337 337 338 337 338 338 338 339 339 339 340 340 339 339 340 340 340 341 340 341
342 339 337 337 337 335 332 331 331 330 331 331 331 333 336 336 336 337 338 336 336 337 337 337 337 337 337 337 337 337 338 339 338 339 339 339 338 338 338 338 338 338
346 343 340 338 337 335 333 331 330 330 330 330 330 332 335 336 335 335 336 335 335 335 337 338 337 334 332 332 332 334 335 337 338 338 338 338 338 337 337 337 337 337
347 346 343 341 339 336 334 332 331 330 329 330 330 330 332 334 334 333 334 334 333 334 335 334 331 329 327 326 326 328 329 331 334 336 337 338 338 338 338 338 338 337
347 347 346 345 342 339 335 332 331 330 329 329 328 329 330 331 332 333 333 333 331 330 330 328 327 326 325 325 325 325 325 327 329 331 333 335 336 337 338 339 339 338
348 347 347 346 345 344 340 335 332 331 330 329 328 328 328 329 331 332 333 332 329 328 327 325 325 325 325 325 325 325 325 325 326 328 330 332 333 333 335 336 338 338
348 347 347 347 346 347 344 340 336 333 331 330 329 328 328 328 329 330 331 331 329 328 327 326 326 325 325 326 326 326 326 325 326 325 327 329 330 331 332 333 334 335
348 348 348 348 348 348 347 346 343 338 333 330 329 330 330 329 328 329 329 330 329 330 329 328 327 326 326 326 326 326 326 326 326 325 325 325 327 330 331 332 333 332
348 348 348 348 348 348 348 348 347 344 339 334 330 329 329 330 330 329 329 329 329 330 329 329 329 328 327 326 326 326 326 326 326 326 325 324 325 327 328 331 333 332
349 348 348 349 348 349 349 349 349 348 346 342 336 332 328 328 329 329 329 329 329 328 329 329 329 328 328 327 327 326 326 326 326 325 325 324 325 325 326 328 331 333
349 349 349 349 349 349 350 350 350 349 349 347 344 340 335 331 329 328 328 328 328 328 328 328 328 328 327 327 327 326 326 325 326 325 325 324 324 325 325 326 329 332
350 350 350 350 350 350 351 351 351 351 350 350 348 347 344 340 337 333 331 329 328 328 327 327 326 326 326 326 325 325 325 325 325 324 324 325 324 324 324 326 328 331
351 350 350 351 350 351 351 351 351 351 351 351 351 350 349 347 346 343 340 337 335 334 332 331 330 328 326 326 326 325 325 325 325 325 325 324 324 324 325 326 328 331
352 351 351 351 352 352 352 352 352 352 352 352 352 351 350 350 349 348 347 346 345 343 341 339 336 333 331 331 329 328 328 328 328 328 328 327 327 327 328 329 330 332
352 352 352 352 352 352 353 352 352 352 353 352 352 352 351 351 351 351 351 350 349 348 347 346 343 340 338 336 334 333 333 332 332 331 331 331 331 331 331 331 332 334
352 353 352 352 353 352 353 353 352 353 353 353 353 352 352 352 352 352 351 351 352 351 351 351 349 347 344 341 338 336 336 336 335 335 334 333 334 333 334 334 335 336
353 353 353 353 353 353 353 353 353 354 353 353 353 353 353 353 353 353 353 353 353 353 353 354 353 351 349 347 343 341 341 341 339 337 336 335 336 336 336 337 337 338
353 353 353 354 353 353 354 354 354 354 353 354 354 353 353 354 354 354 355 355 355 355 355 356 356 354 352 349 346 345 345 344 341 339 338 338 337 338 338 338 340 340
355 354 354 354 354 354 354 354 354 355 354 354 354 355 355 355 355 356 356 356 356 356 356 358 358 357 356 354 350 348 347 346 344 341 340 339 339 339 340 340 341 341
356 356 355 355 355 355 355 355 355 355 355 355 355 355 356 356 356 357 356 357 357 357 357 358 358 359 359 357 355 352 349 347 346 344 342 341 340 341 341 341 342 342
354 356 356 357 357 357 357 357 357 357 356 356 357 357 357 357 357 357 357 358 358 358 358 358 358 359 360 359 358 356 353 350 347 345 343 342 342 342 342 342 343 343

ECMWFNIL_850_thetae_069.txt.gz
Theta_e
336 337 339 340 340 340 340 340 341 340 339 341 343 344 344 344 344 343 341 340 339 339 340 341 342 343 343 342 341 344 347 348 347 347 346 346 345 345 345 344 344 344
335 336 338 339 339 338 339 340 340 340 338 338 341 344 344 344 344 343 341 339 339 339 340 340 341 342 342 342 342 342 344 345 346 346 346 346 346 345 345 345 345 344
336 336 337 338 337 338 339 339 339 339 338 337 338 341 344 344 344 343 341 338 339 339 339 340 340 341 341 341 341 341 342 343 345 345 345 345 345 345 345 345 345 345
340 337 336 337 337 337 338 338 339 339 338 336 335 338 342 343 343 343 341 339 338 338 338 340 340 340 340 340 341 341 341 341 342 343 344 345 345 345 344 344 344 344
345 341 337 336 336 337 337 338 338 338 337 335 334 335 339 341 342 342 341 339 337 337 338 339 339 339 339 340 340 339 339 340 340 341 341 343 344 344 343 344 343 343
346 345 341 338 336 337 337 336 337 336 336 335 333 334 336 338 339 340 341 340 338 338 337 337 338 339 339 339 339 338 339 339 339 339 339 340 341 341 341 342 341 342
347 347 345 341 337 336 336 335 335 335 334 334 334 333 333 335 336 337 338 339 340 339 338 337 337 338 339 338 338 337 337 338 338 338 338 338 338 339 339 339 339 339
348 347 347 345 342 338 335 335 335 334 334 333 333 333 332 333 333 334 335 337 339 339 339 338 337 338 338 337 337 337 337 336 336 337 337 337 337 337 338 338 338 337
348 348 347 347 345 342 339 336 335 334 333 333 332 332 331 331 331 331 333 335 336 337 338 338 337 337 337 338 337 335 333 333 332 333 334 336 336 337 337 337 337 336
348 348 348 348 347 346 344 340 337 335 333 332 332 331 331 331 331 330 331 333 334 335 335 335 336 337 338 337 334 330 328 327 327 327 328 331 333 334 335 336 336 337
348 348 348 348 348 348 347 345 342 339 336 333 332 332 331 330 330 330 330 331 331 332 332 332 334 335 337 335 330 326 326 326 325 326 325 326 328 329 331 333 333 334
348 348 348 348 348 348 348 347 346 345 342 338 334 332 331 331 330 330 329 329 329 329 330 330 331 332 333 331 327 325 325 326 326 326 325 325 325 325 327 329 330 331
348 348 348 348 349 348 348 348 347 347 346 344 340 336 332 330 330 330 329 328 328 328 328 328 327 328 328 327 326 325 325 326 326 326 326 326 326 325 325 325 327 329
348 348 348 349 348 349 349 348 348 347 347 347 347 343 338 333 330 330 329 328 328 327 327 327 326 326 326 326 325 325 325 325 325 326 326 326 326 325 325 325 325 326
348 348 348 348 348 348 348 348 348 348 347 347 347 348 345 341 335 331 330 329 329 328 328 327 327 327 327 326 327 326 326 326 326 326 326 326 326 326 326 326 325 324
348 348 348 349 348 348 349 348 348 348 348 348 348 348 348 347 344 339 334 331 329 329 329 329 329 328 327 327 327 326 326 327 326 326 326 326 326 326 325 325 325 325
348 349 349 349 349 349 348 349 348 348 348 349 349 349 349 349 349 347 342 337 332 330 329 328 328 328 327 327 327 327 327 327 326 326 326 326 326 326 325 325 325 324
349 348 349 349 349 350 349 349 349 349 349 349 349 350 350 350 350 350 348 345 340 336 333 330 328 326 326 325 325 326 325 326 326 326 325 325 325 325 325 324 324 324
349 349 349 350 350 349 350 350 349 349 350 350 350 350 350 350 351 351 351 349 348 345 342 338 334 330 328 328 327 327 327 327 327 326 325 325 324 325 325 325 325 325
350 350 350 350 351 350 350 350 350 350 350 350 350 351 351 352 351 352 351 351 350 349 348 347 344 339 336 336 334 334 333 333 333 332 331 329 328 327 327 327 327 327
351 350 350 350 351 351 351 351 351 351 351 351 351 351 352 352 352 352 352 351 351 351 351 351 350 346 345 343 342 341 341 342 342 340 338 337 334 332 331 330 330 330
351 352 352 351 351 351 352 352 351 352 352 352 352 352 352 353 352 352 352 352 352 352 351 352 351 350 351 350 349 348 349 349 348 346 344 343 340 336 335 333 333 333
352 352 352 353 352 352 352 352 352 352 353 352 352 352 352 353 353 353 353 353 352 352 352 352 352 352 353 353 353 353 353 352 352 350 349 347 344 340 338 336 335 335
352 353 353 353 353 353 353 353 352 352 353 352 353 353 353 353 353 353 353 353 353 353 353 353 353 354 354 354 355 355 355 355 354 353 352 349 346 342 340 339 337 337
352 353 353 353 353 354 354 353 353 353 353 352 353 353 353 353 353 353 354 354 354 354 354 354 355 355 356 356 355 356 356 356 357 356 354 350 347 344 343 341 339 338
348 350 352 354 354 354 354 354 354 354 353 353 353 353 353 353 353 353 354 354 354 354 355 355 356 356 356 357 356 357 357 357 358 357 356 352 348 345 344 342 340 339

ECMWFNIL_850_thetae_072.txt.gz
Theta_e
340 337 337 339 338 340 344 344 344 345 345 347 349 351 351 347 346 347 347 344 342 341 341 343 344 344 345 344 342 345 347 349 353 352 347 344 347 351 352 350 350 350
341 337 336 337 337 338 341 342 343 345 344 343 346 351 352 348 344 344 344 344 342 341 341 341 343 343 344 345 343 344 344 344 350 354 349 344 348 351 351 351 350 348
344 339 335 334 337 338 340 341 340 342 344 343 343 347 349 349 347 344 344 344 343 343 342 340 341 343 342 344 344 344 345 343 348 355 351 345 348 352 353 354 354 351
347 344 337 334 337 338 340 342 341 339 342 344 343 344 346 349 350 347 343 344 343 342 342 341 341 342 341 342 343 343 344 343 345 350 349 345 345 348 351 354 355 354
347 347 343 337 336 337 338 341 341 339 340 343 344 343 342 343 347 348 345 344 342 340 342 342 340 340 340 341 342 343 342 344 345 344 344 346 347 348 351 352 351 351
347 347 347 342 338 336 336 337 338 339 340 342 343 342 341 339 340 346 347 346 345 343 344 344 341 340 341 339 340 341 342 347 349 346 342 343 347 349 352 352 349 348
348 347 347 346 343 338 336 336 337 337 339 341 342 339 339 339 338 342 345 345 346 347 347 347 343 340 340 338 338 340 340 343 346 345 343 343 343 345 349 350 346 344
348 348 347 346 346 343 340 338 338 337 336 338 339 336 334 335 336 340 342 342 345 347 346 345 342 338 339 340 339 340 340 342 343 343 342 343 343 342 343 344 343 341
349 348 348 347 346 346 346 343 340 338 335 335 337 337 335 333 333 339 341 339 340 342 341 340 339 339 340 341 339 338 338 340 343 343 341 341 342 341 342 342 341 340
350 349 349 349 348 348 348 348 346 343 339 334 334 338 338 334 331 335 337 334 335 337 337 337 338 338 340 341 340 338 336 337 338 337 335 335 335 337 340 342 340 340
352 352 351 351 350 351 350 349 349 348 344 336 333 337 339 336 332 331 332 331 331 333 334 335 336 337 337 340 340 340 337 335 333 329 328 328 327 329 332 334 335 337
354 353 353 352 351 351 351 350 349 349 348 343 337 334 335 336 333 331 330 330 329 331 333 333 334 335 335 336 339 341 340 336 332 327 325 325 325 326 326 326 327 329
354 354 353 353 352 351 351 351 351 349 349 348 345 339 337 336 334 331 330 330 329 329 330 332 332 333 334 333 335 339 340 337 332 329 328 327 326 326 327 329 330 329
353 354 354 353 352 351 351 351 352 351 350 350 349 346 343 341 338 334 330 330 330 329 329 330 330 330 331 331 332 334 337 335 331 328 329 330 329 327 329 331 332 333
352 352 353 352 351 350 349 349 350 350 350 350 350 348 347 347 345 342 336 331 329 329 329 329 329 329 329 330 329 331 333 332 329 326 326 328 328 328 329 329 329 331
352 352 350 349 350 349 348 348 348 349 349 348 348 349 348 348 347 347 345 340 333 329 328 328 329 328 328 327 328 327 327 328 328 326 326 327 326 327 328 328 328 330
353 353 351 349 349 348 348 348 348 348 348 348 348 348 348 348 347 347 348 347 343 337 331 329 329 328 327 326 326 326 326 326 327 326 326 326 326 326 326 328 328 329
352 353 353 353 351 349 348 348 348 348 348 348 348 348 348 348 348 347 347 348 348 347 342 337 332 328 327 326 325 326 326 326 327 328 328 328 328 327 326 327 328 327
352 353 353 354 355 353 350 348 348 349 349 348 348 348 348 348 348 349 348 348 349 349 348 345 339 330 326 326 326 326 327 327 328 329 329 330 330 328 327 327 327 327
352 354 354 354 355 354 353 351 349 349 350 350 350 350 349 349 349 349 349 350 350 349 350 349 345 336 329 327 326 326 326 327 328 328 328 329 329 327 326 326 326 326
351 353 355 356 355 354 354 353 351 350 350 350 351 352 351 351 350 350 350 350 350 351 351 350 349 345 338 333 330 328 327 326 326 326 326 326 326 326 325 325 324 325
349 351 353 355 356 356 356 356 354 353 352 351 351 352 353 353 352 351 351 351 351 351 351 351 351 349 347 343 339 336 336 335 333 332 330 329 328 327 327 327 327 327
349 350 351 352 354 356 356 357 357 356 355 354 353 353 354 354 354 353 353 353 352 352 352 352 352 352 351 350 348 347 346 345 344 343 341 339 337 335 334 333 331 330
349 350 351 351 352 353 355 357 357 356 356 356 356 355 355 355 355 355 354 354 353 353 353 352 352 353 352 351 351 351 351 350 350 349 349 348 346 344 342 341 338 334
345 348 351 351 352 352 353 355 355 354 355 355 356 356 356 356 355 354 355 355 355 354 354 353 353 353 353 352 352 352 352 352 352 352 352 352 351 350 349 347 345 341
338 341 344 348 351 352 353 354 353 353 354 353 353 354 355 355 355 355 356 355 356 355 355 354 354 353 353 353 353 353 353 353 353 353 353 353 354 354 353 353 351 346

ECMWFNIL_850_thetae_075.txt.gz
Theta_e
340 341 341 346 350 352 353 353 351 351 352 352 352 352 353 354 353 353 354 349 342 343 345 345 345 344 345 344 344 351 352 349 351 351 348 347 351 356 356 355 355 354
343 342 342 346 349 349 351 353 353 352 352 352 351 352 354 354 353 351 351 350 345 344 344 343 345 344 345 348 344 345 348 346 351 354 350 345 352 357 356 356 356 355
345 343 343 347 349 349 350 352 353 352 351 352 351 352 353 354 353 350 349 350 350 350 346 343 345 344 344 347 345 346 348 345 348 356 355 347 351 358 358 356 355 355
348 347 346 348 350 350 350 351 352 352 351 351 351 351 352 352 353 352 349 348 349 351 351 346 346 346 344 343 345 348 350 348 346 353 354 348 347 354 357 357 356 356
347 348 349 351 350 349 351 350 350 351 350 351 351 350 350 351 352 353 351 348 344 348 352 349 346 345 345 343 343 346 350 351 349 347 347 346 347 352 355 356 357 357
348 348 349 351 350 348 349 350 350 351 350 350 350 350 350 350 350 352 353 351 347 347 351 350 347 346 348 345 342 343 349 354 354 350 345 345 349 354 357 357 356 355
352 350 348 350 351 349 349 350 350 350 350 349 349 350 351 351 350 350 352 353 352 350 350 351 350 350 351 350 345 342 344 349 353 354 351 347 347 351 355 358 356 352
357 354 351 352 352 351 350 349 349 350 349 349 349 349 350 351 351 350 350 351 352 352 351 350 351 350 349 351 350 346 344 346 350 352 349 347 345 345 348 353 354 351
359 358 356 355 353 351 350 348 348 349 349 349 348 348 349 350 351 351 350 349 349 351 352 351 352 351 349 350 352 350 348 348 350 351 347 346 346 345 345 349 352 351
356 358 358 357 354 351 350 348 347 348 348 348 347 346 348 348 349 350 351 350 347 347 350 351 352 352 350 350 351 350 348 348 348 351 351 350 351 350 349 350 352 352
354 357 358 357 354 351 350 348 347 346 347 348 347 345 345 346 347 348 349 351 348 345 347 348 349 350 348 347 350 350 349 348 348 349 351 350 349 348 348 348 350 352
354 356 357 356 353 352 351 349 347 346 346 347 348 346 344 345 346 347 346 346 343 341 343 343 342 344 343 342 346 350 349 349 350 350 350 347 345 345 344 342 343 345
353 356 357 356 354 352 351 350 348 347 346 346 346 346 345 343 344 347 347 342 336 333 339 342 339 339 339 336 339 346 349 349 349 350 350 348 345 345 346 343 343 343
353 354 356 356 354 354 354 353 350 348 346 346 346 345 346 344 342 345 347 346 338 331 333 340 341 339 338 335 334 339 345 349 350 349 348 348 346 345 345 345 345 345
354 354 355 356 355 355 356 355 353 351 349 347 346 346 345 344 342 342 346 347 346 340 334 338 342 342 341 338 335 335 339 344 348 349 348 347 346 346 346 345 344 343
354 354 355 356 356 357 357 357 356 354 353 350 349 347 347 347 345 344 343 345 347 346 342 340 342 344 343 339 335 335 336 339 344 347 348 347 346 345 344 344 344 343
352 353 354 354 356 357 358 357 357 356 355 353 352 351 349 349 349 348 346 344 345 347 346 344 343 343 342 338 333 331 333 336 341 345 346 346 345 343 340 339 341 342
352 351 353 353 354 356 357 357 357 357 357 355 354 354 353 352 352 351 350 348 346 346 346 346 344 342 342 340 334 329 328 332 338 343 346 345 344 344 342 340 340 340
353 353 353 353 353 354 354 354 354 355 355 355 355 355 355 354 354 354 353 351 350 348 347 347 345 343 343 342 338 331 327 327 330 335 341 344 345 346 346 345 344 342
352 352 352 353 353 353 353 353 352 352 353 353 354 355 355 356 356 355 354 353 351 351 351 349 348 347 345 344 342 335 328 326 326 327 330 335 339 343 345 348 348 347
348 349 350 352 353 353 352 353 353 352 351 351 353 354 355 356 356 356 356 355 353 352 352 352 351 349 348 348 347 342 334 329 327 326 326 328 331 333 337 341 344 347
346 346 347 350 351 351 352 353 354 354 353 352 353 354 353 354 355 355 356 356 356 354 353 353 353 352 351 350 349 348 344 339 334 331 328 326 327 328 330 331 333 336
343 344 345 347 349 350 351 353 353 354 354 352 352 352 352 351 352 353 354 355 356 356 355 354 354 354 352 351 351 350 350 348 345 341 336 331 328 327 327 327 328 328
336 339 341 344 347 348 348 351 352 352 353 353 353 353 352 351 351 351 352 353 355 356 356 356 355 355 354 352 352 352 351 350 349 348 346 341 336 332 330 329 327 326
329 332 335 338 341 344 346 349 351 352 352 352 353 353 352 351 353 353 352 352 353 355 356 357 356 356 355 353 352 351 352 351 351 351 351 349 346 343 340 338 334 332
325 328 329 331 334 338 341 344 348 350 352 352 352 353 353 353 353 353 353 352 351 353 355 355 355 356 357 356 354 353 352 352 352 352 352 351 351 350 349 348 346 343

ECMWFNIL_850_thetae_078.txt.gz
Theta_e
335 335 338 347 353 353 350 344 342 343 345 348 348 350 352 351 350 352 353 348 344 343 345 345 346 346 346 347 348 349 346 347 349 348 346 346 347 350 354 354 353 352
337 336 336 340 347 350 350 345 345 346 346 349 352 351 350 353 353 353 354 353 345 342 343 344 345 344 345 347 347 347 346 345 349 348 345 346 347 351 355 355 353 352
337 336 336 338 342 347 349 347 348 350 348 348 351 352 352 353 353 352 354 353 348 345 343 341 342 343 344 347 347 345 345 345 348 349 348 349 348 350 354 355 354 354
338 338 337 338 345 348 348 349 350 350 350 349 348 351 354 353 353 353 351 349 348 350 349 343 342 342 343 345 346 345 346 345 347 349 350 350 348 349 354 355 356 355
341 342 340 342 348 351 350 350 352 351 351 350 347 349 353 353 352 354 351 348 345 349 352 347 342 342 342 342 344 346 347 346 347 348 349 348 346 348 354 355 354 355
349 346 345 346 350 351 350 351 352 352 351 352 350 350 351 351 352 354 353 349 343 342 348 349 344 344 344 341 341 344 346 347 350 350 347 346 347 349 353 355 353 353
354 353 351 351 351 350 350 351 351 351 352 352 351 350 351 350 351 353 354 352 348 344 347 351 348 345 345 344 342 341 343 346 352 353 349 345 344 346 352 357 356 353
353 354 354 355 353 351 350 351 351 350 351 351 351 351 351 351 349 350 352 354 353 350 350 352 351 347 347 349 345 340 340 344 350 352 350 347 344 342 346 353 355 354
353 353 354 355 354 352 351 350 351 350 351 351 351 350 350 351 351 351 351 352 353 353 353 352 351 349 348 350 350 345 340 341 349 353 349 345 343 342 341 343 348 350
355 353 355 356 355 352 351 350 350 351 351 350 350 350 349 350 351 352 352 350 349 351 352 351 351 352 350 349 350 349 345 341 347 352 351 348 344 342 343 343 342 344
356 356 356 357 355 352 351 350 349 349 350 351 350 349 349 349 349 350 352 352 349 348 349 349 349 352 353 350 348 348 347 341 341 346 348 350 349 346 348 350 350 348
357 357 356 357 357 354 351 350 348 348 348 349 350 349 348 348 349 349 350 351 351 350 348 347 346 348 351 350 348 349 349 343 342 343 343 344 347 347 346 346 347 347
355 356 356 356 358 356 354 352 350 348 347 347 348 349 348 347 348 348 348 349 349 350 350 347 345 344 346 346 345 348 351 350 347 347 344 341 341 342 342 342 341 338
354 353 354 355 356 356 356 354 351 348 347 346 346 347 348 347 346 346 347 348 347 348 349 349 347 343 343 343 341 342 347 351 352 349 348 346 344 343 343 345 346 342
353 353 353 355 356 356 356 356 353 349 348 346 345 346 347 347 345 345 346 347 348 347 347 347 348 347 343 339 337 336 339 345 350 350 349 349 348 348 346 346 346 345
352 353 353 354 356 356 357 357 354 351 349 347 345 346 346 347 346 344 344 345 347 349 348 347 348 349 347 341 336 334 334 336 343 347 349 349 349 350 348 346 345 345
351 352 352 352 354 354 354 354 354 353 352 350 349 348 346 346 346 345 344 344 344 347 349 350 350 349 348 345 340 337 334 333 336 340 345 348 349 349 349 347 346 345
351 351 352 352 353 352 352 353 354 355 354 352 351 351 349 347 347 346 345 344 344 345 346 349 351 349 347 346 344 340 337 334 334 335 339 342 345 347 347 348 346 344
350 351 352 352 352 351 351 353 355 355 355 353 352 352 351 350 349 348 347 346 345 345 345 346 347 348 347 346 345 342 340 337 335 334 335 339 342 343 343 344 344 343
349 350 351 352 352 351 352 353 354 355 355 354 354 352 352 352 351 350 349 349 347 346 346 346 346 346 346 346 346 344 342 341 339 337 335 335 338 342 343 344 343 343
346 346 348 350 350 351 352 352 352 353 353 353 353 353 352 352 351 351 350 350 350 349 348 348 348 348 348 347 346 345 344 343 342 342 339 337 336 338 340 343 344 344
340 342 344 347 348 349 351 350 351 351 351 352 353 353 353 352 351 351 349 348 349 350 350 349 349 350 351 349 348 348 347 346 345 344 344 343 341 338 335 334 335 338
334 336 337 341 345 347 348 349 350 350 350 352 353 352 352 352 351 350 349 349 348 349 350 350 349 351 352 352 351 351 350 349 348 347 346 347 347 345 341 336 331 330
327 329 329 332 336 342 346 346 348 348 349 351 352 354 353 352 352 351 351 351 351 350 350 350 351 352 353 354 354 354 353 351 350 350 349 349 349 348 347 345 340 335
320 323 326 327 329 336 342 345 346 348 349 350 351 352 353 353 352 351 351 352 351 351 351 351 352 353 354 356 356 356 355 355 353 352 351 351 351 351 350 350 349 347
314 316 320 322 324 328 334 340 344 346 349 350 351 351 352 353 353 353 353 352 352 352 352 352 353 353 354 356 357 356 356 356 355 355 354 353 352 352 352 352 351 351

ECMWFNIL_850_thetae_081.txt.gz
Theta_e
334 337 343 345 346 349 348 344 344 346 345 342 344 348 347 347 348 346 347 347 343 344 346 345 346 347 346 346 347 350 349 345 344 343 342 343 345 349 351 351 351 351
335 334 337 340 345 350 350 346 343 343 343 341 343 346 346 347 349 347 348 350 345 343 345 345 345 345 345 345 346 349 347 346 346 345 344 345 346 351 352 350 351 352
336 335 335 335 341 349 351 347 344 342 342 342 343 346 348 348 349 349 350 351 348 343 342 343 344 343 344 344 346 346 345 345 347 346 345 344 346 351 353 352 352 353
336 336 336 335 336 342 347 348 346 344 343 344 344 348 351 349 349 351 350 349 349 345 341 341 342 342 343 344 345 345 344 344 347 346 345 345 345 349 353 353 353 354
336 337 336 336 336 337 341 345 345 345 347 347 346 349 352 351 350 351 350 347 348 349 346 343 342 341 342 344 344 344 344 344 346 347 346 346 345 347 352 354 354 355
338 338 337 336 338 338 340 341 343 345 348 348 347 347 350 352 353 352 350 348 347 348 351 351 347 341 339 342 342 344 344 344 345 346 345 345 345 346 350 353 354 355
344 342 340 339 341 344 347 347 344 344 347 349 349 347 347 351 354 353 351 349 346 344 348 351 350 345 340 339 340 342 343 344 346 347 345 344 345 345 348 351 353 353
351 349 345 344 344 347 351 352 349 346 348 350 351 350 348 348 351 353 352 351 349 345 344 345 347 348 344 340 338 339 341 342 345 347 346 344 343 344 346 350 354 355
354 353 351 349 347 347 351 354 351 349 350 351 351 352 351 349 349 350 351 352 352 349 346 344 347 349 348 344 340 338 339 340 342 344 346 346 344 343 342 346 352 354
355 354 354 355 353 351 352 353 351 350 351 351 351 351 352 350 349 350 350 350 351 352 350 348 349 349 350 349 345 341 339 339 339 340 344 348 348 345 343 342 345 346
357 356 356 356 355 353 353 352 350 350 350 350 351 351 351 351 350 350 350 350 350 350 349 350 351 350 350 350 349 347 343 340 340 340 342 346 347 346 344 342 341 341
356 356 356 355 354 352 351 350 348 348 349 350 350 350 350 350 350 349 349 350 350 349 347 348 350 349 349 349 350 349 346 342 341 340 342 344 346 345 343 341 339 339
354 354 354 354 355 354 350 349 348 346 347 349 350 349 348 348 350 350 349 348 349 349 347 346 346 346 345 347 347 346 344 342 341 340 340 341 343 343 341 339 338 337
354 355 354 353 355 355 352 350 348 346 346 347 349 350 347 346 348 349 349 348 347 347 346 345 344 342 341 342 342 340 339 339 340 340 340 340 339 339 339 338 337 336
353 353 353 353 354 353 351 349 348 348 347 346 349 351 349 347 346 347 348 348 348 347 346 345 344 341 338 337 337 336 336 336 336 337 338 338 337 337 337 336 336 337
352 352 351 352 352 351 351 349 348 349 348 346 349 351 350 348 348 348 348 347 347 346 346 346 345 344 341 337 334 333 333 333 334 335 335 335 335 335 334 334 335 336
351 351 351 351 351 351 352 350 349 350 348 347 349 351 349 348 348 348 347 346 346 346 346 345 345 345 344 342 339 335 333 332 331 332 332 333 333 333 333 332 333 334
350 350 351 351 351 351 352 352 351 351 350 350 351 352 349 348 347 347 347 346 346 347 348 348 347 345 345 345 344 342 340 338 336 334 333 333 332 331 332 332 332 332
349 349 350 350 350 351 352 353 353 353 353 353 353 352 351 348 346 346 347 346 346 346 348 349 350 349 348 347 347 346 345 344 343 340 338 337 335 333 332 332 332 332
348 348 349 349 349 350 351 352 352 352 353 353 353 352 352 350 347 347 347 347 346 345 346 347 349 351 351 351 350 349 348 346 346 345 344 342 340 338 336 335 333 332
347 348 348 348 349 350 350 351 351 352 352 353 354 353 353 352 350 349 347 347 347 346 345 345 345 347 349 350 351 351 351 349 347 346 346 345 344 343 341 340 338 335
343 344 345 346 347 348 349 350 351 351 351 352 353 353 353 353 352 351 350 349 349 348 348 347 346 345 345 346 347 349 351 352 351 349 347 345 344 344 343 343 342 341
335 336 339 342 342 342 344 348 350 350 351 351 351 352 352 352 352 352 351 351 351 350 350 349 349 348 347 347 346 346 348 351 353 353 351 349 347 345 344 344 343 343
323 325 328 330 332 333 338 344 347 349 349 350 350 351 351 351 352 352 352 351 351 350 350 349 349 349 348 348 348 347 347 347 348 350 352 352 351 350 349 348 347 345
315 317 317 318 321 325 329 334 340 344 347 348 348 349 350 350 351 351 352 352 352 351 351 350 349 347 346 345 345 347 347 347 347 347 348 349 350 351 352 351 351 350
312 313 314 314 317 318 320 323 328 333 338 342 344 345 347 350 351 351 352 352 352 352 352 351 350 347 345 345 347 349 350 350 350 351 351 351 350 351 352 353 353 352

ECMWFNIL_850_thetae_084.txt.gz
Theta_e
336 337 339 344 347 347 347 347 347 347 348 348 348 346 345 347 346 345 345 344 344 345 345 345 346 347 347 348 348 346 344 343 342 341 341 342 342 344 347 347 347 349
333 333 336 341 346 349 348 346 345 346 347 347 346 343 344 347 347 345 345 345 342 343 345 345 345 347 347 348 348 348 348 345 343 341 340 341 342 343 348 349 349 349
333 333 336 340 344 347 347 347 347 346 346 345 345 344 343 345 346 345 345 346 344 341 343 344 344 346 347 347 347 348 349 346 345 343 342 342 342 343 348 350 350 350
333 334 336 338 340 341 344 347 348 348 347 344 343 344 345 345 347 347 345 347 347 344 342 342 343 344 344 345 346 347 348 346 346 345 345 344 344 346 350 351 350 351
335 335 336 337 337 338 342 346 347 347 347 344 342 343 346 348 348 348 346 347 348 346 342 340 341 343 343 344 345 346 346 345 345 346 346 344 344 346 350 352 351 352
334 335 335 336 336 337 341 345 346 345 345 344 343 344 347 349 350 351 349 348 347 347 344 340 340 341 342 342 343 345 346 345 345 346 346 346 346 346 349 352 353 354
341 340 338 338 337 337 339 342 344 344 345 345 346 347 349 351 351 351 351 351 350 348 345 342 340 340 340 341 341 343 344 344 345 345 346 347 347 346 346 350 354 354
346 345 343 342 342 340 339 340 341 343 345 346 347 348 350 351 351 351 352 352 351 349 346 343 341 340 340 340 339 340 341 343 345 346 346 345 345 345 345 348 351 353
347 346 345 344 344 344 341 340 342 346 349 348 346 347 349 350 350 351 352 353 352 350 348 345 341 339 340 340 339 338 338 340 342 344 345 346 344 344 344 345 347 350
347 348 348 347 346 345 343 343 345 349 351 350 348 348 349 349 350 350 350 351 351 350 349 348 345 340 339 339 339 338 338 338 339 340 341 343 343 343 344 344 344 345
348 349 350 350 349 347 345 345 347 349 351 351 350 350 350 351 350 350 349 348 347 348 348 348 349 346 342 340 339 340 339 337 337 337 338 338 339 340 341 342 342 342
351 351 351 351 351 350 348 348 349 349 350 350 349 349 349 351 351 351 351 349 347 347 347 348 349 349 347 345 344 344 343 340 338 336 336 336 336 336 336 338 339 340
351 350 351 352 352 350 350 351 350 350 350 349 348 347 347 349 350 351 351 350 349 348 347 346 347 347 348 348 349 348 347 346 343 339 336 336 335 335 334 334 336 337
351 350 352 353 352 351 352 353 352 351 351 350 348 347 347 348 349 350 350 350 349 348 348 347 346 345 346 347 349 349 348 348 346 343 340 338 337 336 334 334 333 334
351 352 352 352 352 352 352 354 353 353 352 350 349 348 348 348 348 349 350 349 349 349 348 348 347 346 345 345 345 346 345 346 345 343 342 340 339 338 337 337 335 333
351 352 353 352 354 353 353 354 354 354 353 351 349 347 347 348 348 349 349 349 349 349 349 349 348 346 345 345 344 344 342 343 342 341 340 340 340 341 340 340 339 336
351 351 352 352 353 353 353 353 353 354 353 352 350 347 346 347 349 349 349 349 348 349 349 349 348 347 345 345 345 344 344 343 342 340 338 337 337 338 339 340 341 341
351 351 352 351 352 352 351 352 351 352 352 351 350 349 347 348 350 350 350 349 348 348 348 349 348 348 347 347 346 346 345 346 345 344 342 338 336 336 336 335 336 338
350 350 351 350 351 351 351 351 351 351 352 352 351 349 347 349 352 351 350 349 349 348 347 347 347 347 348 348 347 347 348 347 347 347 347 345 343 341 339 338 337 336
348 348 349 348 349 350 350 351 352 352 352 352 352 351 348 349 352 352 350 349 349 348 348 347 346 346 347 347 347 347 348 348 349 349 349 349 348 347 346 345 343 342
345 346 347 347 348 349 349 350 351 351 352 352 353 352 351 351 352 353 351 349 348 347 348 347 347 346 347 347 348 348 348 349 349 350 350 350 349 349 348 347 346 345
340 341 344 345 345 346 347 349 350 350 351 351 351 352 353 352 353 354 353 350 348 347 346 346 347 347 347 348 348 349 350 350 350 350 350 351 351 350 349 349 347 347
333 334 337 339 338 337 340 343 347 348 350 350 351 351 352 352 353 353 354 352 350 348 347 346 346 346 347 347 348 348 349 349 349 348 348 348 348 349 349 349 348 348
324 324 325 327 327 326 329 334 339 343 346 348 349 350 350 352 352 352 353 353 353 351 349 348 347 347 348 348 348 347 346 346 346 346 346 346 346 347 347 348 348 348
315 316 316 317 318 319 321 325 330 335 340 343 346 348 348 348 349 350 350 351 351 352 351 351 350 349 350 350 349 349 348 348 348 347 347 347 347 347 347 348 348 348
312 313 313 313 314 315 316 318 321 326 331 336 340 343 345 346 347 347 348 349 350 351 350 351 351 351 351 350 349 349 349 349 348 348 348 347 347 348 348 348 348 348

ECMWFNIL_850_thetae_087.txt.gz
Theta_e
347 348 348 346 347 347 346 346 347 347 346 346 347 348 347 347 346 345 343 343 344 344 343 343 344 345 346 348 349 349 347 342 341 342 342 342 342 340 341 346 347 347
344 345 346 346 346 347 347 347 348 348 347 345 346 347 347 348 348 347 345 344 344 344 344 344 344 344 345 346 348 348 347 345 343 343 341 341 341 341 342 345 346 347
338 341 342 343 344 345 345 347 348 348 347 346 346 347 347 347 348 348 346 344 344 343 343 344 345 344 344 345 345 346 346 347 347 345 342 340 340 341 343 345 347 347
334 335 337 339 339 341 344 347 347 347 347 346 346 346 346 346 346 348 347 346 345 344 342 343 344 344 344 345 344 344 345 346 347 346 343 342 341 341 342 345 347 349
332 332 333 334 335 337 343 346 347 347 347 347 346 345 344 344 344 346 347 346 346 346 344 342 342 343 344 344 343 344 344 345 346 345 343 344 343 342 343 346 348 349
333 332 331 332 332 333 338 342 344 346 347 347 348 345 342 342 343 345 347 347 347 347 346 343 341 341 342 343 342 343 344 344 344 343 343 344 344 343 343 346 349 350
335 335 333 333 333 334 334 337 339 342 346 348 348 346 344 341 342 344 346 348 348 349 349 345 342 340 340 341 341 342 343 344 344 343 344 344 344 345 344 344 347 350
336 335 335 334 335 336 336 337 337 339 343 346 346 346 345 343 342 344 347 348 350 350 350 349 345 342 341 340 340 340 341 342 343 343 343 344 345 345 344 344 344 346
339 335 334 334 335 335 336 336 337 337 339 342 343 344 346 346 345 345 347 349 350 351 351 351 349 345 342 341 340 340 339 340 341 342 343 344 345 344 345 344 343 344
341 336 335 334 334 334 335 336 336 337 337 338 339 342 346 347 346 346 348 349 350 351 351 351 351 348 344 341 340 340 340 340 340 340 340 341 343 344 345 345 343 343
344 340 339 337 335 335 336 337 337 337 336 337 339 342 346 348 348 348 348 350 350 351 351 350 349 348 347 343 341 340 340 340 340 340 341 340 340 341 343 345 344 343
347 344 343 343 342 341 341 342 340 338 337 338 340 344 347 348 349 349 350 349 349 350 350 349 348 348 347 346 344 342 341 340 340 341 343 342 341 340 339 340 341 342
349 348 347 347 347 347 347 347 346 343 341 341 344 347 349 349 349 349 350 350 350 350 350 350 348 348 348 347 346 345 343 342 341 341 343 344 344 342 340 339 338 338
352 352 352 350 350 351 351 351 350 348 347 346 348 350 350 351 349 349 349 349 349 350 350 350 349 348 348 348 347 347 345 343 342 340 340 341 342 342 341 340 339 337
355 354 354 353 353 353 351 351 352 352 351 350 350 351 351 351 350 349 348 347 347 347 348 350 349 348 348 348 347 347 345 343 342 340 339 338 338 339 339 338 338 338
354 354 354 353 353 352 352 352 352 352 352 352 351 351 351 351 350 349 348 347 346 346 347 348 348 348 348 348 348 346 345 345 344 343 342 341 340 339 337 336 336 336
352 352 353 352 352 351 351 351 351 352 353 353 353 352 352 351 350 349 348 347 347 347 347 347 347 347 348 348 348 347 346 346 346 346 346 345 344 343 341 338 336 334
351 351 351 351 352 352 352 351 352 353 354 353 353 353 353 353 351 349 348 346 347 347 347 347 346 346 348 348 348 348 348 347 347 347 346 346 346 346 345 343 340 337
351 351 351 351 352 352 352 351 352 352 352 352 353 353 353 353 352 350 347 346 346 347 347 346 346 346 347 347 348 347 347 347 347 347 347 347 347 346 347 347 346 344
348 349 350 351 351 351 351 351 351 351 351 351 352 352 352 352 352 350 348 348 349 349 348 347 348 348 347 347 347 346 346 346 347 347 347 347 346 347 347 347 347 347
346 347 347 348 348 348 348 349 350 350 350 351 352 352 352 351 351 350 348 349 351 351 350 349 349 349 348 348 347 347 346 345 345 346 347 347 346 346 346 346 346 346
344 345 345 346 345 345 345 346 348 349 349 350 351 352 352 352 351 351 349 350 351 352 351 350 350 349 349 348 348 348 347 346 345 346 346 346 347 347 347 347 347 347
340 341 343 344 342 342 342 343 345 346 347 348 349 349 350 351 352 352 351 352 352 352 352 351 350 350 349 349 349 349 349 348 346 347 347 348 349 349 350 350 349 348
332 333 335 338 339 337 337 338 339 342 343 345 345 345 346 348 349 350 351 352 352 353 353 352 351 350 349 348 349 350 350 350 349 349 349 349 350 349 349 349 348 348
321 321 322 325 327 327 327 329 332 336 338 340 340 341 342 343 345 347 348 349 350 351 351 351 352 351 350 349 348 348 349 350 351 350 349 349 349 349 348 348 348 348
314 314 315 315 316 316 318 321 324 327 330 332 334 335 337 338 340 343 345 346 347 347 348 349 350 351 351 350 349 348 348 350 351 351 350 350 349 349 349 348 348 348

ECMWFNIL_850_thetae_090.txt.gz
Theta_e
339 341 343 344 346 347 346 346 345 345 345 345 345 346 347 349 349 348 345 343 343 343 342 343 343 344 344 344 345 347 347 345 342 340 340 340 341 342 341 341 344 347
338 340 342 343 345 346 346 346 345 344 344 344 345 345 346 348 349 349 347 345 343 343 344 343 342 343 344 345 345 346 347 346 343 341 341 341 341 341 340 340 343 346
336 339 341 342 342 344 345 345 345 344 343 344 345 345 345 346 347 348 348 347 345 344 344 344 343 344 344 344 345 346 346 347 346 344 343 341 340 340 341 340 342 344
333 335 338 340 341 343 344 345 345 344 343 342 344 345 344 345 346 346 347 347 346 345 344 343 344 345 345 345 345 345 345 346 346 346 344 342 340 340 340 340 341 344
330 331 333 337 341 343 345 345 344 344 342 342 343 344 344 344 344 344 345 347 347 347 346 345 344 344 345 345 345 345 344 344 346 346 344 343 343 342 342 341 341 343
330 330 331 333 337 340 342 342 342 341 341 342 344 344 344 343 342 342 343 345 347 347 348 347 346 345 344 343 344 344 344 344 345 345 344 343 344 344 343 343 343 344
331 331 331 332 333 335 336 337 338 339 340 342 344 345 346 345 343 341 342 344 346 347 348 349 349 349 346 343 342 342 343 344 344 345 344 343 344 344 343 343 343 344
336 333 333 333 333 332 332 333 334 337 340 341 342 345 348 348 346 342 341 342 345 347 349 350 351 351 350 347 343 342 341 342 343 344 344 343 343 343 344 344 344 344
343 340 337 335 334 332 331 331 332 334 337 338 339 343 346 347 347 345 343 342 345 347 349 351 351 351 351 350 347 344 342 341 341 342 343 343 343 344 344 344 344 344
346 345 343 340 337 334 333 332 332 333 335 335 335 338 341 343 345 346 346 346 346 347 347 349 350 351 351 351 349 346 343 342 342 341 341 341 342 343 344 345 345 344
346 346 347 345 341 338 335 334 334 334 335 335 334 334 335 338 341 344 347 347 347 347 347 347 348 349 350 350 349 347 345 344 343 341 341 340 341 341 341 342 343 344
346 346 348 348 346 344 340 337 335 335 335 336 335 335 334 334 337 342 346 347 347 347 347 347 347 348 349 348 347 348 347 346 344 343 342 341 342 342 342 342 341 340
347 347 348 349 348 348 348 345 341 338 338 338 338 338 337 336 337 340 345 347 347 348 348 348 348 348 349 348 347 347 347 347 346 345 343 343 342 343 344 344 343 341
347 348 349 348 346 347 349 349 348 346 345 345 344 342 340 339 340 343 346 347 347 348 348 349 349 349 349 348 347 347 347 347 347 346 345 344 344 344 344 344 344 343
348 349 350 349 348 347 347 348 349 350 351 350 349 347 343 343 344 346 347 348 348 348 348 348 349 348 348 348 348 348 348 347 347 346 346 345 345 345 345 345 344 343
351 351 351 351 351 350 349 348 348 350 352 352 352 350 348 346 347 347 348 349 349 348 348 347 347 347 347 347 348 348 348 348 348 347 347 347 346 346 346 345 345 344
352 352 352 352 353 352 351 350 349 350 352 353 352 352 351 350 349 349 349 350 350 350 349 348 347 347 347 347 347 347 348 348 349 348 348 347 347 347 346 345 346 345
351 352 352 352 353 353 352 351 350 350 352 353 353 352 352 351 351 351 351 351 351 350 350 349 347 346 347 347 347 347 347 348 348 348 348 348 348 347 346 346 346 346
350 350 350 350 351 352 351 350 350 351 352 353 353 353 352 352 352 351 352 352 352 352 350 349 347 346 347 347 347 347 347 348 348 348 347 347 347 347 347 346 346 346
349 349 349 350 350 351 351 350 350 351 352 352 352 352 352 352 352 352 352 352 352 352 351 348 347 346 346 347 348 347 347 347 347 347 347 346 346 346 346 347 347 347
348 348 349 350 351 350 350 351 350 351 351 351 351 351 351 351 352 352 352 352 352 352 351 349 347 346 346 347 348 348 348 347 347 347 347 346 345 345 345 346 346 347
345 346 347 348 349 348 348 348 349 349 350 350 350 350 350 351 351 351 351 351 351 351 351 349 348 347 348 348 348 348 348 348 348 348 347 347 346 345 345 346 346 347
343 343 344 344 344 344 343 343 345 346 346 347 348 349 350 350 351 351 351 351 350 350 350 350 349 350 350 349 349 349 349 348 348 348 347 347 346 346 345 346 346 347
341 341 341 341 341 341 340 339 341 342 342 343 345 346 347 348 349 349 350 350 351 351 351 350 350 351 350 350 350 350 349 349 349 349 349 348 348 347 347 346 347 348
335 335 334 335 336 336 334 333 333 335 336 338 340 341 343 344 345 346 347 348 349 349 350 350 350 350 350 350 351 350 350 349 349 349 350 350 349 349 349 348 348 349
323 323 323 325 326 326 325 325 327 328 330 331 333 336 337 339 340 341 341 344 346 347 347 347 347 347 348 348 349 350 350 350 349 350 350 350 349 349 349 349 349 349

ECMWFNIL_850_thetae_093.txt.gz
Theta_e
339 340 341 345 347 346 346 346 347 348 348 348 347 347 348 349 350 350 350 347 345 343 343 342 343 344 344 344 345 346 347 347 347 344 342 342 342 342 343 343 343 344
337 338 339 342 345 345 345 345 346 346 346 347 347 346 346 348 349 350 350 350 347 344 343 343 343 344 344 344 345 345 347 348 347 345 342 342 343 343 343 343 342 343
336 337 338 339 342 343 344 345 346 346 346 346 346 346 346 347 348 349 350 350 348 346 344 344 344 344 344 344 345 346 347 347 347 346 344 343 343 343 343 342 342 342
336 336 336 337 339 342 343 344 345 345 346 345 345 345 345 346 346 347 348 348 349 348 346 344 343 344 344 345 345 345 346 346 347 347 346 345 343 342 342 341 341 342
336 336 336 336 337 340 343 343 343 344 345 346 345 344 344 345 345 345 346 346 347 349 349 346 344 343 344 344 344 344 345 345 346 346 347 346 345 344 342 342 342 342
335 335 336 335 336 339 341 341 341 343 344 345 345 345 345 345 345 344 344 345 346 347 349 348 347 345 344 343 343 344 344 344 345 345 346 345 345 345 344 343 342 343
333 333 333 334 334 335 336 337 339 340 342 342 343 344 345 345 346 345 344 344 344 346 348 349 348 348 348 345 343 342 342 343 343 344 345 345 345 345 345 344 344 343
335 333 331 332 333 333 333 334 334 335 336 338 339 342 345 346 346 347 346 344 343 345 348 349 349 350 350 348 345 342 341 341 341 342 344 344 344 345 345 345 345 344
340 338 336 334 334 333 333 333 333 332 332 333 335 339 343 344 346 348 347 345 343 343 347 349 350 351 351 350 348 345 343 342 341 341 342 343 343 344 344 345 345 345
343 344 342 340 338 336 336 336 336 333 331 332 333 336 340 341 344 347 348 346 344 343 345 348 350 351 351 351 350 349 347 344 343 342 342 341 341 342 343 344 345 345
344 345 345 344 343 341 340 340 339 337 333 332 332 334 337 339 340 342 344 345 345 344 345 347 348 350 350 350 350 350 349 347 345 344 342 342 341 340 340 341 342 343
344 345 346 346 346 345 344 342 341 339 335 333 333 334 337 338 338 338 338 340 343 345 345 346 348 348 349 349 350 349 349 349 348 346 344 343 342 341 340 340 340 340
344 345 346 347 347 347 346 345 344 342 338 335 334 335 336 337 338 337 336 337 340 344 346 346 347 348 349 349 350 349 349 348 348 348 347 346 344 343 343 342 341 341
345 346 346 346 346 346 347 347 347 345 341 337 335 336 337 338 339 339 338 337 340 345 346 346 347 349 349 350 350 350 349 349 348 349 349 348 347 346 345 344 344 344
346 346 346 346 346 346 347 348 348 348 345 340 336 335 337 340 342 342 341 340 342 346 348 347 347 348 349 350 350 350 349 349 348 348 349 349 348 348 347 346 346 346
346 346 346 346 346 347 348 348 347 349 349 345 340 338 340 343 344 343 342 342 344 347 348 348 348 348 347 348 349 348 348 349 349 349 349 349 348 348 348 347 347 347
347 347 347 346 346 347 348 347 346 348 349 348 346 345 346 347 347 346 345 345 346 347 347 348 348 348 347 347 346 346 347 348 348 348 348 348 349 349 348 348 348 347
348 349 350 349 348 348 348 348 348 348 349 349 349 349 349 350 349 349 348 348 348 349 348 349 349 348 347 347 346 345 345 346 347 347 347 348 348 348 348 348 348 348
349 350 350 349 350 350 351 351 350 350 349 350 350 350 350 349 349 349 349 349 351 351 351 351 350 349 349 348 347 346 346 346 346 346 347 347 348 348 348 347 347 347
348 348 347 347 348 350 351 353 352 351 351 351 351 350 350 348 348 347 346 348 351 353 353 353 352 351 351 349 347 346 346 346 346 346 346 347 347 347 347 346 346 346
348 347 347 347 348 348 349 351 352 352 352 351 351 350 349 348 348 347 346 348 351 353 353 353 353 352 352 351 348 346 345 346 346 346 346 346 346 346 346 346 345 345
345 345 346 346 347 347 348 349 350 351 351 351 350 350 349 349 349 348 348 349 351 352 352 352 352 352 351 350 349 347 346 346 346 347 347 346 346 346 346 346 346 346
342 341 342 343 343 345 347 348 349 349 349 350 350 349 349 349 349 349 349 349 350 350 351 351 351 351 351 350 350 349 348 348 348 349 348 348 347 347 346 347 347 347
338 338 339 340 340 341 343 345 346 346 346 346 347 347 347 348 348 349 349 349 349 349 350 350 350 351 351 350 350 350 349 349 349 349 349 349 349 348 348 347 347 347
330 331 332 333 333 335 337 340 341 341 341 341 342 343 344 345 345 346 346 347 348 348 349 349 350 350 351 351 350 350 350 350 349 349 350 350 350 350 350 349 349 349
323 323 324 325 326 328 330 332 333 333 334 335 336 337 338 340 340 341 342 343 343 344 345 346 346 347 347 348 349 349 349 350 350 350 350 350 350 350 349 349 349 349

ECMWFNIL_850_thetae_096.txt.gz
Theta_e
340 342 345 349 351 352 353 353 353 353 353 353 353 354 354 352 351 350 352 352 348 347 345 342 344 344 344 346 345 345 346 347 350 350 344 343 347 351 352 351 351 351
339 341 342 347 350 350 350 351 353 353 352 352 353 354 353 351 349 349 350 350 349 350 346 341 343 343 344 347 344 344 347 345 349 352 347 344 348 351 351 351 352 350
340 341 341 345 350 350 350 351 351 351 352 352 353 353 352 352 351 349 348 348 350 352 348 344 345 345 344 345 344 346 348 346 348 353 349 344 347 351 352 352 353 352
340 342 344 347 350 350 351 352 351 350 351 352 352 352 352 352 353 352 349 347 346 348 348 345 345 346 344 344 344 345 347 345 346 349 347 345 345 347 350 352 352 352
339 340 343 347 350 351 351 351 351 351 351 351 351 352 351 350 351 353 352 349 346 347 349 347 345 346 345 344 344 345 348 349 350 347 344 346 348 348 351 352 350 349
341 338 338 341 346 349 350 351 351 351 351 351 351 352 352 350 350 353 353 352 352 352 354 353 350 351 351 348 344 345 349 352 353 348 344 346 349 351 354 352 347 346
343 342 339 339 343 345 346 349 351 351 351 351 352 352 352 352 352 352 352 352 353 354 355 355 351 349 351 350 347 344 344 346 347 344 343 346 347 347 351 351 347 345
342 344 342 339 343 345 345 347 349 350 350 351 352 350 350 352 352 353 352 352 353 353 352 353 349 345 349 353 351 348 346 349 350 346 343 345 346 344 346 348 347 345
341 344 342 340 344 346 346 346 346 348 349 349 349 349 349 351 352 353 354 351 352 351 347 348 348 347 350 352 349 346 345 350 354 352 348 348 349 348 348 350 349 348
343 343 343 343 344 345 346 346 345 346 347 347 347 346 348 351 352 353 353 349 349 349 344 344 347 350 353 352 349 346 345 347 350 351 349 349 351 350 350 352 351 350
344 344 344 344 344 343 344 345 346 345 346 347 347 345 346 350 352 352 350 347 349 352 349 345 346 349 352 354 354 352 349 349 350 349 346 347 348 347 347 348 349 350
344 346 345 345 345 344 343 343 345 346 346 346 346 346 345 348 351 352 350 348 348 351 353 351 348 349 350 351 355 356 353 352 352 351 349 347 347 348 348 348 350 351
343 345 346 346 345 346 344 343 344 346 347 348 348 348 346 346 348 350 351 350 347 347 351 352 349 348 348 347 350 355 355 354 353 353 352 350 350 351 352 352 352 352
343 344 345 345 345 347 347 346 345 346 347 348 348 348 349 348 347 348 349 350 349 347 350 351 349 349 349 346 347 352 354 354 353 353 353 353 354 353 353 353 353 353
343 343 344 345 345 346 347 347 347 346 346 345 343 344 348 349 348 348 349 350 350 350 350 351 352 352 352 350 349 351 353 354 354 354 353 354 354 354 353 353 353 352
343 343 344 344 344 345 346 346 346 346 347 346 342 341 344 346 346 347 350 350 351 350 349 350 351 352 352 351 349 350 352 353 354 355 354 353 354 354 353 353 353 352
343 343 344 344 344 345 346 346 346 346 347 347 345 341 340 342 342 343 347 350 351 350 349 349 350 351 351 347 345 346 347 348 350 352 352 352 353 354 353 353 353 352
345 345 345 345 345 346 346 346 346 346 347 347 346 342 340 340 342 344 347 350 352 352 351 351 351 350 349 347 346 347 346 345 347 350 352 353 353 354 354 353 353 353
348 348 348 348 348 347 347 347 346 346 347 348 345 342 343 343 346 349 351 351 353 355 353 354 352 349 347 347 347 348 348 347 346 347 350 352 353 354 354 353 353 352
350 350 350 350 349 349 349 349 348 346 347 348 346 345 347 348 348 351 353 352 354 355 354 354 352 348 347 349 349 349 349 348 347 346 347 350 353 353 352 353 352 349
349 350 350 350 349 349 350 351 350 348 348 348 348 349 350 350 350 351 352 352 353 353 353 354 352 349 348 349 349 350 350 350 348 346 346 349 351 350 349 349 349 347
348 348 348 348 348 348 349 350 350 350 350 350 351 351 351 350 351 352 351 352 353 353 353 353 352 350 349 349 349 350 351 351 349 346 347 349 350 349 347 347 347 347
345 346 346 346 347 347 348 348 348 348 349 350 352 352 351 350 351 351 351 351 351 352 353 353 352 351 351 350 350 350 351 351 350 349 350 350 350 349 348 347 348 347
341 342 342 342 344 346 346 346 347 347 348 349 350 350 350 350 350 350 350 350 350 351 351 351 351 351 350 350 350 350 351 350 350 352 353 352 351 351 350 349 350 348
338 338 337 337 339 341 341 341 342 343 345 347 347 346 346 347 347 347 348 348 348 349 350 350 349 350 350 350 350 350 350 350 351 352 353 353 353 353 353 352 351 349
330 331 330 331 332 333 333 334 334 335 338 341 342 342 343 344 345 345 345 346 346 346 347 347 347 348 349 349 349 349 350 350 350 351 352 352 353 352 352 353 352 351

ECMWFNIL_850_thetae_099.txt.gz
Theta_e
351 352 352 353 355 355 356 356 354 354 355 353 352 353 354 355 354 353 355 353 348 347 346 343 344 344 345 348 345 346 349 348 351 353 351 350 353 354 353 353 353 352
353 355 354 355 355 355 356 356 355 355 354 354 354 355 355 354 354 352 351 352 350 350 347 342 344 344 346 351 347 344 347 345 348 356 354 350 352 355 354 353 354 352
352 354 353 354 354 353 355 355 355 355 353 354 355 355 355 354 354 352 350 351 353 356 352 344 344 344 346 349 345 347 352 347 347 356 354 347 350 356 356 354 353 354
351 353 353 353 352 351 353 354 354 354 353 354 354 354 353 353 355 354 352 350 349 355 356 350 346 345 346 347 344 349 354 350 348 351 348 345 346 351 354 355 354 354
352 352 353 353 353 352 353 353 352 352 352 353 354 353 354 354 354 355 355 352 348 351 355 353 350 350 349 345 343 348 352 351 351 350 346 346 348 350 353 355 354 354
353 351 350 351 353 353 352 352 352 353 352 352 352 352 353 354 353 353 355 355 353 353 356 356 355 356 355 351 345 347 353 354 354 353 348 348 351 354 356 356 355 353
353 352 350 350 352 352 352 352 352 352 352 352 352 352 353 354 353 353 355 355 354 354 355 356 357 356 358 358 350 345 348 351 351 347 346 349 353 353 354 356 356 350
352 353 352 351 350 350 350 352 352 352 352 352 352 352 353 353 354 354 354 354 354 355 355 357 357 354 354 358 356 350 349 352 352 348 343 347 350 348 348 354 355 350
350 350 351 350 350 349 348 349 348 349 351 351 351 352 351 352 352 353 355 354 354 355 356 356 355 352 353 357 356 352 350 352 355 355 352 351 352 351 350 354 355 353
349 348 349 348 348 347 347 347 346 347 349 350 350 349 349 351 351 353 355 355 354 355 354 352 351 351 352 356 356 351 350 351 352 354 355 354 355 356 355 356 357 357
350 349 348 349 348 346 346 346 344 345 346 347 348 348 346 348 350 354 356 355 354 353 353 351 350 351 352 355 357 356 355 354 354 353 352 352 354 354 353 353 353 353
353 351 350 350 349 348 346 345 345 344 344 346 347 346 345 345 348 352 356 356 353 353 356 354 351 352 353 352 355 358 357 356 356 355 354 353 353 354 353 352 350 350
351 353 352 351 351 348 343 341 344 345 344 344 345 346 346 345 346 350 354 356 354 354 356 355 351 351 352 350 352 357 358 357 357 356 356 356 355 354 354 354 353 353
346 351 353 352 352 351 345 340 342 345 346 344 344 346 346 345 344 347 350 353 354 353 354 355 352 352 353 350 350 353 355 357 357 356 356 357 356 356 354 354 354 353
343 345 348 348 348 349 348 344 343 346 348 347 346 346 348 347 345 344 347 349 351 351 351 352 351 353 355 353 352 353 353 354 355 355 355 356 355 355 355 354 353 352
344 343 344 344 344 345 347 348 346 347 348 350 350 351 351 350 348 346 346 348 349 351 351 350 349 350 352 354 354 353 352 352 354 355 357 357 355 354 354 354 354 353
346 346 345 344 344 343 343 346 348 348 348 349 350 351 351 351 350 349 348 347 348 349 351 350 349 348 349 351 352 352 352 353 354 356 357 357 356 355 355 354 354 353
344 344 344 343 343 343 343 344 346 347 347 348 349 350 350 349 349 350 350 350 349 350 350 349 347 347 348 349 349 350 349 348 349 352 354 354 354 355 355 354 354 353
347 345 344 343 343 343 343 344 345 345 345 346 347 348 348 349 349 350 351 350 350 350 351 350 349 349 348 349 349 349 348 346 345 346 349 351 353 354 355 355 355 355
350 349 348 347 346 346 347 347 346 346 346 346 346 346 347 348 349 350 351 352 352 353 352 352 351 350 350 350 350 349 347 347 347 346 346 348 350 352 353 354 356 356
350 351 350 349 349 348 349 349 349 349 349 349 348 347 347 348 348 349 350 352 353 353 354 354 351 350 352 352 351 349 347 348 349 348 348 348 349 351 352 354 356 356
350 351 351 350 350 350 351 351 351 351 351 350 349 349 348 347 348 347 347 349 351 351 352 353 350 348 351 351 350 349 349 349 351 351 351 350 351 353 356 357 357 357
350 350 350 350 350 350 350 350 350 351 352 351 351 350 349 346 347 348 348 349 351 349 349 349 348 347 349 349 349 349 349 350 352 352 351 349 349 352 355 357 356 354
346 346 347 348 349 348 348 348 348 349 350 351 351 351 350 348 348 350 351 351 349 348 348 348 347 347 348 348 349 350 351 351 351 351 351 350 350 352 352 351 351 349
340 342 342 343 344 345 345 346 347 347 347 349 350 350 350 351 350 350 351 350 349 348 348 347 347 348 349 350 350 350 350 350 350 351 351 351 352 352 350 349 350 349
334 334 335 336 338 339 340 340 341 341 342 344 346 347 348 348 348 348 349 348 349 349 349 349 350 350 350 350 350 350 350 350 350 350 351 351 352 352 350 349 350 350

ECMWFNIL_850_thetae_102.txt.gz
Theta_e
346 345 346 345 347 350 352 352 352 352 351 351 349 349 352 352 351 352 352 351 347 345 346 343 344 345 344 346 346 345 346 345 347 351 350 348 350 353 354 353 353 351
347 346 346 347 350 353 353 353 353 352 353 353 351 351 352 351 351 352 354 353 348 346 345 343 344 345 346 349 347 345 346 344 345 350 350 350 350 352 352 352 353 352
348 347 346 347 349 352 354 355 354 353 353 353 352 353 353 350 350 352 352 351 350 352 350 346 345 344 345 348 346 346 348 345 346 351 352 350 348 349 353 354 352 352
349 349 349 348 348 351 353 353 355 354 353 352 352 353 352 350 350 350 349 348 349 354 354 348 345 344 344 346 345 346 347 345 346 350 350 348 345 346 353 355 353 353
351 352 352 351 350 350 350 351 353 353 351 352 352 352 351 351 351 351 350 347 346 350 352 347 345 344 343 344 345 345 345 346 347 347 347 346 344 346 351 353 353 354
351 352 353 353 352 351 350 351 352 351 350 351 352 352 351 351 351 352 353 351 348 351 352 349 349 349 347 346 345 344 346 350 351 349 348 346 346 350 354 354 355 355
351 351 352 353 353 352 351 351 351 351 352 352 352 352 352 352 352 352 354 354 353 354 353 350 352 353 351 349 347 345 347 351 352 350 348 345 345 350 354 354 357 356
353 352 352 352 352 353 352 352 351 352 352 352 352 352 352 353 353 352 353 354 354 354 353 351 353 353 351 350 350 349 349 351 352 350 348 345 343 346 348 349 352 352
353 354 353 353 352 351 351 351 351 352 353 352 352 352 352 353 353 353 354 353 353 354 353 353 353 352 351 352 353 352 352 353 353 354 353 350 345 346 347 348 349 350
352 353 353 352 352 351 350 349 349 350 351 351 351 351 352 352 352 353 353 354 353 353 353 353 353 351 349 351 353 353 352 352 352 353 355 354 352 352 354 354 352 352
350 351 351 351 350 351 350 348 347 347 347 349 350 350 350 350 350 350 352 354 354 352 351 352 351 349 347 348 352 353 352 352 353 353 354 354 354 353 355 355 352 353
350 350 350 349 349 350 349 347 347 346 345 346 347 348 348 348 348 349 351 353 353 351 351 351 350 348 347 348 352 353 352 352 353 354 355 355 353 351 352 353 351 351
349 350 350 350 349 349 348 347 346 346 345 344 345 346 348 347 346 347 349 352 353 351 349 351 352 351 349 348 349 352 354 355 354 355 355 355 354 353 353 354 353 353
349 350 351 351 350 350 349 346 344 345 345 344 343 344 345 346 346 346 346 349 353 353 350 351 354 354 352 350 349 351 354 355 354 354 355 354 354 355 354 353 353 353
347 350 352 352 351 351 351 349 344 342 343 344 345 344 344 345 345 345 345 346 351 353 352 352 354 354 353 351 350 351 352 354 355 355 355 353 353 354 354 354 354 353
346 349 352 352 351 351 351 350 345 341 341 342 344 345 345 344 345 345 345 345 346 349 350 351 351 351 351 350 350 352 352 354 354 353 352 351 352 354 354 353 353 352
347 348 349 349 350 351 350 349 347 344 343 342 342 344 345 345 345 346 346 346 345 345 347 349 349 349 349 348 349 352 353 354 354 353 352 352 352 352 353 353 352 351
351 350 349 348 349 350 349 348 346 345 345 344 343 344 345 346 346 347 349 349 347 346 347 347 348 349 349 348 348 349 350 351 352 353 352 351 351 350 351 352 352 352
352 352 351 349 348 348 348 348 346 345 344 344 344 345 346 347 347 347 350 350 349 348 346 345 347 348 348 347 347 347 348 348 349 350 350 349 349 351 351 350 351 351
350 351 351 350 348 347 347 346 344 344 344 343 343 343 345 347 347 347 349 350 349 349 346 343 346 350 350 348 347 347 348 348 349 349 349 348 347 348 350 350 349 349
350 351 351 351 350 348 347 346 345 345 345 344 343 343 344 345 346 347 348 349 349 350 348 344 344 348 351 350 349 349 349 349 350 350 350 348 347 347 349 350 349 349
351 351 351 351 351 351 350 350 349 348 346 345 345 346 346 345 346 346 346 347 348 349 348 345 343 346 351 352 351 350 350 350 351 351 350 348 347 348 349 350 350 349
349 350 350 350 350 351 351 351 350 349 349 349 348 348 348 348 348 348 348 347 347 348 347 346 346 347 349 350 352 351 351 351 352 351 349 349 349 350 350 349 349 349
346 347 348 348 349 349 349 349 349 349 349 350 350 349 350 350 350 351 350 347 347 347 347 348 348 347 346 348 350 349 349 350 350 350 349 349 350 350 350 349 348 350
344 344 344 344 344 345 345 344 346 348 349 349 349 349 350 351 351 351 350 348 347 347 347 348 348 346 345 347 348 347 348 349 350 350 350 350 350 351 350 350 350 350
340 340 341 341 341 342 341 340 341 343 345 346 346 347 348 349 349 350 350 349 348 347 348 348 349 348 348 348 348 347 349 350 349 350 349 349 349 349 349 350 350 350

ECMWFNIL_850_thetae_105.txt.gz
Theta_e
346 347 347 347 346 346 345 345 348 349 346 344 345 346 348 349 349 349 348 346 345 343 344 345 344 343 343 345 347 350 349 346 345 348 347 344 345 347 347 350 352 352
344 344 345 345 345 346 347 347 349 350 347 346 345 346 349 351 350 348 349 350 348 345 343 343 342 343 343 343 345 346 345 344 344 347 348 347 348 349 351 352 352 351
344 344 344 345 346 346 347 349 350 350 349 350 349 348 350 351 348 347 349 350 348 345 344 343 343 343 343 344 344 344 344 344 344 345 347 349 348 349 351 353 353 352
345 345 345 346 347 347 349 352 351 351 351 351 350 351 352 351 349 348 348 348 348 347 348 347 345 344 344 344 344 343 344 344 344 345 347 350 348 347 350 353 354 353
344 345 344 345 346 347 352 354 353 353 353 352 350 351 352 351 349 348 348 348 346 347 350 350 346 344 343 343 344 345 344 345 345 345 347 348 346 345 349 353 354 353
342 345 345 346 346 348 351 352 351 352 352 351 351 351 351 350 350 350 350 349 347 346 348 349 346 345 344 344 344 344 344 345 345 346 347 348 345 344 348 352 353 353
345 345 347 349 349 349 350 350 350 351 350 350 351 351 352 351 350 351 351 351 352 350 349 350 349 349 348 347 346 345 344 345 346 348 349 349 347 345 348 353 354 354
349 346 347 350 351 351 351 350 350 351 350 351 351 351 352 351 352 352 351 352 353 353 352 352 351 351 350 348 348 347 346 346 347 348 348 348 348 346 347 351 353 353
352 348 347 349 352 352 352 350 351 351 351 352 352 351 351 351 352 353 352 352 353 353 354 354 353 352 351 350 350 349 348 349 350 350 350 351 351 349 347 347 349 349
352 351 350 350 351 352 352 350 350 351 351 352 352 352 352 351 351 352 353 353 353 353 353 354 354 353 351 352 352 350 350 350 351 351 351 353 354 352 351 352 352 352
352 353 353 352 351 351 351 350 349 351 351 351 350 350 351 351 351 352 352 352 353 354 353 354 354 353 352 352 351 351 352 352 352 351 350 351 353 353 352 354 355 356
351 352 353 353 353 352 351 350 349 349 348 348 347 347 349 350 351 350 349 349 350 351 351 352 353 352 352 352 350 351 355 356 354 353 353 353 353 352 351 351 353 354
349 350 351 351 351 351 351 350 349 348 347 347 346 346 346 348 349 348 348 347 347 347 348 350 352 352 352 352 351 352 354 356 355 355 355 355 354 354 353 353 354 354
348 348 349 349 349 350 350 349 348 347 346 346 346 346 346 346 347 347 347 346 346 346 345 346 350 353 354 354 354 354 354 354 354 355 355 355 354 354 354 354 354 354
350 349 349 349 349 349 349 348 347 346 346 346 345 344 345 345 345 346 346 346 347 346 346 347 350 352 353 353 353 354 353 352 353 355 355 354 354 354 353 352 352 352
350 350 350 350 350 350 350 349 348 345 344 345 345 344 344 344 345 345 345 346 348 348 348 349 350 350 350 350 351 351 351 352 353 354 354 354 353 353 353 352 351 351
351 349 349 349 350 351 351 351 350 347 344 342 343 344 343 343 344 344 344 345 345 346 346 346 347 350 350 349 349 349 350 351 353 353 353 353 353 352 352 352 351 351
352 351 349 347 348 350 349 349 350 349 347 344 342 342 342 342 343 344 344 344 344 345 346 345 346 347 348 347 348 349 349 350 352 353 353 352 352 352 351 351 350 351
352 351 351 350 349 349 348 347 349 351 351 349 346 343 342 341 342 342 343 344 344 344 345 346 346 346 345 345 347 348 349 350 352 352 351 350 349 349 348 348 348 349
350 351 351 350 350 350 349 349 351 352 352 350 347 345 344 343 343 343 343 344 345 345 346 347 348 348 347 346 346 347 348 349 349 349 348 348 348 348 347 347 346 345
347 348 349 349 350 350 350 350 350 350 349 348 347 346 345 345 344 344 344 344 345 345 346 347 347 347 348 346 344 346 348 348 347 347 348 348 348 348 348 347 345 343
347 347 348 349 349 349 349 350 349 349 348 347 347 346 345 345 344 343 344 343 343 342 343 345 348 348 348 346 344 345 348 349 349 348 348 348 349 349 348 348 346 344
349 349 349 350 350 350 351 351 350 350 349 348 348 347 346 346 345 344 345 345 344 343 342 343 346 348 349 348 346 343 344 349 351 351 350 350 350 349 348 347 346 346
349 349 349 350 350 350 350 350 350 350 350 350 350 349 348 348 348 347 348 349 348 347 345 343 345 347 349 349 348 344 343 348 352 352 351 350 350 350 348 347 347 348
346 347 347 347 347 348 348 348 349 349 349 349 349 349 349 349 349 350 350 350 350 349 349 347 346 347 348 349 348 346 345 347 349 350 350 349 348 348 347 348 349 349
343 344 344 344 344 344 344 345 346 345 346 346 346 347 347 348 348 348 348 348 348 349 350 350 349 349 349 349 349 348 346 345 346 348 349 348 348 348 348 349 349 350

ECMWFNIL_850_thetae_108.txt.gz
Theta_e
347 347 348 348 349 349 347 347 347 347 346 345 344 346 347 347 346 345 344 343 343 344 345 345 347 345 344 345 345 346 347 346 346 346 345 345 344 344 346 349 349 349
347 347 348 348 347 346 345 344 345 346 345 344 344 346 348 348 348 349 347 346 345 344 344 344 344 343 343 344 343 344 346 345 345 345 346 346 344 343 346 349 350 351
347 347 347 347 345 344 344 343 345 347 345 344 344 344 346 348 349 349 348 349 348 346 344 344 343 343 342 343 343 343 343 343 343 343 344 345 344 343 345 349 351 351
346 347 346 346 345 343 344 344 346 348 347 346 346 345 347 349 349 349 348 349 349 347 345 343 343 343 343 343 344 344 343 343 344 343 343 344 345 344 346 350 352 352
344 345 345 345 344 344 346 346 346 348 349 349 349 349 350 351 350 349 348 347 347 346 346 345 344 344 344 343 344 344 343 343 345 344 342 344 346 345 345 349 352 352
343 344 344 344 345 346 347 347 347 348 348 351 351 350 350 351 350 349 348 346 345 345 346 347 345 344 343 342 342 343 343 343 344 344 343 344 344 344 344 347 351 353
343 344 345 345 346 348 348 349 350 349 349 351 351 350 350 350 349 349 348 347 347 345 344 346 347 346 345 343 343 343 344 343 343 344 345 346 346 345 344 344 348 351
342 343 345 345 345 347 348 350 350 349 349 351 350 350 351 351 350 350 350 349 349 348 346 348 350 349 349 348 346 345 345 344 343 344 346 347 346 345 345 345 347 348
342 343 345 346 346 347 348 350 349 348 349 350 349 350 351 351 351 351 351 351 351 350 350 351 352 352 351 350 348 347 347 347 346 346 347 347 347 348 349 346 345 346
344 345 346 347 348 348 349 351 350 349 350 350 350 351 351 351 351 351 352 352 351 351 351 351 352 353 353 352 350 349 347 348 349 349 349 348 349 351 352 350 348 349
348 349 349 347 347 348 350 352 351 350 350 351 351 352 352 351 351 351 351 352 352 352 352 352 351 352 352 351 351 349 347 348 350 351 349 348 348 351 354 353 353 353
350 352 351 349 348 349 351 352 350 350 351 351 351 350 350 350 350 351 351 351 350 350 350 350 350 350 350 350 350 349 348 348 350 352 352 351 352 351 351 351 351 351
349 351 351 351 350 349 351 351 350 349 350 351 350 349 348 348 348 349 350 350 349 348 347 348 348 348 349 349 349 349 348 348 349 351 353 354 353 350 349 351 351 351
349 350 351 352 352 351 351 351 350 350 350 349 349 349 348 347 347 348 349 349 348 348 347 347 347 348 349 348 347 347 347 347 347 348 352 354 352 350 351 351 351 350
349 351 351 352 353 352 352 352 351 351 350 349 348 348 348 348 347 347 348 348 348 347 347 346 347 348 348 348 348 348 348 349 348 348 351 354 353 352 352 351 350 351
350 351 351 351 351 351 350 351 351 351 350 349 348 348 347 347 347 347 347 347 346 347 346 346 348 349 349 350 350 351 351 351 351 350 352 354 354 354 353 351 351 351
349 349 350 349 349 349 349 349 350 350 350 349 348 347 347 347 347 346 346 345 345 345 346 347 348 349 349 348 349 350 351 351 350 351 352 354 354 353 353 351 350 350
348 348 348 348 349 349 349 348 349 349 348 347 346 346 346 346 346 346 346 345 345 345 346 346 347 347 346 345 346 348 349 350 349 350 352 354 354 352 351 350 350 350
349 348 348 349 349 349 349 349 349 350 349 348 346 345 345 345 344 345 345 345 345 345 345 346 346 346 345 345 345 345 347 348 348 349 351 353 353 351 349 348 348 348
351 350 350 350 349 349 350 350 350 351 350 350 349 348 346 346 345 345 344 345 344 345 345 345 345 346 346 347 346 345 345 346 347 348 350 352 353 352 350 347 346 345
350 350 349 348 349 349 350 349 350 351 351 351 350 349 349 350 349 347 345 344 344 344 344 345 346 347 348 348 348 348 347 346 347 348 349 352 353 353 351 348 347 346
349 350 349 349 349 350 350 350 350 350 350 350 350 350 351 352 351 349 347 346 344 344 344 346 347 349 348 347 348 349 349 347 346 346 348 350 352 352 352 350 349 347
348 348 348 349 349 349 349 350 350 350 349 349 350 350 351 351 350 348 347 346 345 344 344 344 345 346 345 344 345 348 350 350 347 346 348 349 349 350 350 350 350 349
347 347 347 347 347 347 348 349 349 349 349 349 350 350 350 349 349 347 347 346 346 345 345 345 345 344 343 342 342 343 347 349 348 347 347 348 348 349 350 350 350 350
348 348 348 348 348 348 349 349 350 350 350 350 350 350 350 349 349 349 348 348 348 347 347 346 346 347 346 345 343 341 342 346 348 347 346 347 349 351 350 350 350 349
345 345 346 346 347 347 348 348 348 348 348 348 348 347 347 346 347 347 347 348 348 348 348 348 348 349 348 348 347 344 342 345 348 348 346 347 350 351 349 348 348 347

ECMWFNIL_850_thetae_111.txt.gz
Theta_e
347 347 347 347 347 347 347 347 348 348 347 347 346 344 343 344 343 343 343 343 343 342 343 344 345 347 347 346 345 345 345 346 347 346 344 344 343 342 344 346 347 347
347 347 346 346 347 347 348 347 348 348 346 346 346 345 345 346 345 344 343 343 342 342 343 345 345 346 346 345 344 344 345 346 348 347 345 345 345 344 344 345 348 348
346 347 346 346 346 348 348 348 347 347 346 346 345 344 346 347 347 346 346 345 344 343 343 344 344 344 344 344 343 343 343 345 346 345 343 343 344 344 344 345 347 349
344 346 347 347 347 347 348 348 346 345 345 346 344 343 344 346 347 348 348 347 347 346 345 344 344 343 343 342 342 343 343 343 344 343 342 342 342 343 344 344 346 348
343 345 347 348 348 347 347 347 345 344 345 346 344 343 344 345 347 348 348 347 348 348 346 345 343 343 342 342 342 343 343 343 343 343 343 343 342 344 346 345 344 346
343 344 346 347 347 347 347 345 344 344 346 347 346 346 347 347 348 350 349 348 348 348 347 345 345 344 344 343 343 343 343 344 343 343 343 343 343 344 345 344 343 346
343 343 345 346 346 347 346 345 345 345 347 348 348 349 349 349 350 350 349 348 348 347 346 346 347 347 346 344 343 342 342 343 344 343 343 344 344 345 345 344 344 344
342 343 343 345 346 345 344 345 346 347 348 349 349 350 350 350 350 349 349 349 348 347 347 346 346 348 348 347 346 345 343 343 343 343 343 345 346 347 346 346 344 344
340 341 342 344 345 344 344 345 347 349 350 350 350 350 350 350 350 350 350 350 350 349 349 348 348 349 350 350 349 348 346 345 345 344 344 346 347 347 347 348 347 345
339 340 342 344 344 344 344 346 347 349 350 349 349 350 350 350 351 350 350 351 351 351 351 350 349 350 350 350 350 350 349 348 347 346 346 347 349 349 350 351 350 347
339 340 341 343 344 344 344 345 347 349 349 348 349 349 349 350 351 351 351 351 351 351 351 350 350 350 350 349 349 349 349 348 348 347 348 348 349 349 349 350 350 348
340 340 341 341 342 344 344 345 347 349 349 349 349 350 350 350 351 351 351 351 351 351 350 349 349 350 350 349 349 349 348 348 347 347 348 348 349 349 349 348 348 348
341 342 343 343 344 344 345 347 349 350 350 350 350 350 350 351 351 351 351 351 351 350 349 348 347 347 348 348 349 350 349 347 346 347 348 349 349 350 350 349 348 349
344 344 346 347 348 348 348 348 348 349 350 350 350 350 350 350 349 349 349 349 350 350 349 348 347 347 347 347 348 349 349 348 347 346 346 346 347 349 350 351 350 350
345 346 348 350 351 351 350 349 349 350 350 350 350 350 350 350 349 348 348 347 348 349 349 348 348 347 346 347 347 348 348 348 348 349 348 347 346 347 350 351 351 350
347 347 348 349 351 351 351 351 350 351 351 351 351 351 350 349 348 348 348 347 347 348 348 349 348 347 346 346 346 347 347 349 350 350 351 350 349 348 348 350 351 351
350 348 349 350 350 351 351 352 351 351 351 352 352 351 350 349 348 348 347 347 346 347 347 347 347 347 346 346 347 347 348 349 349 350 351 351 351 350 349 349 351 351
350 349 349 350 350 350 351 352 351 351 351 352 352 351 350 350 349 348 347 347 346 347 346 346 346 346 346 346 346 347 348 348 348 349 351 351 350 349 349 349 351 351
349 349 350 350 350 351 351 351 351 350 350 350 351 350 350 350 349 349 348 347 346 346 346 346 345 345 345 346 346 347 348 347 346 347 349 350 350 349 348 348 350 351
350 349 350 351 351 350 350 350 349 349 349 349 349 349 349 349 349 348 347 347 346 346 346 345 346 345 346 346 347 347 347 346 345 345 347 347 348 349 348 348 349 350
350 350 350 350 349 349 348 348 348 349 349 349 349 349 348 348 348 348 348 348 347 346 346 345 345 345 345 346 347 347 347 346 345 345 345 346 346 347 348 349 350 351
350 351 351 350 350 349 349 349 349 350 350 350 350 350 350 350 351 352 351 351 350 349 349 348 346 345 344 344 346 348 348 347 346 344 343 344 346 347 348 348 350 351
351 352 352 352 352 352 352 351 350 350 351 351 352 352 352 352 352 351 350 350 350 351 351 350 348 346 345 344 345 346 348 349 348 346 343 341 343 346 347 348 350 351
349 349 349 350 351 351 351 351 350 350 351 352 351 351 350 349 348 347 348 348 349 349 350 350 348 347 346 345 344 345 346 348 348 347 346 344 344 346 348 349 351 352
347 347 347 347 348 348 348 349 349 349 349 349 349 349 348 348 348 348 348 348 349 349 348 348 347 347 346 346 346 346 346 346 346 345 345 346 346 348 349 350 352 352
347 347 347 347 347 347 347 347 347 348 348 347 347 347 347 347 348 348 348 348 348 348 348 348 348 348 347 347 347 347 347 346 347 346 345 345 344 345 347 348 350 350

ECMWFNIL_850_thetae_114.txt.gz
Theta_e
348 348 348 347 347 347 347 347 347 346 347 347 346 344 344 345 346 346 345 344 344 343 343 343 342 343 345 347 347 347 347 347 347 346 345 344 343 343 342 342 342 343
347 348 348 347 347 347 348 348 347 347 347 348 348 348 347 346 346 346 345 344 344 344 344 343 343 345 346 347 347 345 345 346 347 348 348 346 345 346 346 344 343 344
346 347 347 347 347 348 348 348 348 348 348 349 349 349 349 347 347 347 346 345 345 344 343 343 344 345 345 346 346 345 343 343 344 347 348 346 345 346 346 345 345 345
344 345 346 347 347 348 349 348 348 348 348 348 349 349 348 347 347 348 348 347 347 345 344 344 344 344 343 344 344 344 343 342 343 344 345 345 343 343 344 345 346 346
342 342 344 345 346 347 348 348 349 349 348 348 347 348 347 346 346 348 348 348 349 347 347 347 345 343 343 343 343 342 342 343 343 343 343 343 343 343 343 345 346 346
342 341 342 343 344 346 347 348 348 349 348 347 346 346 347 346 345 345 347 348 349 348 348 348 347 345 343 342 342 342 342 343 344 343 343 342 343 344 343 344 345 345
341 341 342 342 343 345 347 348 347 347 347 346 345 346 346 345 345 346 348 349 349 348 348 348 347 345 345 345 344 343 342 342 343 343 343 343 343 344 345 345 345 344
340 341 342 342 343 345 345 346 346 345 345 345 345 346 346 347 347 348 349 350 349 348 347 347 345 345 346 347 346 344 343 343 343 342 343 343 343 343 345 347 347 345
339 340 342 343 343 344 344 344 344 343 344 344 345 346 347 348 348 348 349 350 349 349 348 347 346 345 346 347 347 346 347 347 345 344 344 344 343 344 346 347 346 345
338 338 340 342 343 343 343 343 343 342 343 344 345 347 348 349 349 349 350 350 350 350 349 349 349 348 347 348 348 349 349 349 348 348 346 346 346 345 346 346 346 346
338 338 338 339 341 342 343 343 343 343 343 345 347 348 349 350 350 350 350 350 350 350 351 351 350 350 350 350 350 350 350 350 350 349 348 348 347 347 347 347 347 347
339 339 338 338 339 341 342 343 343 343 344 345 347 348 348 349 349 350 350 350 350 351 351 351 351 351 351 350 350 351 350 350 350 350 349 348 347 347 347 346 346 346
339 339 338 338 339 340 342 343 344 344 344 345 346 347 347 348 349 349 350 350 350 350 350 351 351 350 351 350 350 351 351 351 351 351 350 349 347 346 347 347 348 348
340 340 340 339 339 340 341 342 343 344 344 345 348 348 348 349 349 349 350 350 350 350 350 350 350 350 350 350 349 350 350 350 350 350 351 350 348 346 346 347 348 349
340 341 341 340 340 340 340 341 343 345 346 347 349 350 349 349 349 350 350 350 350 349 349 349 349 349 349 349 349 349 349 349 349 349 350 350 350 348 347 346 346 347
341 341 341 341 341 341 342 344 345 346 347 349 350 350 350 350 350 350 350 350 349 348 348 348 348 348 348 348 349 349 349 349 349 349 349 349 350 350 349 349 347 347
343 342 342 342 342 343 345 347 348 349 349 349 349 349 350 350 350 350 350 350 349 348 347 347 347 347 347 347 348 348 348 348 348 348 348 349 349 349 350 350 350 350
346 343 343 344 345 346 348 349 350 350 350 349 349 349 350 350 350 350 350 350 349 348 347 346 346 345 345 346 346 346 346 347 347 347 348 348 348 348 348 349 350 350
348 346 345 347 348 347 348 349 350 350 350 350 350 350 350 350 350 350 351 350 349 349 348 347 347 346 346 346 345 345 345 345 346 347 347 348 348 346 346 348 349 349
351 350 349 350 351 349 349 349 350 351 351 351 351 351 350 349 348 348 348 349 349 349 348 348 347 346 346 345 345 345 345 345 345 347 347 347 347 345 345 346 347 348
353 353 352 352 351 350 349 350 351 352 353 352 351 350 349 347 346 347 348 349 349 349 349 349 348 348 347 346 345 345 345 345 345 346 347 347 346 346 345 345 345 346
352 351 350 350 351 350 350 351 351 352 352 351 350 350 349 348 348 349 350 349 348 348 348 349 349 349 349 348 347 346 345 345 345 345 346 346 346 346 345 345 345 344
349 348 348 349 350 350 350 351 351 350 350 349 349 348 349 349 349 351 351 350 349 349 349 349 349 349 350 349 349 348 347 346 345 345 345 345 346 346 346 346 346 345
349 349 350 350 349 350 351 350 350 350 350 350 350 350 349 349 349 350 350 350 350 349 348 347 347 347 348 349 349 349 349 348 346 345 345 345 346 346 347 347 346 346
350 349 349 349 348 349 349 348 348 349 349 349 348 348 348 348 348 348 348 348 348 348 347 347 347 347 348 348 348 349 348 347 347 346 346 346 346 346 346 346 346 346
348 348 347 347 347 347 346 346 346 346 346 346 346 345 345 346 346 346 346 346 346 347 347 347 347 347 347 347 347 347 347 347 347 347 347 347 346 346 346 346 346 346

ECMWFNIL_850_thetae_117.txt.gz
Theta_e
344 346 347 347 348 348 348 348 348 348 348 347 346 346 345 344 345 347 347 347 345 344 344 343 343 343 344 345 346 347 348 348 348 347 345 345 344 344 344 343 343 342
343 345 347 347 348 348 347 347 347 348 348 348 347 348 348 348 347 347 347 347 345 344 344 343 343 343 343 344 346 348 348 348 348 347 347 348 347 346 345 345 345 343
343 345 347 347 347 347 347 347 347 348 348 348 348 348 349 349 348 348 347 347 346 345 344 344 344 343 343 344 345 346 347 346 346 346 346 348 348 347 346 345 345 345
343 345 346 346 346 347 346 347 347 347 348 348 348 349 349 349 348 348 347 347 346 346 345 344 344 344 344 344 344 344 345 344 344 344 344 345 346 346 345 344 344 345
343 345 346 345 345 346 346 345 346 346 347 348 348 348 348 348 348 347 346 347 347 348 347 346 346 346 346 345 344 343 343 343 343 343 342 343 344 344 344 343 343 345
342 343 345 344 344 345 345 344 344 345 347 348 348 348 347 347 347 346 345 346 347 348 349 349 348 348 348 347 345 343 343 343 343 343 343 343 343 344 344 344 344 344
341 342 344 343 343 344 344 344 344 345 347 347 348 347 345 345 346 345 344 345 346 348 349 350 349 349 350 349 346 344 344 344 343 343 343 343 343 344 344 345 345 344
340 341 342 342 342 342 343 343 345 346 347 347 346 345 344 345 345 345 345 346 348 349 350 349 349 349 349 348 347 347 347 346 344 343 343 343 343 343 344 345 346 346
339 340 341 341 341 341 341 342 345 346 346 346 345 344 344 345 346 346 347 348 349 350 350 349 349 348 348 347 346 347 348 348 348 347 346 345 345 344 344 345 346 347
340 339 339 340 341 341 341 342 344 345 345 345 345 344 344 345 346 347 348 349 349 350 349 349 349 349 349 348 347 347 348 350 350 350 349 349 349 348 347 348 348 347
342 339 339 339 339 340 341 342 343 343 344 344 344 344 345 346 347 348 349 349 350 350 350 350 350 350 351 350 349 349 350 351 351 351 351 351 351 350 349 349 349 349
346 342 339 338 339 339 341 342 342 343 343 343 343 344 345 347 348 349 350 350 350 350 350 350 351 351 351 351 350 351 351 351 351 351 351 351 351 350 349 349 349 350
349 346 342 339 338 339 339 341 341 342 343 343 343 343 345 347 349 350 350 350 350 350 350 350 351 351 351 351 351 351 351 351 351 351 351 351 350 350 350 349 349 349
348 349 346 341 338 338 339 339 340 341 343 343 343 343 345 347 349 350 350 350 350 350 350 350 350 350 350 350 350 351 350 350 350 350 350 350 349 349 349 349 348 348
347 348 347 342 339 339 338 338 338 340 342 343 343 343 344 346 348 349 350 350 350 350 350 351 350 350 350 350 349 350 350 350 350 349 349 349 349 348 348 348 348 348
347 348 346 342 339 339 339 338 338 340 341 342 343 343 344 346 348 349 349 350 350 350 350 350 349 349 349 348 349 349 349 349 349 349 349 349 349 348 347 347 348 348
348 348 347 344 341 341 341 339 338 339 340 342 344 345 346 347 349 350 350 350 350 350 350 349 348 348 348 347 347 347 347 347 347 347 347 348 348 348 348 348 348 349
350 351 350 348 345 344 343 341 341 342 345 347 348 348 349 349 350 351 350 350 350 350 350 349 349 348 348 347 346 346 346 346 346 346 346 346 346 346 347 347 348 348
349 351 352 351 349 349 349 347 345 346 348 350 351 350 349 349 350 350 350 350 350 350 350 350 349 349 348 348 348 347 346 346 345 345 345 345 345 345 345 346 346 347
347 349 350 350 349 349 351 352 349 348 350 351 351 351 350 347 346 348 349 349 349 350 349 349 349 349 349 349 348 348 347 347 346 345 345 345 345 345 345 346 347 347
348 348 348 350 349 346 349 352 351 351 351 351 350 351 350 348 347 349 349 348 347 347 347 348 348 348 349 348 348 347 347 347 347 346 346 345 345 345 345 346 347 347
348 345 346 350 351 348 348 349 350 350 350 349 348 349 350 349 349 350 349 347 347 347 347 348 348 348 348 348 348 348 348 348 348 347 347 346 345 345 345 345 346 346
346 345 346 349 349 349 349 349 349 350 350 348 348 348 349 348 348 348 348 348 348 349 349 349 349 349 349 349 350 349 349 348 348 348 348 348 348 347 346 346 346 346
347 346 348 349 348 348 348 348 349 350 349 349 349 349 349 349 348 349 349 349 349 349 349 349 349 349 349 349 349 348 347 347 346 347 347 348 348 348 348 347 347 346
348 349 349 349 348 348 349 348 348 348 348 348 348 348 348 348 348 348 348 348 348 348 348 347 347 347 347 347 347 347 347 347 347 347 347 348 348 348 348 348 347 347
348 348 347 346 346 346 346 346 346 346 346 346 345 345 345 346 345 345 345 345 346 346 345 345 345 345 345 345 344 344 344 345 344 345 345 345 345 345 345 345 345 345

ECMWFNIL_850_thetae_120.txt.gz
Theta_e
344 347 348 350 351 351 352 353 353 353 353 353 353 353 353 350 348 347 349 350 345 344 345 343 344 344 344 346 344 343 346 347 350 355 353 350 352 354 354 354 354 353
342 344 346 349 350 349 348 351 353 353 352 351 352 354 354 352 349 347 347 349 349 349 347 343 344 344 343 346 345 343 346 345 347 354 355 352 352 354 354 354 354 354
342 344 345 349 351 350 351 352 352 351 352 353 352 353 353 353 353 350 348 348 351 354 352 348 347 347 346 346 343 345 349 348 348 353 355 351 351 353 355 354 353 354
343 344 347 351 352 353 353 354 352 350 351 353 353 353 353 353 354 354 351 347 347 349 351 350 348 349 350 347 344 347 350 349 348 349 348 348 348 350 353 354 353 353
345 345 348 351 353 354 354 353 353 352 352 353 353 354 353 350 351 354 354 351 347 348 351 350 349 349 350 347 346 349 352 352 352 349 344 344 347 350 353 353 353 353
347 344 346 350 352 353 353 353 353 353 353 353 353 354 354 352 350 352 354 354 352 352 354 354 353 353 353 353 352 351 350 351 354 351 346 345 349 353 354 354 355 354
350 346 346 349 351 351 351 353 353 353 353 354 354 354 354 354 353 352 352 352 353 354 354 355 355 352 353 355 354 351 349 348 349 347 344 346 349 350 351 354 354 351
351 350 349 350 352 352 351 352 353 353 353 353 354 355 353 353 353 353 352 351 353 354 353 354 354 350 351 355 355 354 353 352 352 351 349 349 349 348 349 351 352 350
350 352 351 351 352 353 352 352 352 353 353 352 353 354 354 353 353 354 354 352 352 352 351 352 353 351 353 355 354 353 353 353 353 355 356 355 354 353 354 354 355 354
350 351 352 352 352 353 353 352 352 353 353 353 353 353 353 354 352 354 354 351 350 351 351 351 352 352 353 355 354 354 353 352 352 353 354 354 355 355 355 354 355 355
351 350 352 353 353 353 353 353 351 352 353 353 353 352 353 354 353 354 354 351 351 354 354 353 353 353 353 354 354 355 355 354 354 353 353 353 354 353 352 353 353 354
351 352 353 353 352 351 352 353 352 351 352 353 353 353 353 354 354 354 355 354 354 355 355 355 355 354 354 354 354 355 355 355 355 355 355 355 355 355 354 354 354 355
349 353 354 354 353 350 347 350 352 352 352 352 353 353 353 353 353 354 355 356 356 355 355 355 355 354 354 354 354 354 355 355 355 355 355 355 355 355 355 355 355 355
345 351 353 353 352 348 343 345 349 352 353 353 353 353 352 352 352 353 354 354 355 355 355 355 354 354 353 353 353 354 354 354 353 353 354 354 354 355 354 355 355 355
346 349 350 350 349 347 345 342 344 349 352 353 353 353 352 352 352 352 353 353 353 354 354 354 353 353 352 352 352 353 352 352 351 351 352 351 351 353 354 355 355 355
348 348 349 349 349 349 348 344 342 346 352 353 352 353 353 352 352 352 353 353 353 353 354 353 352 352 351 351 351 350 350 350 349 349 348 347 348 349 351 353 353 354
348 349 350 350 350 350 351 349 346 347 351 352 350 350 350 349 350 352 353 353 353 353 352 351 351 351 351 350 349 348 348 348 348 349 350 350 350 351 352 352 352 352
348 350 351 352 351 350 350 350 349 348 348 346 346 349 349 348 350 351 350 351 353 353 352 351 351 351 350 349 348 348 347 346 347 349 351 352 353 354 354 353 352 352
348 349 349 349 350 349 347 347 348 349 348 346 348 352 351 349 349 349 348 350 353 354 353 352 351 350 349 349 348 348 347 347 347 348 349 351 352 353 352 352 352 352
349 348 347 345 346 348 348 346 346 347 348 348 350 351 350 350 351 350 349 350 351 353 353 352 350 349 350 349 348 348 347 347 348 347 347 349 350 350 351 351 351 350
349 349 348 346 345 345 347 348 347 346 346 348 348 347 347 349 352 352 351 349 349 351 352 351 349 349 349 348 347 348 347 347 348 348 347 348 349 350 350 350 350 348
349 349 350 350 348 345 344 347 348 348 347 347 348 348 347 347 349 351 351 349 350 351 351 350 348 347 347 347 347 347 347 348 349 349 349 349 350 351 350 349 349 349
346 346 348 350 348 345 345 346 347 347 347 347 348 349 349 349 350 350 350 350 350 350 350 349 347 347 347 348 349 349 349 350 350 350 350 350 350 350 349 348 349 349
346 347 348 348 346 345 345 347 348 349 348 349 350 350 351 350 350 350 349 349 349 349 349 348 348 349 349 349 349 349 348 349 349 349 349 348 348 348 348 347 348 348
349 348 348 346 345 345 346 347 349 349 349 349 349 349 350 350 350 349 349 349 349 349 350 349 349 349 349 348 347 347 346 346 346 346 346 346 346 346 345 345 346 346
349 348 348 346 346 347 347 347 348 349 349 348 348 347 347 347 348 349 349 348 348 348 347 347 347 347 346 345 344 343 343 342 342 342 342 342 342 342 341 341 342 342